[[{"header":{"parameterUnit":"m.s-1","parameterCategory":1,"la1":30.6,"la2":29.2853,"lo1":-89.7004,"lo2":-87.6739,"dy":0.0162,"dx":0.0183,"nx":112,"ny":82,"refTime":"2023-08-24T00:00:00:Z","depth":0,"parameterNumber":2,"parameterNumberName":"U-component_of_WINDS"},"data":[0.0,0.0,0.0,0.0,0.0,0.0,0.0,0.0,0.0,0.0,0.0,0.0,0.0,0.0,0.0,0.0,0.0,0.0,0.0,0.0,0.0,0.0,0.0,0.0,0.0,0.0,0.0,0.0,0.0,0.0,0.0,0.0,0.0,0.0,0.0,0.0,0.0,0.0,0.0,0.0,0.0,0.0,0.0,0.0,0.0,0.0,0.0,0.0,0.0,0.0,0.0,0.0,0.0,0.0,0.0,0.0,0.0,0.0,0.0,0.0,0.0,0.0,0.0,0.0,0.0,0.0,0.0,0.0,0.0,0.0,0.0,0.0,0.0,0.0,0.0,0.0,0.0,0.0,0.0,0.0,0.0,0.0,0.0,0.0,0.0,0.0,0.0,0.0,0.0,0.0,0.7107,0.8459,0.8553,0.8171,0.7335,0.7285,0.7037,0.6415,0.0,0.0,0.0,0.0,0.0,0.0,0.0,0.0,0.0,0.0,0.0,0.0,0.0,0.0,0.0,0.0,0.0,0.0,0.0,0.0,0.0,0.0,0.0,0.0,0.0,0.0,0.0,0.0,0.0,0.0,0.0,0.0,0.0,0.0,0.0,0.0,0.0,0.0,0.0,0.0,0.0,0.0,0.0,0.0,0.0,0.0,0.0,0.0,0.0,0.0,0.0,0.0,0.0,0.0,0.0,0.0,0.0,0.0,0.0,0.0,0.0,0.0,0.0,0.0,0.0,0.0,0.0,0.0,0.0,0.0,0.0,0.0,0.0,0.0,0.0,0.0,0.0,0.0,0.0,0.0,0.0,0.0,0.0,0.0,0.0,0.0,0.0,0.0,0.0,0.0,0.0,0.0,0.0,0.0,0.0,0.0,0.0,0.0,0.0,0.0,0.0,0.0,0.0,0.0,0.7324,0.6851,0.732,0.75,0.7074,0.634,0.6286,0.7168,0.0,0.0,0.0,0.0,0.0,0.0,0.0,0.0,0.0,0.0,0.0,0.0,0.0,0.0,0.0,0.0,0.0,0.0,0.0,0.0,0.0,0.0,0.0,0.0,0.0,0.0,0.0,0.0,0.0,0.0,0.0,0.0,0.0,0.0,0.0,0.0,0.0,0.0,0.0,0.0,0.0,0.0,0.0,0.0,0.0,0.0,0.0,0.0,0.0,0.0,0.0,0.0,0.0,0.0,0.0,0.0,0.0,0.0,0.0,0.0,0.0,0.0,0.0,0.0,0.0,0.0,0.0,0.0,0.0,0.0,0.0,0.0,0.0,0.0,0.0,0.0,0.0,0.0,0.0,0.0,0.0,0.0,0.0,0.0,0.0,0.0,0.0,0.0,0.0,0.0,0.0,0.0,0.0,0.0,0.0,0.0,0.0,0.0,0.0,0.0,0.0,0.0,0.0,0.7627,0.7375,0.6484,0.6677,0.6747,0.6471,0.5465,0.5324,0.6463,0.6894,0.0,0.0,0.0,0.0,0.0,0.0,0.0,0.0,0.0,0.0,0.0,0.0,0.0,0.0,0.0,0.0,0.0,0.0,0.0,0.0,0.0,0.0,0.0,0.0,0.0,0.0,0.0,0.0,0.0,0.0,0.0,0.0,0.0,0.0,0.0,0.0,0.0,0.0,0.0,0.0,0.0,0.0,0.0,0.0,0.0,0.0,0.0,0.0,0.0,0.0,0.0,0.0,0.0,0.0,0.0,0.0,0.0,0.0,0.0,0.0,0.0,0.0,0.0,0.0,0.0,0.0,0.0,0.0,0.0,0.0,0.0,0.0,0.0,0.0,0.0,0.0,0.0,0.0,0.0,0.0,0.0,0.0,0.0,0.0,0.0,0.0,0.0,0.0,0.0,0.0,0.0,0.0,0.0,0.0,0.0,0.0,0.0,0.0,0.0,0.0,0.0,0.0,0.6913,0.6835,0.6161,0.6027,0.5909,0.5713,0.4789,0.4666,0.573,0.5897,0.0,0.0,0.0,0.0,0.0,0.0,0.0,0.0,0.0,0.0,0.0,0.0,0.0,0.0,0.0,0.0,0.0,0.0,0.0,0.0,0.0,0.0,0.0,0.0,0.0,0.0,0.0,0.0,0.0,0.0,0.0,0.0,0.0,0.0,0.0,0.0,0.0,0.0,0.0,0.0,0.0,0.0,0.0,0.0,0.0,0.0,0.0,0.0,0.0,0.0,0.0,0.0,0.0,0.0,0.0,0.0,0.0,0.0,0.0,0.0,0.0,0.0,0.0,0.0,0.0,0.0,0.0,0.0,0.0,0.0,0.0,0.0,0.0,0.0,0.0,0.0,0.0,0.0,0.0,0.0,0.0,0.0,0.0,0.0,0.0,0.0,0.0,0.0,0.0,0.0,0.0,0.0,0.0,0.0,0.0,0.0,0.0,0.0,0.0,0.0,0.0,0.0,0.6218,0.5267,0.5195,0.5124,0.5008,0.4813,0.4482,0.4725,0.573,0.5815,0.0,0.0,0.0,0.0,0.0,0.0,0.0,0.0,0.0,0.0,0.0,0.0,0.0,0.0,0.0,0.0,0.0,0.0,0.0,0.0,0.0,0.0,0.0,0.0,0.0,0.0,0.0,0.0,0.0,0.0,0.0,0.0,0.0,0.0,0.0,0.0,0.0,0.0,0.0,0.0,0.0,0.0,0.0,0.0,0.0,0.0,0.0,0.0,0.0,0.0,0.0,0.0,0.0,0.0,0.0,0.0,0.0,0.0,0.0,0.0,0.0,0.0,0.0,0.0,0.0,0.0,0.0,0.0,0.0,0.0,0.0,0.0,0.0,0.0,0.0,0.0,0.0,0.0,0.0,0.0,0.0,0.0,0.0,0.0,0.0,0.0,0.0,0.0,0.0,0.0,0.0,0.0,0.0,0.0,0.0,0.0,0.0,0.0,0.0,0.0,0.0,0.0,0.6602,0.5693,0.5156,0.504,0.4949,0.4843,0.4621,0.484,0.5691,0.0,0.0,0.0,0.0,0.0,0.0,0.0,0.0,0.0,0.0,0.0,0.0,0.0,0.0,0.0,0.0,0.0,0.0,0.0,0.0,0.0,0.0,0.0,0.0,0.0,0.0,0.0,0.0,0.0,0.0,0.0,0.0,0.0,0.0,0.0,0.0,0.0,0.0,0.0,0.0,0.0,0.0,0.0,0.0,0.0,0.0,0.0,0.0,0.0,0.0,0.0,0.0,0.0,0.0,0.0,0.0,0.0,0.0,0.0,0.0,0.0,0.0,0.0,0.0,0.0,0.0,0.0,0.0,0.0,0.0,0.0,0.0,0.0,0.0,0.0,0.0,0.0,0.0,0.0,0.0,0.0,0.0,0.0,0.0,0.0,0.0,0.0,0.0,0.0,0.0,0.0,0.0,0.0,0.0,0.0,0.0,0.0,0.0,0.0,0.0,0.0,0.0,0.768,0.6655,0.5762,0.5173,0.5053,0.5012,0.4938,0.473,0.489,0.556,0.0,0.0,0.0,0.0,0.0,0.0,0.0,0.0,0.0,0.0,0.0,0.0,0.0,0.0,0.0,0.0,0.0,0.0,0.0,0.0,0.0,0.0,0.0,0.0,0.0,0.0,0.0,0.0,0.0,0.0,0.0,0.0,0.0,0.0,0.0,0.0,0.0,0.0,0.0,0.0,0.0,0.0,0.0,0.0,0.0,0.0,0.0,0.0,0.0,0.0,0.0,0.0,0.0,0.0,0.0,0.0,0.0,0.0,0.0,0.0,0.0,0.0,0.0,0.0,0.0,0.0,0.0,0.0,0.0,0.0,0.0,0.0,0.0,0.0,0.0,0.0,0.0,0.0,0.0,0.0,0.0,0.0,0.0,0.0,0.0,0.0,0.0,0.0,0.0,0.0,0.0,0.0,0.0,0.0,0.0,0.0,0.0,0.0,0.0,0.0,0.0,0.0,0.7603,0.6128,0.5093,0.5105,0.5097,0.5069,0.5007,0.4761,0.484,0.0,0.0,0.0,0.0,0.0,0.0,0.0,0.0,0.0,0.0,0.0,0.0,0.0,0.0,0.0,0.0,0.0,0.0,0.0,0.0,0.0,0.0,0.0,0.0,0.0,0.0,0.0,0.0,0.0,0.0,0.0,0.0,0.0,0.0,0.0,0.0,0.0,0.0,0.0,0.0,0.0,0.0,0.0,0.0,0.0,0.0,0.0,0.0,0.0,0.0,0.0,0.0,0.0,0.0,0.0,0.0,0.0,0.0,0.0,0.0,0.0,0.0,0.0,0.0,0.0,0.0,0.0,0.0,0.0,0.0,0.0,0.0,0.0,0.0,0.0,0.0,0.0,0.0,0.0,0.0,0.0,0.0,0.0,0.0,0.0,0.0,0.0,0.0,0.0,0.0,0.0,0.0,0.0,0.0,0.0,0.0,0.0,0.0,0.0,0.0,0.0,0.0,0.0,0.7677,0.6162,0.5108,0.5104,0.5098,0.5097,0.5068,0.5005,0.51,0.5453,0.0,0.0,0.0,0.0,0.0,0.0,0.0,0.0,0.0,0.0,0.0,0.0,0.0,0.0,0.0,0.0,0.0,0.0,0.0,0.0,0.0,0.0,0.0,0.0,0.0,0.0,0.0,0.0,0.0,0.0,0.0,0.0,0.0,0.0,0.0,0.0,0.0,0.0,0.0,0.0,0.0,0.0,0.0,0.0,0.0,0.0,0.0,0.0,0.0,0.0,0.0,0.0,0.0,0.0,0.0,0.0,0.0,0.0,0.0,0.0,0.0,0.0,0.0,0.0,0.0,0.0,0.0,0.0,0.0,0.0,0.0,0.0,0.0,0.0,0.0,0.0,0.0,0.0,0.0,0.0,0.0,0.0,0.0,0.0,0.0,0.0,0.0,0.0,0.0,0.0,0.0,0.0,0.0,0.0,0.0,0.0,0.0,0.0,0.0,0.0,0.0,0.0,0.7705,0.6187,0.5101,0.5099,0.5106,0.5109,0.5095,0.5109,0.51,0.5093,0.0,0.0,0.0,0.0,0.0,0.0,0.0,0.0,0.0,0.0,0.0,0.0,0.0,0.0,0.0,0.0,0.0,0.0,0.0,0.0,0.0,0.0,0.0,0.0,0.0,0.0,0.0,0.0,0.0,0.0,0.0,0.0,0.0,0.0,0.0,0.0,0.0,0.0,0.0,0.0,0.0,0.0,0.0,0.0,0.0,0.0,0.0,0.0,0.0,0.0,0.0,0.0,0.0,0.0,0.0,0.0,0.0,0.0,0.0,0.0,0.0,0.0,0.0,0.0,0.0,0.0,0.0,0.0,0.0,0.0,0.0,0.0,0.0,0.0,0.0,0.0,0.0,0.0,0.0,0.0,0.0,0.0,0.0,0.0,0.0,0.0,0.0,0.0,0.0,0.0,0.0,0.0,0.0,0.0,0.0,0.0,0.0,0.0,0.0,0.0,0.0,0.0,0.7941,0.6336,0.5205,0.5197,0.5116,0.5042,0.5037,0.5058,0.4905,0.4543,0.0,0.0,0.0,0.0,0.0,0.0,0.0,0.0,0.0,0.0,0.0,0.0,0.0,0.0,0.0,0.0,0.0,0.0,0.0,0.0,0.0,0.0,0.0,0.0,0.0,0.0,0.0,0.0,0.0,0.0,0.0,0.0,0.0,0.0,0.0,0.0,0.0,0.0,0.0,0.0,0.0,0.0,0.0,0.0,0.0,0.0,0.0,0.0,0.0,0.0,0.0,0.0,0.0,0.0,0.0,0.0,0.0,0.0,0.0,0.0,0.8514,0.8908,0.0,0.0,0.0,0.0,0.0,0.0,0.0,0.0,0.0,0.0,0.0,0.0,0.0,0.0,0.0,0.0,0.0,0.0,0.0,0.0,0.0,0.0,0.0,0.0,0.0,0.0,0.0,0.0,0.0,0.0,0.0,0.0,0.0,0.0,0.0,0.0,0.0,0.0,0.0,0.0,0.9664,0.7587,0.6056,0.5903,0.5174,0.4666,0.4565,0.4687,0.4745,0.4659,0.5049,0.0,0.0,0.0,0.0,0.0,0.0,0.0,0.0,0.0,0.0,0.0,0.0,0.0,0.0,0.0,0.0,0.0,0.0,0.0,0.0,0.0,0.0,0.0,0.0,0.0,0.0,0.0,0.0,0.0,0.0,0.0,0.0,0.0,0.0,0.0,0.0,0.0,0.0,0.0,0.0,0.0,0.0,0.0,0.0,0.0,0.0,0.0,0.0,0.0,0.0,0.0,0.0,0.0,0.0,0.0,0.0,0.0,0.0,0.0,0.8951,0.8968,0.0,0.0,0.0,0.0,0.0,0.0,0.0,0.0,0.0,0.0,0.0,0.0,0.0,0.0,0.0,0.0,0.0,0.0,0.0,0.0,0.0,0.0,0.0,0.0,0.0,0.0,0.0,0.0,0.0,0.0,0.0,0.0,0.0,0.0,0.0,0.0,0.0,0.0,0.0,0.0,1.0155,0.8206,0.6748,0.6561,0.5928,0.5448,0.5277,0.5279,0.5072,0.4583,0.5138,0.0,0.0,0.0,0.0,0.0,0.0,0.0,0.0,0.0,0.0,0.0,0.0,0.0,0.0,0.0,0.0,0.0,0.0,0.0,0.0,0.0,0.0,0.0,0.0,0.0,0.0,0.0,0.0,0.0,0.0,0.0,0.0,0.0,0.0,0.0,0.0,0.0,0.0,0.0,0.0,0.0,0.0,0.0,0.0,0.0,0.0,0.0,0.0,0.0,0.0,0.0,0.0,0.0,1.3398,1.2776,1.0731,1.1729,1.1434,1.0118,0.9491,0.9178,0.9095,0.9095,0.0,0.0,0.0,0.0,0.0,0.0,0.0,0.0,0.0,0.0,0.0,0.0,0.0,0.0,0.0,0.0,0.0,0.0,0.0,0.0,0.0,0.0,1.4102,1.3413,1.386,1.4238,1.3518,0.0,0.0,0.0,0.0,0.0,0.0,0.0,0.0,0.0,0.0,0.0,1.0291,0.8624,0.7361,0.7093,0.6645,0.6253,0.5977,0.5762,0.5329,0.4572,0.5237,0.5327,0.0,0.0,0.0,0.0,0.0,0.0,0.0,0.0,0.0,0.0,0.0,0.0,0.0,0.0,0.0,0.0,0.0,0.0,0.0,0.0,0.0,0.0,0.0,0.0,0.0,0.0,0.0,0.0,0.0,0.0,0.0,0.0,1.0305,1.1447,0.0,0.0,0.0,0.0,0.0,0.0,0.0,0.0,0.0,0.0,0.0,0.0,0.0,1.3482,1.3857,1.4885,1.4639,1.3151,1.3718,1.3098,1.1453,1.1338,1.1061,1.0692,1.0593,0.0,0.9849,0.9849,0.0,0.0,0.0,0.0,0.0,0.0,0.0,0.0,0.0,0.0,0.0,0.0,0.0,0.0,0.0,0.0,0.0,0.0,0.0,0.0,0.0,0.0,1.3395,1.3104,1.3648,1.3972,1.3,1.3586,1.4096,1.3395,1.366,1.416,0.0,0.0,0.0,0.0,0.0,0.0,1.1,0.9242,0.79,0.7393,0.6411,0.5585,0.5023,0.4795,0.4771,0.5002,0.4806,0.5161,0.6233,0.6385,0.0,0.0,0.0,0.0,0.0,0.0,0.0,0.0,0.0,0.0,0.0,0.0,0.0,0.0,0.0,0.0,0.0,0.0,0.0,0.0,0.0,0.0,0.0,0.0,0.0,0.0,0.0,0.0,0.0,1.1407,1.1896,1.1526,1.2379,1.3104,0.0,0.0,0.0,0.0,0.0,0.0,0.0,0.0,0.0,1.4628,1.4053,1.392,1.427,1.4954,1.4719,1.359,1.4031,1.3428,1.1934,1.194,1.1661,1.122,1.1624,1.1448,1.0814,1.0406,1.0546,1.1059,0.0,0.0,0.0,0.0,1.2783,1.3132,1.324,1.3054,1.2907,1.363,0.0,0.0,0.0,0.0,0.0,0.0,0.0,1.3579,1.3418,1.3505,1.3464,1.2772,1.3338,1.3807,1.295,1.334,1.3789,1.3556,1.372,1.4006,1.4326,1.4047,0.0,0.0,0.0,1.1397,1.0701,0.9338,0.8147,0.7431,0.6859,0.6282,0.5638,0.5306,0.5115,0.5097,0.4967,0.5092,0.556,0.6833,0.7492,0.0,0.0,0.0,0.0,0.0,0.0,0.0,0.0,0.0,0.0,0.0,0.0,0.0,0.0,0.0,0.0,0.0,0.0,0.0,0.0,0.0,0.0,0.0,0.0,0.0,0.0,0.0,0.0,1.2794,1.2725,1.1589,1.2474,1.3251,0.0,0.0,0.0,0.0,0.0,0.0,1.5235,1.4631,1.4588,1.5334,1.452,1.4202,1.4522,1.5053,1.4882,1.4036,1.4325,1.3693,1.2256,1.2325,1.2023,1.147,1.2026,1.1998,1.1519,1.1116,1.1377,1.2086,1.2335,1.3075,1.3956,1.3752,1.3684,1.3735,1.4001,1.384,1.3614,1.4193,1.4267,1.4132,1.4075,0.0,0.0,0.0,0.0,1.3468,1.2973,1.3159,1.3284,1.251,1.2945,1.3324,1.263,1.2813,1.321,1.3567,1.3709,1.3774,1.3775,1.3347,0.0,1.2694,1.1553,1.0476,0.9781,0.8858,0.7967,0.7182,0.7001,0.6693,0.6076,0.5673,0.5375,0.5216,0.521,0.5208,0.5161,0.6837,0.7335,0.6422,0.0,0.0,0.0,0.0,0.0,0.0,0.0,0.0,0.0,0.0,0.0,0.0,0.0,0.0,0.0,0.0,0.0,0.0,0.0,0.0,0.0,0.0,0.0,0.0,0.0,0.0,0.0,0.0,0.0,1.1606,1.2152,0.0,0.0,0.0,0.0,1.4727,1.5192,1.5332,1.5043,1.4606,1.4418,1.4469,1.4098,1.4453,1.56,1.6046,1.5696,1.464,1.4621,1.3815,1.2386,1.1882,1.1533,1.1321,1.135,1.148,1.1732,1.2198,1.2411,1.2565,1.3531,1.4373,1.4982,1.4586,1.4243,1.3877,1.32,1.2645,1.2399,1.362,1.4272,1.4655,1.5154,1.4519,0.0,0.0,1.32,1.2826,1.3189,1.2829,1.2372,1.2391,1.244,1.2339,1.1773,1.1668,1.1948,1.2797,1.3208,1.3257,1.2681,0.0,1.2038,1.0574,1.0129,0.9494,0.8192,0.7642,0.7152,0.6586,0.6362,0.6058,0.5576,0.5222,0.5164,0.5467,0.536,0.5546,0.6111,0.6066,0.6057,0.6113,0.6657,0.0,0.0,0.0,0.0,0.0,0.0,0.0,0.0,0.0,0.0,0.0,0.0,0.0,0.0,0.0,0.0,0.0,0.0,0.0,0.0,0.0,0.0,0.0,0.0,0.0,0.0,0.0,0.0,1.3905,1.4488,0.0,1.4197,1.3952,1.4013,1.4521,1.4488,1.4875,1.5853,1.494,1.4916,1.6095,1.4726,1.4412,1.5361,1.5049,1.4256,1.3031,1.283,1.202,1.0715,1.0169,1.0027,1.0208,1.03,1.0392,1.0586,1.171,1.2552,1.3182,1.3527,1.4131,1.4754,1.4621,1.4481,1.4427,1.462,1.4241,1.3735,1.4184,1.4222,1.4156,1.4218,1.3936,1.3486,1.2813,1.2488,1.2306,1.223,1.1866,1.1484,1.1342,1.1031,1.0771,1.0658,1.0352,1.0302,1.0866,1.1673,1.2091,1.1677,1.1043,1.0302,0.9554,0.856,0.7633,0.6905,0.6455,0.5987,0.5394,0.5436,0.5279,0.4765,0.4537,0.4588,0.4962,0.4866,0.4969,0.54,0.6224,0.6435,0.592,0.6114,0.6968,0.0,0.0,0.0,0.0,0.0,0.0,0.0,0.0,0.0,0.0,0.0,0.0,0.0,0.0,0.0,0.0,0.0,0.0,0.0,0.0,0.0,0.0,0.0,0.0,0.0,1.5835,1.5675,1.5714,1.5805,1.5581,1.4848,1.4277,1.4041,1.4299,1.4072,1.4407,1.5511,1.4455,1.427,1.5316,1.3891,1.3323,1.3693,1.338,1.2551,1.1331,1.1175,1.0535,0.9498,0.8929,0.8875,0.9228,0.9215,0.9347,0.9724,1.069,1.1668,1.2662,1.3445,1.4187,1.475,1.486,1.4825,1.4761,1.4974,1.4698,1.4212,1.4037,1.3714,1.3365,1.3248,1.3021,1.2652,1.1985,1.1665,1.1502,1.1212,1.0841,1.0477,1.0101,0.9517,0.9048,0.9018,0.8684,0.8437,0.8645,0.9842,1.0685,1.0215,0.9542,0.8912,0.849,0.7265,0.6328,0.6128,0.5553,0.5018,0.4611,0.4718,0.4688,0.4325,0.4209,0.4325,0.4668,0.4706,0.4917,0.539,0.6487,0.6801,0.6181,0.651,0.7962,1.0547,0.0,0.0,0.0,0.0,0.0,0.0,0.0,0.0,0.0,0.0,0.0,0.0,0.0,0.0,0.0,0.0,0.0,0.0,0.0,0.0,0.0,0.0,0.0,1.7168,1.7135,1.6896,1.6692,1.579,1.4861,1.406,1.4293,1.4401,1.4106,1.4107,1.4033,1.3788,1.304,1.2362,1.1835,1.1477,1.1111,1.0714,1.109,1.073,0.9682,0.9747,0.9456,0.8875,0.8213,0.8075,0.8403,0.8071,0.8398,0.9204,0.9232,0.978,1.0929,1.3258,1.4491,1.4945,1.5271,1.5169,1.4748,1.3963,1.3684,1.3559,1.3028,1.26,1.2283,1.2288,1.1736,1.1133,1.1094,1.0775,1.0389,1.02,0.9791,0.9289,0.8774,0.7969,0.7244,0.6915,0.6612,0.6387,0.6247,0.7785,0.8912,0.8239,0.8109,0.7888,0.728,0.6219,0.0,0.5766,0.4898,0.4256,0.4281,0.4289,0.4289,0.4289,0.4289,0.4411,0.4664,0.4942,0.5413,0.6149,0.6776,0.7063,0.6953,0.7846,0.9845,1.2947,0.0,0.0,0.0,0.0,0.0,0.0,0.0,0.0,0.0,0.0,0.0,0.0,0.0,0.0,0.0,0.0,0.0,0.0,0.0,0.0,0.0,1.5565,1.5962,1.6828,1.66,1.6233,1.5933,1.5348,1.4638,1.3796,1.31,1.2374,1.1562,1.1775,1.1733,1.1175,1.0757,1.0389,1.0155,0.941,0.8901,0.8708,0.8466,0.7946,0.7097,0.7131,0.6854,0.6318,0.5943,0.5977,0.6341,0.633,0.6442,0.6672,0.7282,0.7741,0.829,1.0794,1.2256,1.2927,1.2626,1.2203,1.1664,1.1135,1.0693,1.0313,1.0166,1.0029,0.9904,0.9648,0.964,0.9548,0.8966,0.8912,0.902,0.8993,0.8255,0.7559,0.7543,0.6517,0.5531,0.5516,0.516,0.4739,0.4332,0.4638,0.5232,0.6091,0.5795,0.5257,0.4704,0.3925,0.3441,0.3495,0.3303,0.3288,0.368,0.3729,0.3828,0.407,0.4093,0.42,0.4463,0.4832,0.5182,0.5533,0.6629,0.7456,0.7912,0.9855,1.1187,0.0,0.0,0.0,0.0,0.0,0.0,0.0,0.0,0.0,0.0,0.0,0.0,0.0,0.0,0.0,0.0,0.0,0.0,0.0,0.0,0.0,0.0,1.5188,1.5432,1.563,1.5594,1.555,1.5389,1.4553,1.3576,1.2473,1.1837,1.094,0.9698,0.9721,0.9486,0.883,0.8526,0.8266,0.796,0.7436,0.7093,0.7024,0.6678,0.6259,0.5859,0.5798,0.5588,0.5298,0.5039,0.5101,0.5421,0.54,0.5408,0.55,0.6032,0.6257,0.654,0.0,0.0,0.0,0.0,1.0153,0.9507,0.8853,0.821,0.7671,0.745,0.7378,0.7368,0.7376,0.7462,0.7482,0.7232,0.7223,0.7282,0.73,0.6657,0.6083,0.6192,0.5065,0.4008,0.4089,0.3574,0.3,0.2636,0.2583,0.0,0.3616,0.3683,0.3589,0.342,0.2896,0.2611,0.2849,0.2774,0.2856,0.328,0.3322,0.3479,0.3842,0.3874,0.0,0.0,0.0,0.5231,0.5992,0.7248,0.0,0.0,0.0,1.1914,1.2422,1.3698,0.0,0.0,1.6796,1.728,0.0,0.0,0.0,0.0,0.0,0.0,0.0,0.0,0.0,0.0,0.0,0.0,0.0,0.0,0.0,0.0,1.4593,1.4311,1.3822,1.4155,1.4486,1.469,1.3253,1.1768,1.0589,1.0298,0.9592,0.8138,0.7834,0.7382,0.671,0.6471,0.0,0.0,0.0,0.5632,0.5609,0.5434,0.5335,0.5306,0.5207,0.5159,0.5154,0.4928,0.49,0.5013,0.4787,0.4758,0.4898,0.4921,0.493,0.5222,0.7389,0.847,0.8841,0.8832,0.8419,0.7683,0.6686,0.0,0.0,0.4885,0.473,0.4824,0.5209,0.5184,0.5147,0.5658,0.5597,0.5448,0.5521,0.5222,0.4888,0.4828,0.3825,0.2859,0.2793,0.2159,0.1537,0.1281,0.1392,0.1411,0.1201,0.1851,0.2494,0.2857,0.2515,0.2465,0.3063,0.2833,0.275,0.3073,0.3101,0.0,0.3656,0.3716,0.4034,0.47,0.4842,0.5564,0.7009,0.811,0.9308,1.0631,1.1108,1.2069,1.357,1.3745,1.4461,1.5622,1.5799,1.6674,0.0,0.0,0.0,0.0,0.0,0.0,0.0,0.0,0.0,0.0,0.0,0.0,0.0,0.0,0.0,1.299,1.2968,1.2757,1.2225,1.1803,1.1725,1.2291,1.0647,0.9372,0.912,0.7877,0.6719,0.5976,0.5766,0.5327,0.4606,0.4807,0.4794,0.4514,0.4683,0.4687,0.451,0.4481,0.4397,0.4266,0.4282,0.0,0.4267,0.4189,0.3897,0.338,0.3308,0.2966,0.2483,0.2468,0.2742,0.3438,0.5684,0.6361,0.6066,0.6019,0.5329,0.4367,0.372,0.3119,0.2556,0.2473,0.2431,0.2415,0.2401,0.2612,0.0,0.3633,0.4071,0.4477,0.5157,0.4876,0.4261,0.3891,0.3162,0.2459,0.2115,0.1792,0.1481,0.1043,0.094,0.0761,0.0305,0.0694,0.1217,0.1586,0.1484,0.1523,0.2034,0.2224,0.2504,0.3048,0.3094,0.3208,0.3516,0.3875,0.4176,0.4314,0.5171,0.6247,0.753,0.7781,0.8516,0.9817,1.056,1.13,1.212,1.3444,1.4033,1.3905,1.5209,1.6138,0.0,0.0,0.0,0.0,0.0,0.0,0.0,0.0,0.0,0.0,0.0,1.2808,1.2885,0.0,1.2377,1.255,1.2199,1.1679,1.1079,1.0553,1.0391,1.0687,0.9252,0.8066,0.7688,0.6569,0.5527,0.4823,0.4782,0.4601,0.4141,0.4345,0.4429,0.4358,0.4426,0.4429,0.4355,0.4231,0.4157,0.4083,0.4056,0.382,0.3465,0.3465,0.3063,0.2361,0.2361,0.2137,0.1811,0.1796,0.1959,0.2395,0.3906,0.4684,0.4918,0.4629,0.3937,0.3059,0.2127,0.1423,0.0902,0.0883,0.0877,0.0913,0.1113,0.1319,0.1676,0.2266,0.2665,0.3064,0.3789,0.3778,0.3561,0.3561,0.29,0.2165,0.1888,0.1271,0.0727,0.0472,0.0415,0.0409,0.0521,0.0737,0.0957,0.107,0.1498,0.1868,0.2135,0.2398,0.2666,0.297,0.2938,0.3038,0.3371,0.3817,0.4194,0.4379,0.5108,0.5973,0.6964,0.7377,0.8091,0.9118,0.9755,1.0419,1.1149,1.1989,1.2228,1.1926,1.3234,1.4378,0.0,0.0,0.0,0.0,0.0,0.0,0.0,1.1861,1.1521,1.187,1.1949,1.2062,1.2397,1.1983,1.1668,1.1814,1.1161,1.0501,1.0144,0.9819,0.9562,0.9399,0.8243,0.7235,0.6642,0.5819,0.4946,0.4081,0.4175,0.4133,0.3812,0.4123,0.4294,0.4294,0.4405,0.4408,0.4294,0.4129,0.3968,0.3803,0.3694,0.3335,0.2771,0.2771,0.236,0.1643,0.153,0.1532,0.1643,0.1682,0.1734,0.1951,0.2515,0.3318,0.4103,0.3614,0.3048,0.2347,0.1157,0.0404,0.0,0.0,0.0,0.0048,0.0441,0.0621,0.0818,0.1308,0.1552,0.1784,0.2556,0.2809,0.3,0.3416,0.2742,0.1945,0.1693,0.0771,0.0,0.0,0.0,0.0244,0.0953,0.121,0.1263,0.1253,0.1972,0.2552,0.2623,0.2797,0.294,0.2913,0.2798,0.2877,0.3266,0.3695,0.4087,0.4509,0.4962,0.5524,0.6212,0.6948,0.7694,0.8424,0.8815,0.9429,1.0237,1.0391,1.0437,1.0358,1.1265,1.2416,0.5534,0.7706,0.9812,1.1058,1.1425,1.1677,0.0,1.207,1.1353,1.067,1.0627,1.0363,0.9347,0.8962,0.8842,0.9035,0.8631,0.8534,0.9232,0.9092,0.8692,0.7984,0.7235,0.6696,0.6588,0.5386,0.4284,0.355,0.3448,0.3116,0.2441,0.3116,0.3511,0.3456,0.4125,0.4181,0.3511,0.3442,0.3049,0.2439,0.243,0.2371,0.2261,0.2261,0.1876,0.1158,0.0482,0.0591,0.1157,0.1175,0.1557,0.2151,0.2261,0.2369,0.246,0.2263,0.176,0.1007,0.0354,0.0051,0.0,0.0,0.0,0.0,0.0048,0.0097,0.0247,0.0807,0.0966,0.1293,0.2531,0.2886,0.2941,0.3131,0.2548,0.186,0.1303,0.0552,0.0,0.0,0.0,0.0251,0.0957,0.1561,0.2055,0.2422,0.26,0.2777,0.2998,0.3068,0.3049,0.2924,0.2893,0.3,0.3274,0.3518,0.3827,0.4237,0.4898,0.5474,0.5926,0.655,0.7075,0.7523,0.7878,0.8337,0.8926,0.974,1.0163,1.0163,1.0754,1.1178,0.6775,0.8537,0.9713,1.0474,1.0806,1.0809,1.0072,0.9709,0.9348,0.8719,0.8684,0.8641,0.842,0.8306,0.8221,0.8223,0.7921,0.7898,0.8634,0.8155,0.7718,0.7687,0.6293,0.5307,0.5307,0.4446,0.3514,0.2788,0.2676,0.2508,0.2232,0.2508,0.2676,0.2676,0.301,0.301,0.2732,0.2676,0.2508,0.2174,0.2174,0.1953,0.1563,0.2009,0.2009,0.1729,0.1431,0.1433,0.1728,0.1759,0.1928,0.2232,0.2732,0.2343,0.1557,0.1515,0.1286,0.0911,0.0215,0.0,0.0,0.0,0.0,0.0,0.0,0.0,0.005,0.0297,0.0399,0.0705,0.201,0.245,0.2577,0.2928,0.2542,0.1917,0.115,0.0469,0.0,0.0,0.0,0.0209,0.0962,0.1286,0.1684,0.2198,0.2905,0.3378,0.3484,0.3319,0.3155,0.3049,0.3032,0.3079,0.3191,0.325,0.3511,0.3919,0.4262,0.4706,0.5298,0.557,0.6149,0.7147,0.729,0.7826,0.87,0.9109,0.9133,0.8891,0.9671,1.0088,0.6838,0.7949,0.8482,0.8889,0.8956,0.8587,0.7102,0.6884,0.6806,0.6278,0.6205,0.6379,0.7005,0.7056,0.7056,0.7251,0.713,0.7205,0.7682,0.7177,0.6809,0.6804,0.5354,0.4152,0.3545,0.3224,0.2732,0.1952,0.1898,0.1786,0.1619,0.1786,0.1898,0.1898,0.212,0.212,0.1898,0.1898,0.1898,0.1898,0.1898,0.173,0.1396,0.1952,0.2174,0.2174,0.2174,0.2343,0.2508,0.2508,0.2508,0.2565,0.2954,0.2287,0.1062,0.0895,0.0783,0.0727,0.0168,0.0,0.0,0.0,0.0,0.0,0.0,0.0,0.0,0.0,0.0,0.026,0.1451,0.1847,0.203,0.2603,0.2314,0.1719,0.1085,0.0432,0.0,0.0,0.0,0.0218,0.0947,0.1118,0.133,0.1946,0.2757,0.3303,0.323,0.3002,0.2812,0.2717,0.2793,0.2847,0.2847,0.304,0.3303,0.366,0.3858,0.4221,0.473,0.49,0.547,0.6525,0.6777,0.7328,0.8211,0.8486,0.844,0.8201,0.8905,0.9245,0.4328,0.5083,0.5656,0.5779,0.5386,0.4714,0.3873,0.3955,0.4099,0.3191,0.3137,0.3434,0.4222,0.4237,0.4375,0.5262,0.5656,0.5895,0.6037,0.6387,0.6091,0.4645,0.4426,0.3547,0.1395,0.184,0.1952,0.1174,0.1118,0.0839,0.0112,0.0727,0.1118,0.1118,0.184,0.1842,0.1118,0.1118,0.1118,0.1118,0.1118,0.1507,0.2174,0.2174,0.2174,0.2174,0.2174,0.2621,0.3345,0.3287,0.3287,0.3289,0.2508,0.1786,0.1006,0.028,0.0056,0.0056,0.0,0.0,0.0,0.0,0.0,0.0,0.0,0.0,0.0,0.0,0.0,0.0168,0.0948,0.1115,0.1338,0.2058,0.1672,0.1117,0.1116,0.0503,0.0,0.0,0.0,0.0224,0.095,0.1118,0.134,0.2062,0.2111,0.2013,0.1869,0.1726,0.1637,0.1635,0.2009,0.2224,0.2224,0.289,0.3299,0.3299,0.3983,0.4374,0.4426,0.499,0.5298,0.5346,0.6191,0.6767,0.7071,0.7911,0.8427,0.8667,0.8699,0.874,0.3219,0.4007,0.4359,0.4426,0.4416,0.402,0.2554,0.2343,0.24,0.2102,0.2073,0.2528,0.3797,0.3626,0.348,0.419,0.3977,0.3912,0.4265,0.4068,0.3819,0.368,0.2828,0.194,0.1176,0.134,0.1174,0.0448,0.0392,0.0283,0.0,0.0232,0.0351,0.0358,0.0597,0.065,0.0347,0.0347,0.0629,0.1118,0.1619,0.2232,0.301,0.2954,0.3231,0.3735,0.3735,0.3901,0.4135,0.4226,0.421,0.4079,0.3372,0.2594,0.1731,0.0982,0.0411,0.0,0.0,0.0,0.0,0.0,0.0,0.0,0.0,0.0,0.0,0.0,0.0,0.0168,0.0895,0.108,0.1148,0.1403,0.1307,0.0976,0.045,0.0168,0.0,0.0,0.0,0.0056,0.0336,0.0392,0.0448,0.0727,0.1437,0.1964,0.1816,0.1766,0.175,0.175,0.1855,0.1924,0.1924,0.2165,0.2488,0.2881,0.3221,0.3569,0.3985,0.4214,0.4545,0.5047,0.5218,0.5851,0.6844,0.7173,0.7597,0.8168,0.8513,0.8685,0.171,0.2502,0.2822,0.2895,0.2775,0.2415,0.1303,0.1043,0.1005,0.1029,0.0996,0.1432,0.2711,0.2603,0.2371,0.2793,0.2669,0.2536,0.2628,0.2484,0.2443,0.2488,0.1705,0.1007,0.0755,0.0695,0.0517,0.0056,0.0,0.0,0.0,0.0,0.0,0.0,0.0,0.0,0.0,0.0,0.053,0.1535,0.2644,0.3387,0.386,0.3803,0.4116,0.4623,0.4568,0.4575,0.4633,0.4731,0.4358,0.3762,0.337,0.2444,0.1373,0.0897,0.0424,0.0,0.0,0.0,0.0,0.0,0.0,0.0,0.0,0.0,0.0,0.0,0.0,0.0116,0.058,0.0707,0.0714,0.0699,0.0707,0.0595,0.0117,0.0,0.0,0.0,0.0,0.0,0.0,0.0,0.0,0.0,0.0747,0.1266,0.1169,0.1171,0.1137,0.1164,0.134,0.1474,0.1474,0.1674,0.1961,0.237,0.2701,0.3051,0.3483,0.3726,0.4111,0.4561,0.4804,0.533,0.6111,0.6683,0.7176,0.7529,0.8146,0.8428,-0.0069,0.0438,0.1076,0.1208,0.0651,0.0,0.0,0.0,0.0,0.0,0.0,0.0252,0.0945,0.1081,0.1034,0.1104,0.1643,0.1847,0.1162,0.1653,0.1854,0.111,0.1053,0.0744,0.0062,0.0,0.0,0.0,0.0,0.0,0.0,0.0,0.0,0.0,0.0,0.0,0.0,0.0062,0.085,0.2234,0.4059,0.4843,0.4704,0.4704,0.4782,0.4911,0.4765,0.4785,0.4918,0.4925,0.4,0.2582,0.2525,0.148,0.0062,0.0,0.0,0.0,0.0,0.0,0.0,0.0,0.0,0.0,0.0,0.0,0.0,0.0,0.0,0.0,0.0,0.0,0.0,0.0,0.0,0.0,0.0,0.0,0.0,0.0,0.0,0.0,0.0,0.0,0.0,0.0,0.0,0.0,0.0,0.0,0.0,0.0,0.0495,0.0853,0.0853,0.1396,0.1715,0.1761,0.2467,0.2871,0.2921,0.3627,0.4036,0.4043,0.4837,0.5144,0.4931,0.6481,0.7074,0.6869,0.7573,0.7928,-0.1434,-0.0553,0.0248,0.034,0.0167,0.0,0.0,0.0,0.0,0.0,0.0,0.0235,0.0963,0.063,0.0475,0.1019,0.0793,0.0474,0.0304,0.0452,0.0469,0.033,0.0269,0.0202,0.0,0.0,0.0,0.0,0.0,0.0,0.0,0.0,0.0,0.0,0.0,0.0,0.0,0.1246,0.202,0.2429,0.4102,0.4897,0.486,0.486,0.488,0.4918,0.4877,0.488,0.4928,0.5033,0.4385,0.3263,0.2831,0.1906,0.0765,0.0191,0.0,0.0,0.0,0.0,0.0,0.0,0.0,0.0,0.0,0.0,0.0,0.0,0.0,0.0,0.0,0.0,0.0,0.0,0.0,0.0,0.0,0.0,0.0,0.0,0.0,0.0,0.0,0.0,0.0,0.0,0.0,0.0,0.0,0.0,0.0,0.0,0.0141,0.0235,0.0235,0.039,0.0647,0.1093,0.1898,0.2561,0.3037,0.377,0.4239,0.4348,0.4439,0.4748,0.5349,0.577,0.6463,0.7466,0.7686,0.8055,-0.2487,-0.1245,0.0,0.0,0.0,0.0,0.0,0.0,0.0,0.0,0.0,0.0108,0.055,0.0292,0.0148,0.0526,0.0276,0.0,0.0,0.0,0.0,0.0,0.0,0.0,0.0,0.0,0.0,0.0,0.0,0.0,0.0,0.0,0.0,0.0,0.0,0.0,0.0,0.129,0.2158,0.2509,0.3872,0.4694,0.5013,0.5013,0.505,0.5111,0.504,0.505,0.5118,0.5199,0.4403,0.3196,0.2859,0.1833,0.0591,0.0132,0.0,0.0,0.0,0.0,0.0,0.0,0.0,0.0,0.0,0.0,0.0,0.0,0.0,0.0,0.0,0.0,0.0,0.0,0.0,0.0,0.0,0.0,0.0,0.0,0.0,0.0,0.0,0.0,0.0,0.0,0.0,0.0,0.0,0.0,0.0,0.0,0.0,0.0,0.0,0.0,0.0155,0.0465,0.1278,0.2006,0.2659,0.3417,0.405,0.4515,0.4385,0.4595,0.5054,0.5378,0.6086,0.7235,0.7563,0.8103,-0.3107,-0.1632,0.0,0.0,0.0,0.0,0.0,0.0,0.0,0.0,0.0,0.0,0.0,0.0,0.0,0.0,0.0,0.0,0.0,0.0,0.0,0.0,0.0,0.0,0.0,0.0,0.0,0.0,0.0,0.0,0.0,0.0,0.0,0.0,0.0,0.0,0.0,0.0879,0.1664,0.2342,0.3447,0.4361,0.4967,0.5098,0.5233,0.5422,0.522,0.5237,0.5428,0.5428,0.435,0.2678,0.2688,0.1615,0.0,0.0,0.0,0.0,0.0,0.0,0.0,0.0,0.0,0.0,0.0,0.0,0.0,0.0,0.0,0.0,0.0,0.0,0.0,0.0,0.0,0.0,0.0,0.0,0.0,0.0,0.0,0.0,0.0,0.0,0.0,0.0,0.0,0.0,0.0,0.0,0.0,0.0,0.0,0.0,0.0,0.0,0.0,0.0,0.0716,0.1452,0.2174,0.2954,0.3735,0.4463,0.4519,0.4519,0.4519,0.5109,0.5819,0.6588,0.7235,0.7996,-0.3512,-0.1775,0.0,0.0,0.0,0.0,0.0,0.0,0.0,0.0,0.0,0.0,0.0,0.0,0.0,0.0,0.0,0.0,0.0,0.0,0.0,0.0,0.0,0.0,0.0,0.0,0.0,0.0,0.0,0.0,0.0,0.0,0.0,0.0,0.0,0.0,0.0,0.0843,0.1384,0.1515,0.3173,0.4071,0.4185,0.4985,0.5335,0.5425,0.5332,0.5338,0.5428,0.5428,0.435,0.2683,0.2677,0.1575,0.0,0.0,0.0,0.0,0.0,0.0,0.0,0.0,0.0,0.0,0.0,0.0,0.0,0.0,0.0,0.0,0.0,0.0,0.0,0.0,0.0,0.0,0.0,0.0,0.0,0.0,0.0,0.0,0.0,0.0,0.0,0.0,0.0,0.0,0.0,0.0,0.0,0.0,0.0,0.0,0.0,0.0,0.0,0.0,0.0669,0.1452,0.2174,0.2954,0.3735,0.4463,0.4519,0.4519,0.4519,0.4625,0.5332,0.6588,0.675,0.7509,-0.2755,-0.1344,0.0,0.0,0.0328,0.0527,0.0481,0.0788,0.0958,0.0534,0.0461,0.0359,0.0045,0.0274,0.0471,0.0549,0.0511,0.0492,0.0569,0.0264,0.0,0.0,0.0,0.0,0.0,0.0,0.0,0.0,0.0,0.0,0.0,0.0,0.0,0.0,0.0,0.0,0.0,0.0431,0.0851,0.1327,0.2203,0.285,0.3347,0.4284,0.4724,0.4792,0.5274,0.5521,0.5589,0.5589,0.4469,0.2799,0.2836,0.1628,0.0,0.0,0.0,0.0,0.0,0.0,0.0,0.0,0.0,0.0,0.0,0.0,0.0,0.0,0.0,0.0,0.0,0.0,0.0,0.0,0.0,0.0,0.0,0.0,0.0,0.0,0.0,0.0,0.0,0.0,0.0,0.0,0.0,0.0,0.0,0.0,0.0,0.0,0.0,0.0,0.0,0.0,0.0,0.0,0.0671,0.1452,0.2174,0.2954,0.3735,0.4463,0.4519,0.4519,0.4519,0.4519,0.5007,0.6036,0.6421,0.7182,-0.2104,-0.071,0.0355,0.0347,0.0886,0.1459,0.1309,0.1613,0.1819,0.1234,0.1109,0.0929,0.0492,0.0761,0.1146,0.1231,0.1172,0.1134,0.1041,0.0576,0.0205,0.0,0.0,0.0,0.0,0.0,0.0,0.0,0.0,0.0,0.0,0.0,0.0,0.0,0.0,0.0,0.0,0.0,0.0363,0.0995,0.1201,0.1671,0.2453,0.3338,0.3792,0.3942,0.4859,0.5342,0.544,0.5728,0.464,0.2906,0.2923,0.168,0.0,0.0,0.0,0.0,0.0,0.0,0.0,0.0,0.0,0.0,0.0,0.0,0.0068,0.0274,0.0277,0.035,0.0624,0.0497,0.0217,0.007,0.0,0.0,0.0,0.0,0.0,0.0,0.0,0.0,0.0,0.0,0.0,0.0,0.0,0.0,0.0,0.0,0.0,0.0,0.0,0.0,0.0,0.0,0.0056,0.0224,0.0783,0.1507,0.2397,0.301,0.368,0.4463,0.4519,0.4519,0.4519,0.4519,0.4842,0.5542,0.6091,0.6745,-0.2001,-0.0086,0.1644,0.1523,0.2118,0.2694,0.241,0.2184,0.1942,0.1759,0.1731,0.1704,0.1639,0.1697,0.1722,0.1753,0.1814,0.1651,0.1008,0.0939,0.0762,0.0075,0.0,0.0,0.0,0.0,0.0,0.0,0.0,0.0,0.0,0.0,0.0,0.0,0.0,0.0,0.0,0.0,0.0075,0.015,0.0953,0.1374,0.1443,0.2379,0.2815,0.2894,0.3905,0.4347,0.4426,0.5369,0.464,0.2911,0.2906,0.1707,0.0,0.0,0.0,0.0,0.0,0.0,0.0,0.0,0.0,0.0,0.0,0.0,0.0211,0.1149,0.1351,0.1413,0.2511,0.199,0.0955,0.0153,0.0,0.0,0.0,0.0,0.0,0.0,0.0,0.0,0.0,0.0,0.0,0.0,0.0,0.0,0.0,0.0,0.0,0.0,0.0,0.0,0.0,0.0,0.028,0.095,0.1062,0.173,0.3121,0.3345,0.3735,0.4463,0.4519,0.4519,0.4519,0.4519,0.4842,0.5487,0.5597,0.5982,-0.0159,0.1002,0.1891,0.2402,0.3014,0.3474,0.3228,0.3183,0.3061,0.2567,0.2417,0.2227,0.1868,0.2095,0.2416,0.2578,0.2583,0.2319,0.1752,0.1361,0.0835,0.0074,0.0,0.0,0.0,0.0,0.0,0.0,0.0,0.0,0.0,0.0,0.0,0.0,0.0,0.0,0.0,0.0,0.0,0.0,0.0374,0.0517,0.0582,0.1453,0.1906,0.2156,0.371,0.4417,0.4556,0.5695,0.4857,0.3039,0.2993,0.1763,0.0,0.0,0.0,0.0,0.0,0.0,0.0,0.0,0.0427,0.0985,0.0969,0.0983,0.1077,0.1451,0.1532,0.1467,0.1254,0.088,0.0443,0.0078,0.0,0.0,0.0,0.0,0.0,0.0,0.0,0.0,0.0,0.0,0.0,0.0,0.0,0.0,0.0,0.0,0.0,0.0,0.0,0.0,0.0,0.0,0.0336,0.1062,0.1507,0.2232,0.3345,0.379,0.4184,0.4519,0.4519,0.4519,0.4519,0.4519,0.4625,0.4893,0.5328,0.5651,0.1252,0.2124,0.2619,0.3243,0.3858,0.4254,0.3906,0.3929,0.381,0.3423,0.3137,0.2898,0.2625,0.2807,0.3058,0.3274,0.3239,0.3072,0.2517,0.189,0.1163,0.0427,0.0148,0.0,0.0,0.0,0.0,0.0,0.0,0.0,0.0,0.0,0.0,0.0,0.0,0.0,0.0,0.0,0.0,0.0,0.0,0.0,0.0,0.067,0.1202,0.168,0.3351,0.4304,0.4766,0.5867,0.5237,0.3513,0.3202,0.2033,0.0471,0.0079,0.0,0.0,0.0,0.0,0.0,0.0,0.0518,0.1185,0.1514,0.1595,0.1692,0.1985,0.2021,0.1821,0.0667,0.0444,0.0376,0.0078,0.0,0.0,0.0,0.0,0.0,0.0,0.0,0.0,0.0,0.0,0.0,0.0,0.0,0.0,0.0,0.0,0.0,0.0,0.0,0.0,0.0,0.0,0.0336,0.1062,0.1786,0.2454,0.301,0.3959,0.4294,0.3846,0.4015,0.4015,0.3846,0.3846,0.3846,0.3846,0.433,0.4769,0.1823,0.3145,0.4145,0.3998,0.4512,0.4957,0.4572,0.4121,0.3933,0.4296,0.3965,0.3751,0.426,0.3965,0.3629,0.3771,0.3917,0.3764,0.3171,0.2548,0.1926,0.1157,0.0417,0.0,0.0,0.0,0.0,0.0,0.0,0.0,0.0,0.0,0.0,0.0,0.0,0.0,0.0,0.0,0.0,0.0,0.0,0.0,0.0,0.0,0.0627,0.1645,0.2656,0.3746,0.4766,0.5867,0.5631,0.4608,0.3513,0.2501,0.1489,0.0392,0.0,0.0,0.0,0.0,0.0,0.0,0.0,0.0234,0.1293,0.1585,0.1811,0.2792,0.3069,0.2795,0.1595,0.1461,0.1332,0.0235,0.0,0.0,0.0,0.0,0.0,0.0,0.0,0.0,0.0,0.0,0.0,0.0,0.0,0.0,0.0,0.0,0.0,0.0,0.0,0.0,0.0,0.0,0.0336,0.1062,0.1786,0.223,0.2232,0.368,0.379,0.2232,0.2954,0.2954,0.2232,0.2232,0.2232,0.2232,0.2232,0.3,0.2346,0.3078,0.3571,0.4174,0.4539,0.4695,0.4651,0.4363,0.4168,0.4459,0.4503,0.4545,0.4707,0.4739,0.4901,0.5239,0.4914,0.4451,0.4063,0.3501,0.2669,0.1245,0.0471,0.0,0.0,0.0,0.0,0.0,0.0,0.0,0.0,0.0,0.0,0.0,0.0,0.0,0.0,0.0,0.0,0.0,0.0,0.0,0.0,0.0784,0.1254,0.1724,0.3439,0.4375,0.4766,0.5867,0.5631,0.4608,0.3513,0.2501,0.1489,0.0392,0.0,0.0,0.0,0.0,0.0,0.0,0.0468,0.1175,0.1475,0.1627,0.1705,0.2013,0.1557,0.086,0.0544,0.0474,0.0401,0.0079,0.0,0.0,0.0,0.0,0.0,0.0,0.0,0.0,0.0,0.0,0.0,0.0,0.0,0.0,0.0,0.0,0.0,0.0,0.0,0.0,0.0,0.0,0.0336,0.1062,0.134,0.1675,0.2174,0.2676,0.2676,0.223,0.2452,0.2454,0.2174,0.2174,0.2174,0.2174,0.2174,0.245,0.2962,0.3275,0.3511,0.4072,0.422,0.4214,0.4377,0.4232,0.4223,0.4872,0.4939,0.4923,0.5044,0.5169,0.5366,0.5611,0.5492,0.5174,0.488,0.4391,0.3388,0.1504,0.089,0.0521,0.0088,0.0,0.0,0.0,0.0,0.0,0.0,0.0,0.0,0.0,0.0,0.0,0.0,0.0,0.0,0.0,0.0,0.0236,0.0628,0.1333,0.2046,0.2932,0.4157,0.4945,0.0,0.6045,0.5944,0.5157,0.3669,0.2735,0.1957,0.0549,0.0,0.0,0.0,0.0,0.0,0.0,0.0471,0.0942,0.0475,0.0946,0.1492,0.111,0.0159,-0.0717,-0.0643,-0.0651,-0.0654,-0.0639,-0.0322,0.0,0.0,0.0,0.0,0.0,0.0,0.0,0.0,0.0,0.0,0.0,0.0,0.0,0.0,0.0,0.0,0.0,0.0,0.0,0.0,0.0,0.0168,0.0671,0.095,0.1174,0.1341,0.1898,0.1952,0.1396,0.1619,0.1675,0.1397,0.1397,0.1357,0.1391,0.166,0.1775,0.0,0.3708,0.371,0.371,0.3622,0.3619,0.3943,0.3908,0.0,0.5449,0.5305,0.5066,0.5348,0.5448,0.543,0.5339,0.5716,0.5916,0.5621,0.5159,0.4078,0.2021,0.1875,0.1481,0.0337,0.0172,0.0088,0.009,0.0088,0.0,0.0,0.0,0.0,0.0,0.0,0.0,0.0169,0.0168,0.025,0.0245,0.0238,0.0706,0.1724,0.1802,0.2931,0.4921,0.482,0.5466,0.6447,0.6325,0.6268,0.5944,0.3904,0.3046,0.2734,0.0706,0.0,0.0,0.0,0.0,0.0,-0.0079,-0.0157,-0.0317,-0.1531,-0.0399,0.1105,0.0081,-0.1058,-0.1959,-0.1917,-0.1931,-0.1922,-0.196,-0.1059,-0.0245,-0.0163,-0.0163,-0.0082,0.0,0.0,0.0,0.0,0.0,0.0,0.0,0.0,0.0,0.0,0.0,0.0,0.0,0.0,0.0,0.0,0.0,0.0,0.0,0.0615,0.0727,0.0056,0.134,0.1396,0.0,0.0673,0.0674,0.0,0.0,0.0,0.0,0.0718,0.1018,0.4236,0.0,0.294,0.294,0.3005,0.3212,0.0,0.4066,0.4403,0.5472,0.5799,0.6021,0.6504,0.6811,0.714,0.7561,0.6886,0.6357,0.6565,0.5329,0.4247,0.3897,0.3402,0.3044,0.2583,0.1843,0.1337,0.1343,0.0528,0.0,0.0,0.0,0.0,0.0,0.0,0.0426,0.1378,0.2115,0.2509,0.2578,0.2472,0.25,0.2813,0.3595,0.4233,0.481,0.5668,0.6218,0.6318,0.639,0.5877,0.4921,0.3593,0.2657,0.1801,0.0471,0.0,0.0,0.0,0.0,-0.0157,-0.0941,-0.1285,-0.1565,-0.2601,-0.2017,-0.1211,-0.2397,-0.2994,-0.3164,-0.318,-0.314,-0.3164,-0.3176,-0.295,-0.2464,-0.1587,-0.1415,-0.1083,-0.0167,0.0,0.0,0.0,0.0,0.0,0.0,0.0,0.0,0.0,0.0,0.0,0.0,0.0,0.0,0.0,0.0,0.0,0.0,0.0168,0.0168,0.0,0.0336,0.0336,0.0,0.0172,0.0177,0.0,0.0,0.0,0.0,0.0184,0.0245,0.3691,0.3673,0.3752,0.3876,0.3941,0.4107,0.4432,0.4671,0.4968,0.5572,0.6052,0.6455,0.6772,0.7178,0.7472,0.7504,0.7175,0.687,0.6685,0.5592,0.4768,0.4575,0.4356,0.4002,0.351,0.2465,0.1771,0.1789,0.0697,0.0,0.0,0.0,0.0,0.0,0.0497,0.1082,0.1683,0.2265,0.2749,0.3297,0.318,0.3357,0.3826,0.4453,0.5029,0.5559,0.613,0.6369,0.6359,0.589,0.5294,0.453,0.3047,0.2113,0.1489,0.0392,0.0,-0.0079,-0.0549,-0.1019,-0.1568,-0.2219,-0.2427,-0.2726,-0.3912,-0.3922,-0.3432,-0.3562,-0.3998,-0.4433,-0.4392,-0.4441,-0.4454,-0.4444,-0.4034,-0.3282,-0.2048,-0.1788,-0.1448,-0.0256,0.0,0.0,0.0,0.0,0.0,0.0,0.0,0.0,0.0,0.0,0.0,0.0,0.0,0.0,0.0,0.0,0.0,0.0,0.0,0.0,0.0,0.0,0.0,0.0,0.0,0.0,0.0,0.0,0.0,0.0,0.0,0.0,0.3102,0.3967,0.4966,0.5055,0.5089,0.5131,0.5169,0.5319,0.5549,0.5778,0.6268,0.667,0.6795,0.725,0.7414,0.674,0.7052,0.7125,0.6465,0.6062,0.5574,0.5079,0.5165,0.4972,0.4162,0.2894,0.2105,0.2054,0.0776,0.0,0.0,0.0,0.0,0.0,0.0974,0.1539,0.1615,0.1898,0.2558,0.3397,0.3555,0.4062,0.4921,0.4921,0.5529,0.6434,0.6335,0.627,0.6188,0.514,0.4548,0.4064,0.227,0.1489,0.1254,0.0314,-0.0079,-0.0392,-0.1489,-0.2437,-0.3168,-0.3542,-0.3587,-0.3888,-0.5222,-0.5634,-0.5475,-0.4437,-0.487,-0.5673,-0.5689,-0.5625,-0.5689,-0.5673,-0.4868,-0.3828,-0.2611,-0.2176,-0.1742,-0.0524,-0.0086,0.0,0.0,0.0,0.0,0.0,0.0,0.0,0.0,0.0,0.0,0.0,0.0,0.0,0.0,0.0,-0.0064,-0.0188,-0.0062,-0.0062,-0.0185,-0.0062,-0.0062,-0.0186,-0.0186,-0.0189,-0.0195,-0.0317,-0.0321,-0.0202,-0.0198,-0.0132,0.4442,0.4887,0.5039,0.4243,0.4197,0.4571,0.5274,0.5464,0.5663,0.633,0.6699,0.7098,0.7603,0.8014,0.8113,0.7724,0.7215,0.6732,0.635,0.6434,0.6481,0.6404,0.6645,0.6689,0.6442,0.4491,0.3291,0.3303,0.1292,0.0,0.0,0.0,0.0,0.0,0.0163,0.0724,0.1577,0.346,0.4468,0.4613,0.5457,0.5867,0.6025,0.6025,0.6193,0.6298,0.6396,0.5899,0.4956,0.488,0.3742,0.2036,0.1724,0.1019,0.0236,0.0079,-0.0549,-0.1489,-0.2501,-0.3049,-0.3472,-0.4394,-0.488,-0.5269,-0.634,-0.6747,-0.6841,-0.6574,-0.6662,-0.6845,-0.6868,-0.6871,-0.6868,-0.6845,-0.6662,-0.6219,-0.5066,-0.4088,-0.2933,-0.1781,-0.0692,0.0,0.0,0.0,0.0,0.0,0.0,0.0,0.0,0.0,0.0,0.0,0.0,0.0,0.0,0.0,-0.0334,-0.106,-0.038,-0.0308,-0.1047,-0.037,-0.0375,-0.1087,-0.1088,-0.1103,-0.1133,-0.1921,-0.186,-0.1074,-0.1095,-0.0685,0.3648,0.396,0.4186,0.4052,0.4937,0.5871,0.5897,0.6367,0.6804,0.6881,0.7192,0.7649,0.809,0.8037,0.7786,0.7306,0.6668,0.6259,0.6283,0.6376,0.6522,0.6681,0.682,0.6649,0.6144,0.4583,0.3361,0.2681,0.1031,0.0,0.0,0.0,0.0,0.0,0.0,0.0238,0.0706,0.2294,0.3657,0.4765,0.5817,0.6338,0.6338,0.6338,0.6022,0.5473,0.5532,0.4891,0.383,0.3322,0.253,0.1568,0.0941,0.0471,-0.0079,-0.0628,-0.188,-0.3368,-0.3887,-0.4522,-0.5189,-0.577,-0.5656,-0.5354,-0.5894,-0.567,-0.5186,-0.5245,-0.612,-0.7139,-0.7139,-0.7139,-0.7139,-0.7139,-0.7139,-0.6786,-0.5625,-0.4463,-0.3215,-0.2057,-0.0787,0.0,0.0,0.0,-0.0245,-0.0896,-0.0895,-0.1133,-0.1758,-0.1735,-0.1474,-0.091,-0.0889,-0.0872,-0.0859,-0.0849,-0.097,-0.1276,-0.1461,-0.1705,-0.2064,-0.1768,-0.1727,-0.2153,-0.2154,-0.2183,-0.2241,-0.273,-0.2661,-0.2243,-0.227,-0.176,0.2808,0.3048,0.3437,0.4098,0.5565,0.6801,0.658,0.7328,0.7944,0.7735,0.803,0.841,0.8637,0.8033,0.7391,0.6955,0.6373,0.6017,0.6322,0.6393,0.6515,0.6773,0.6742,0.6334,0.5523,0.428,0.3044,0.1863,0.0682,0.0,0.0,0.0,0.0,0.0,0.0,0.0,0.0,0.1097,0.2504,0.4373,0.5395,0.6025,0.6261,0.6025,0.5473,0.4686,0.4453,0.3748,0.2657,0.188,0.1489,0.1176,0.0314,-0.0157,-0.0471,-0.1567,-0.3139,-0.4818,-0.5148,-0.5705,-0.6201,-0.642,-0.5728,-0.4805,-0.4975,-0.4552,-0.3941,-0.3639,-0.5328,-0.7058,-0.6735,-0.69,-0.7139,-0.7139,-0.7139,-0.6874,-0.5983,-0.4821,-0.3749,-0.2861,-0.1673,-0.0869,-0.0869,-0.0853,-0.1176,-0.2095,-0.2159,-0.2386,-0.3348,-0.3294,-0.2833,-0.2078,-0.1976,-0.1943,-0.1966,-0.2179,-0.2212,-0.2053,-0.2646,-0.3,-0.3141,-0.2995,-0.303,-0.3238,-0.3309,-0.3343,-0.3411,-0.363,-0.363,-0.3413,-0.3433,-0.289,0.3149,0.3283,0.3462,0.4199,0.4992,0.5991,0.7292,0.8011,0.8571,0.9336,0.9559,0.9566,0.9586,0.8437,0.7461,0.7478,0.6777,0.6332,0.6627,0.6793,0.6939,0.7092,0.6868,0.6334,0.5523,0.4168,0.2968,0.1899,0.0668,0.0,0.0,0.0,0.0,0.0,0.0,0.0,0.0,0.1097,0.2113,0.3202,0.4295,0.5315,0.6261,0.5237,0.4766,0.4608,0.3671,0.2657,0.1724,0.1646,0.102,0.0079,0.0,-0.0628,-0.1645,-0.2657,-0.3803,-0.5009,-0.6064,-0.5903,-0.5165,-0.518,-0.4557,-0.374,-0.3746,-0.4463,-0.5001,-0.3935,-0.5267,-0.6815,-0.5761,-0.634,-0.7139,-0.7139,-0.7139,-0.7051,-0.6962,-0.6071,-0.527,-0.5181,-0.413,-0.3379,-0.3379,-0.3318,-0.3353,-0.3435,-0.3493,-0.3509,-0.3604,-0.3421,-0.3223,-0.3149,-0.31,-0.2987,-0.2985,-0.377,-0.4267,-0.4252,-0.3543,-0.3471,-0.4324,-0.3543,-0.3475,-0.4334,-0.4406,-0.4411,-0.4419,-0.5219,-0.5219,-0.4421,-0.438,-0.3928,0.289,0.344,0.4012,0.4211,0.539,0.6718,0.7629,0.8686,0.9552,0.9886,1.0241,1.0121,0.8873,0.8096,0.7414,0.6694,0.6417,0.6366,0.6658,0.6749,0.6807,0.6861,0.677,0.6016,0.4235,0.3673,0.2661,0.0817,0.0248,0.0,0.0,0.0,0.0,0.0,0.0,0.0,0.0,0.0392,0.1097,0.219,0.3203,0.3904,0.4295,0.3904,0.3359,0.2738,0.2347,0.1567,0.0628,0.0628,0.0392,0.0,0.0,-0.1019,-0.2585,-0.302,-0.4334,-0.6012,-0.6523,-0.6489,-0.6242,-0.6322,-0.5585,-0.4732,-0.4732,-0.4552,-0.4206,-0.3718,-0.4777,-0.5902,-0.5502,-0.6287,-0.7139,-0.7139,-0.7139,-0.7139,-0.7139,-0.616,-0.5359,-0.5359,-0.4435,-0.3619,-0.3619,-0.3594,-0.3836,-0.4622,-0.4601,-0.483,-0.5562,-0.549,-0.517,-0.4463,-0.4394,-0.4309,-0.421,-0.5132,-0.5714,-0.5632,-0.517,-0.5015,-0.5294,-0.5082,-0.5052,-0.5421,-0.5421,-0.5464,-0.5626,-0.5934,-0.5934,-0.5629,-0.5603,-0.5098,0.294,0.3672,0.4446,0.469,0.5858,0.7144,0.794,0.8903,0.968,0.9792,1.0037,0.9775,0.8333,0.7663,0.7158,0.6393,0.6046,0.6025,0.6593,0.6381,0.6233,0.6695,0.6368,0.5308,0.3483,0.3021,0.2033,0.0159,0.0,0.0,0.0,0.0,0.0,0.0,0.0,0.0,0.0,0.0,0.0392,0.1097,0.18,0.25,0.3124,0.2734,0.2268,0.1568,0.1254,0.0706,0.0,0.0,0.0,0.0,0.0,-0.1253,-0.3129,-0.3182,-0.4661,-0.6508,-0.6766,-0.6626,-0.634,-0.6474,-0.5802,-0.4821,-0.4821,-0.4552,-0.4119,-0.3723,-0.4692,-0.5894,-0.5536,-0.6248,-0.7139,-0.7139,-0.7177,-0.72,-0.7149,-0.6551,-0.6031,-0.5988,-0.5265,-0.4727,-0.4727,-0.4727,-0.4996,-0.5802,-0.5818,-0.6025,-0.682,-0.6865,-0.6499,-0.5693,-0.5604,-0.5573,-0.549,-0.6093,-0.643,-0.6332,-0.6186,-0.6054,-0.5952,-0.6047,-0.6101,-0.6101,-0.6101,-0.6156,-0.6338,-0.6338,-0.6338,-0.6338,-0.6338,-0.5893,0.3423,0.3995,0.4649,0.5619,0.6238,0.6925,0.8265,0.8561,0.8726,0.9216,0.8942,0.8488,0.8277,0.7387,0.6714,0.6871,0.566,0.5118,0.6284,0.558,0.5303,0.6509,0.5462,0.4335,0.3469,0.2301,0.1187,0.0081,0.0,0.0,0.0,0.0,0.0,0.0,0.0,0.0,0.0,0.0,0.0,0.0,0.0,0.1097,0.3046,0.2035,0.1568,0.1489,0.0471,0.0,0.0,0.0,0.0,0.0,0.0,-0.1253,-0.3124,-0.3124,-0.4518,-0.6498,-0.6651,-0.6033,-0.5119,-0.5323,-0.4641,-0.3659,-0.3659,-0.4463,-0.5179,-0.3927,-0.5351,-0.6871,-0.5714,-0.6248,-0.7139,-0.7139,-0.7258,-0.7326,-0.7173,-0.7261,-0.7322,-0.717,-0.7139,-0.7139,-0.7139,-0.7139,-0.7139,-0.7139,-0.7139,-0.7139,-0.7139,-0.7017,-0.6871,-0.6722,-0.6705,-0.6705,-0.6702,-0.6563,-0.6474,-0.6474,-0.6342,-0.6264,-0.6338,-0.6264,-0.6342,-0.6342,-0.6264,-0.6264,-0.6342,-0.6342,-0.6264,-0.6338,-0.6338,-0.6338,0.3101,0.3825,0.4658,0.4819,0.5731,0.6608,0.6621,0.7565,0.8659,0.9273,0.8985,0.8423,0.7847,0.7287,0.6565,0.5393,0.4822,0.4427,0.4155,0.3853,0.3764,0.4105,0.3821,0.3204,0.2252,0.1822,0.115,0.0077,0.0,0.0,0.0,0.0,0.0,0.0,0.0,0.0,0.0,0.0,0.0,0.0,0.0,0.0314,0.094,0.0628,0.0471,0.0471,0.0157,0.0,0.0,0.0,0.0,0.0,0.0,-0.1253,-0.3129,-0.3183,-0.4713,-0.6654,-0.6807,-0.6694,-0.6549,-0.6593,-0.6337,-0.6065,-0.6065,-0.6337,-0.6514,-0.6157,-0.6602,-0.7051,-0.6694,-0.6874,-0.7139,-0.7139,-0.7177,-0.7197,-0.7149,-0.7177,-0.7193,-0.7149,-0.7139,-0.7139,-0.7139,-0.7139,-0.7139,-0.7139,-0.7139,-0.7139,-0.7139,-0.7102,-0.7061,-0.7014,-0.701,-0.697,-0.6868,-0.682,-0.6749,-0.6637,-0.6593,-0.6478,-0.6271,-0.6356,-0.641,-0.641,-0.6515,-0.6519,-0.641,-0.641,-0.6359,-0.6338,-0.6338,-0.6338,0.3126,0.3906,0.4745,0.4934,0.5677,0.612,0.5266,0.6388,0.7676,0.8178,0.7899,0.7311,0.6623,0.6191,0.5491,0.4176,0.3638,0.3315,0.3093,0.2769,0.2662,0.3058,0.2761,0.2253,0.1672,0.1181,0.067,0.0075,0.0,0.0,0.0,0.0,0.0,0.0,0.0,0.0,0.0,0.0,0.0,0.0,0.0,0.0,0.0,0.0,0.0,0.0,0.0,0.0,0.0,0.0,0.0,0.0,0.0,-0.1253,-0.3129,-0.3175,-0.4695,-0.663,-0.6783,-0.6936,-0.7065,-0.7122,-0.7139,-0.7139,-0.7139,-0.7139,-0.7139,-0.7139,-0.7139,-0.7139,-0.7139,-0.7139,-0.7139,-0.7139,-0.7187,-0.7214,-0.7153,-0.7187,-0.7214,-0.7153,-0.7139,-0.7139,-0.7139,-0.7139,-0.7139,-0.7139,-0.7139,-0.7139,-0.7139,-0.7139,-0.7139,-0.7139,-0.7139,-0.7105,-0.7021,-0.6959,-0.6892,-0.6797,-0.6732,-0.662,-0.6441,-0.6519,-0.6563,-0.6563,-0.6654,-0.6654,-0.6563,-0.6563,-0.6519,-0.6434,-0.6434,-0.6403,0.3416,0.4073,0.4763,0.55,0.5745,0.5468,0.4175,0.5015,0.6005,0.6139,0.5983,0.5515,0.4872,0.4348,0.3845,0.3091,0.2215,0.188,0.27,0.2059,0.181,0.2743,0.2021,0.1444,0.1444,0.058,0.0,0.0,0.0,0.0,0.0,0.0,0.0,0.0,0.0,0.0,0.0,0.0,0.0,0.0,0.0,0.0,0.0,0.0,0.0,0.0,0.0,0.0,0.0,0.0,0.0,0.0,-0.0079,-0.1331,-0.3124,-0.3202,-0.4602,-0.6512,-0.6654,-0.681,-0.697,-0.7099,-0.7139,-0.7139,-0.7139,-0.7139,-0.7139,-0.7139,-0.7139,-0.7139,-0.7139,-0.7139,-0.7139,-0.7139,-0.7248,-0.7312,-0.717,-0.7251,-0.7309,-0.7166,-0.7139,-0.7139,-0.7139,-0.7139,-0.7139,-0.7139,-0.7139,-0.7139,-0.7139,-0.7139,-0.7139,-0.7139,-0.7139,-0.7139,-0.7139,-0.7021,-0.6949,-0.6949,-0.6817,-0.6742,-0.6742,-0.6729,-0.6722,-0.6722,-0.6732,-0.6732,-0.6722,-0.6722,-0.6715,-0.6702,-0.6702,-0.6627,0.318,0.3526,0.3949,0.4444,0.4464,0.4196,0.3303,0.3466,0.3752,0.37,0.3802,0.3789,0.353,0.3406,0.3004,0.205,0.1714,0.1384,0.0787,0.0497,0.0421,0.0618,0.048,0.0343,0.0343,0.014,0.0,0.0,0.0,0.0,0.0,0.0,0.0,0.0,0.0,0.0,0.0,0.0,0.0,0.0,0.0,0.0,0.0,0.0,0.0,0.0,0.0,0.0,0.0,0.0,0.0,-0.0079,-0.0941,-0.2034,-0.3202,-0.4059,-0.5294,-0.6658,-0.6688,-0.6871,-0.7099,-0.7129,-0.7139,-0.7139,-0.7139,-0.7139,-0.7139,-0.7139,-0.7139,-0.7139,-0.7139,-0.7139,-0.7139,-0.7139,-0.7166,-0.718,-0.7146,-0.7166,-0.718,-0.7146,-0.7139,-0.7139,-0.7139,-0.7139,-0.7139,-0.7139,-0.7139,-0.7139,-0.7139,-0.7139,-0.7139,-0.7139,-0.7139,-0.7139,-0.7139,-0.7112,-0.7095,-0.7095,-0.7065,-0.7044,-0.7044,-0.6939,-0.6878,-0.6878,-0.699,-0.699,-0.6878,-0.6878,-0.6817,-0.6702,-0.6702,-0.6681,0.2658,0.271,0.2833,0.3286,0.3025,0.2608,0.2196,0.1883,0.1627,0.1533,0.2408,0.3008,0.2452,0.2372,0.2076,0.1039,0.08,0.0641,0.007,0.0,0.0,0.0,0.0,0.0,0.0,0.0,0.0,0.0,0.0,0.0,0.0,0.0,0.0,0.0,0.0,0.0,0.0,0.0,0.0,0.0,0.0,0.0,0.0,0.0,0.0,0.0,0.0,0.0,-0.0079,-0.0549,-0.0784,-0.0863,-0.1879,-0.2969,-0.3904,-0.453,-0.5553,-0.6702,-0.6702,-0.6895,-0.7139,-0.7139,-0.7139,-0.7139,-0.7139,-0.7139,-0.7139,-0.7139,-0.7139,-0.7139,-0.7139,-0.7139,-0.7139,-0.7139,-0.7139,-0.7139,-0.7139,-0.7139,-0.7139,-0.7139,-0.7139,-0.7139,-0.7139,-0.7139,-0.7139,-0.7139,-0.7139,-0.7139,-0.7139,-0.7139,-0.7139,-0.7139,-0.7139,-0.7139,-0.7139,-0.7139,-0.7139,-0.7139,-0.7139,-0.7139,-0.7139,-0.7068,-0.7031,-0.7031,-0.7102,-0.7102,-0.7031,-0.7031,-0.699,-0.6912,-0.6912,-0.6875,0.2064,0.2001,0.1933,0.2168,0.1774,0.1285,0.1078,0.051,0.0,0.0,0.139,0.2311,0.1445,0.1301,0.1012,0.0145,0.0,0.0,0.0,0.0,0.0,0.0,0.0,0.0,0.0,0.0,0.0,0.0,0.0,0.0,0.0,0.0,0.0,0.0,0.0133,0.0133,0.0,0.0133,0.0136,0.0,0.0,0.0,0.0,0.0,0.0,0.0,0.0,0.0,-0.0078,-0.1091,-0.1562,-0.1723,-0.2877,-0.3891,-0.4688,-0.4921,-0.5701,-0.6661,-0.6661,-0.6837,-0.7065,-0.7065,-0.7082,-0.7102,-0.7102,-0.7122,-0.7139,-0.7139,-0.7139,-0.7139,-0.7139,-0.7139,-0.7139,-0.7139,-0.7139,-0.7139,-0.7139,-0.7139,-0.7139,-0.7139,-0.7139,-0.7139,-0.7139,-0.7139,-0.7139,-0.7139,-0.7139,-0.7139,-0.7139,-0.7139,-0.7139,-0.7139,-0.7139,-0.7139,-0.7139,-0.7139,-0.7139,-0.7139,-0.7139,-0.7139,-0.7139,-0.7139,-0.7139,-0.7139,-0.7139,-0.7139,-0.7139,-0.7139,-0.7139,-0.7139,-0.7139,-0.7078,0.1719,0.1928,0.2025,0.1422,0.1271,0.1094,0.0368,0.0061,0.0,0.0,0.02,0.0353,0.0212,0.0212,0.0141,0.0,0.0,0.0,0.0,0.0,0.0,0.0,0.0,0.0,0.0,0.0,0.0,0.0,0.0,0.0,0.0,0.0,0.0,0.0,0.0728,0.0795,0.0,0.0728,0.074,0.0,0.0,0.0,0.0,0.0,0.0,0.0,0.0,0.0,-0.0076,-0.0987,-0.1461,-0.1799,-0.3587,-0.4447,-0.4844,-0.5709,-0.6284,-0.6502,-0.6502,-0.6614,-0.6759,-0.6759,-0.6848,-0.6956,-0.6956,-0.7044,-0.7139,-0.7139,-0.7139,-0.7139,-0.7139,-0.7139,-0.7139,-0.7139,-0.7139,-0.7139,-0.7139,-0.7139,-0.7139,-0.7139,-0.7139,-0.7139,-0.7139,-0.7139,-0.7139,-0.7139,-0.7139,-0.7139,-0.7139,-0.7139,-0.7139,-0.7139,-0.7139,-0.7139,-0.7139,-0.7139,-0.7139,-0.7139,-0.7139,-0.7139,-0.7139,-0.7139,-0.7139,-0.7139,-0.7139,-0.7139,-0.7139,-0.7139,-0.7139,-0.7139,-0.7139,-0.7129,0.0789,0.0852,0.0885,0.0551,0.0522,0.0482,0.0113,0.0,0.0,0.0,0.0,0.0,0.0,0.0,0.0,0.0,0.0,0.0,0.0,0.0,0.0,0.0,0.0,0.0,0.0,0.0,0.0,0.0,0.0,0.0,0.0,0.0391,0.0643,0.0614,0.1385,0.1652,0.1381,0.1809,0.1585,0.0739,0.0205,0.0,0.0,0.0,0.0,0.0,0.0,-0.0377,-0.0983,-0.1888,-0.2679,-0.3513,-0.4942,-0.5576,-0.5631,-0.6103,-0.6349,-0.6485,-0.6569,-0.6702,-0.6841,-0.6919,-0.6993,-0.7048,-0.7048,-0.7092,-0.7139,-0.7139,-0.7139,-0.7139,-0.7139,-0.7139,-0.7139,-0.7139,-0.7139,-0.7163,-0.7251,-0.7272,-0.7272,-0.7272,-0.7272,-0.7241,-0.7153,-0.7139,-0.7139,-0.7139,-0.7139,-0.7139,-0.7139,-0.7139,-0.7139,-0.7139,-0.7139,-0.7139,-0.7139,-0.7139,-0.7139,-0.7139,-0.7139,-0.7139,-0.7139,-0.7139,-0.7139,-0.7139,-0.7139,-0.7139,-0.7139,-0.7139,-0.7139,-0.7139,-0.7139,-0.7139,0.0304,0.0126,0.0,0.0,0.0,0.0,0.0,0.0,0.0,0.0,0.0,0.0,0.0,0.0,0.0,0.0,0.0,0.0,0.0,0.0,0.0,0.0,0.0,0.0,0.0,0.0,0.0,0.0,0.0,0.0,0.0,0.0693,0.1119,0.1118,0.2055,0.2509,0.2429,0.221,0.1891,0.1273,0.0406,0.0,0.0,0.0,0.0,0.0,0.0,-0.0443,-0.1262,-0.2253,-0.3127,-0.4026,-0.5035,-0.5443,-0.5473,-0.5473,-0.5689,-0.6035,-0.6179,-0.6443,-0.6787,-0.697,-0.7027,-0.7037,-0.7075,-0.7112,-0.7139,-0.7139,-0.7139,-0.7139,-0.7139,-0.7139,-0.7139,-0.7139,-0.7139,-0.7173,-0.7288,-0.7373,-0.7417,-0.738,-0.7404,-0.738,-0.7224,-0.72,-0.7187,-0.7146,-0.7139,-0.7153,-0.7193,-0.7166,-0.7153,-0.7193,-0.7163,-0.7139,-0.7139,-0.7139,-0.7139,-0.7139,-0.7139,-0.7156,-0.7197,-0.72,-0.7217,-0.7258,-0.7258,-0.7217,-0.7139,-0.7139,-0.7139,-0.7139,-0.7139,-0.7139,0.0715,0.042,0.0,0.0,0.0,0.0,0.0,0.0,0.0,0.0,0.0,0.0,0.0,0.0,0.0,0.0,0.0,0.0,0.0,0.0,0.0,0.0,0.0,0.0,0.0,0.0,0.0,0.0,0.0,0.0,0.0,0.0679,0.1094,0.1117,0.266,0.3088,0.2234,0.15,0.124,0.1274,0.0415,0.0,0.0,0.0,0.0,0.0,0.0,0.0,-0.0142,-0.1038,-0.1511,-0.1816,-0.2722,-0.314,-0.3279,-0.3279,-0.3908,-0.4789,-0.4906,-0.5601,-0.6342,-0.663,-0.6722,-0.6749,-0.6895,-0.7034,-0.7139,-0.7139,-0.7139,-0.7139,-0.7139,-0.7139,-0.7139,-0.7139,-0.7139,-0.7143,-0.7149,-0.7383,-0.7546,-0.74,-0.7489,-0.7539,-0.7387,-0.736,-0.7309,-0.7163,-0.7139,-0.7193,-0.7343,-0.7231,-0.7197,-0.7343,-0.7227,-0.7139,-0.7139,-0.7139,-0.7139,-0.7139,-0.7139,-0.7207,-0.7353,-0.736,-0.7428,-0.7573,-0.7573,-0.7431,-0.7139,-0.7139,-0.7139,-0.7139,-0.7139,-0.7139,0.0955,0.0756,0.0491,0.0088,0.0,0.0,0.0,0.0,0.0,0.0,0.0,0.0,0.0,0.0,0.0,0.0,0.0,0.0,0.0,0.0,0.0,0.0,0.0,0.0,0.0,0.0,0.0,0.0,0.0,0.0,0.0,0.1123,0.1821,0.182,0.333,0.3831,0.3105,0.1837,0.127,0.1307,0.0397,0.0,0.0,0.0,0.0,0.0,0.0,-0.0357,-0.1053,-0.1381,-0.1934,-0.2569,-0.2914,-0.3024,-0.3124,-0.3124,-0.3357,-0.3761,-0.4576,-0.4671,-0.4659,-0.6217,-0.6341,-0.5996,-0.6652,-0.7027,-0.7139,-0.7139,-0.7139,-0.7139,-0.7139,-0.7139,-0.7166,-0.7265,-0.7363,-0.7434,-0.7434,-0.7522,-0.7553,-0.74,-0.7414,-0.7438,-0.738,-0.7288,-0.7272,-0.7414,-0.735,-0.7343,-0.7499,-0.7468,-0.7417,-0.7377,-0.7322,-0.7248,-0.7149,-0.7231,-0.7248,-0.7146,-0.7326,-0.7417,-0.7373,-0.7465,-0.7543,-0.7597,-0.76,-0.7546,-0.7434,-0.7336,-0.7288,-0.7285,-0.7187,-0.7139,0.1551,0.1371,0.1122,0.0706,0.0448,0.0316,0.0325,0.0145,0.0,0.0,0.0,0.0,0.0,0.0,0.0,0.0,0.0,0.0,0.0,0.0,0.0,0.0,0.0,0.0,0.0,0.0,0.0,0.0,0.0,0.0,0.0,0.1142,0.2055,0.2567,0.3345,0.3682,0.3574,0.2037,0.1231,0.1269,0.0445,0.0,0.0,0.0,0.0,0.0,0.0,-0.0415,-0.1038,-0.1076,-0.1469,-0.2093,-0.2066,-0.2096,-0.2033,-0.2033,-0.2267,-0.2747,-0.3564,-0.3585,-0.3583,-0.558,-0.5849,-0.5542,-0.6634,-0.7065,-0.7139,-0.7139,-0.7139,-0.7139,-0.7139,-0.718,-0.7258,-0.7411,-0.756,-0.7658,-0.7611,-0.7678,-0.7702,-0.755,-0.756,-0.758,-0.7529,-0.7394,-0.7346,-0.7499,-0.7438,-0.7424,-0.758,-0.7553,-0.7502,-0.7455,-0.74,-0.7329,-0.7227,-0.736,-0.7404,-0.7302,-0.7485,-0.7577,-0.7522,-0.7617,-0.7695,-0.7746,-0.7746,-0.7723,-0.7672,-0.7468,-0.7346,-0.7292,-0.7187,-0.7139,0.0,0.0,0.0,0.1786,0.1341,0.0941,0.094,0.0463,0.0048,0.0048,0.0,0.0,0.0,0.0,0.0,0.0,0.0,0.0,0.0,0.0,0.0,0.0,0.0,0.0056,0.0056,0.0056,0.0056,0.0056,0.0056,0.0,0.0,0.0671,0.1786,0.3231,0.2565,0.2606,0.351,0.1875,0.1132,0.123,0.0432,0.0,0.0,0.0,0.0,0.0,0.0,0.0,0.0,0.0,0.0,0.0,0.0,0.0,0.0,0.0,-0.0628,-0.1578,-0.1731,-0.2392,-0.3353,-0.4889,-0.5272,-0.5378,-0.6646,-0.7136,-0.7139,-0.7139,-0.7139,-0.7139,-0.7139,-0.7251,-0.7404,-0.7563,-0.7706,-0.777,-0.7641,-0.7838,-0.7994,-0.7834,-0.7926,-0.798,-0.7834,-0.7692,-0.7553,-0.7411,-0.7387,-0.7441,-0.7594,-0.7485,-0.7448,-0.759,-0.7468,-0.7377,-0.737,-0.7512,-0.7597,-0.7594,-0.7604,-0.7672,-0.7804,-0.7814,-0.7889,-0.8035,-0.8038,-0.7963,-0.7811,-0.7526,-0.7302,-0.7146,-0.7143,-0.7139,0.2765,0.0,0.0,0.0,0.0,0.0,0.1573,0.1155,0.0756,0.0688,0.0283,0.0,0.0,0.0,0.0,0.0,0.0,0.0,0.0,0.0,0.0,0.0,0.0448,0.0783,0.0783,0.1284,0.1397,0.0838,0.0783,0.056,0.0056,0.0671,0.1507,0.2454,0.1786,0.1514,0.1811,0.0794,0.0346,0.0358,0.0122,0.0,0.0,0.0,0.0,0.0,0.0,0.0,0.0,0.0,0.0,0.0,0.0,0.0,0.0,0.0,-0.0157,-0.055,-0.1353,-0.1849,-0.2517,-0.4385,-0.5168,-0.5542,-0.6624,-0.7058,-0.7139,-0.7139,-0.7139,-0.7139,-0.7139,-0.7173,-0.7272,-0.7536,-0.7631,-0.7706,-0.7879,-0.798,-0.7963,-0.7706,-0.7692,-0.774,-0.7801,-0.7692,-0.7658,-0.7828,-0.776,-0.7743,-0.7899,-0.7882,-0.7828,-0.776,-0.7624,-0.7492,-0.738,-0.7512,-0.7553,-0.7441,-0.774,-0.7885,-0.7814,-0.7919,-0.7994,-0.8038,-0.8038,-0.7963,-0.7811,-0.7729,-0.7556,-0.7305,-0.719,-0.7139,0.3263,0.3155,0.3052,0.2645,0.0,0.0,0.2257,0.1657,0.1066,0.0995,0.0481,0.0,0.0,0.0,0.0,0.0,0.0278,0.0336,0.0056,0.028,0.0448,0.0448,0.1118,0.1563,0.1563,0.1952,0.2009,0.1563,0.1563,0.1229,0.0504,0.056,0.1006,0.173,0.1006,0.0783,0.1118,0.0392,0.0,0.0,0.0,0.0,0.0,0.0,0.0,0.0,0.0,0.0,0.0,0.0,0.0,0.0,0.0,0.0,0.0,0.0,0.0,-0.0079,-0.0714,-0.1292,-0.2057,-0.382,-0.4862,-0.561,-0.6666,-0.7075,-0.7139,-0.7139,-0.7139,-0.7153,-0.7221,-0.7238,-0.7299,-0.7543,-0.7645,-0.7736,-0.7909,-0.7994,-0.7987,-0.7818,-0.7784,-0.7807,-0.7892,-0.7784,-0.7746,-0.7919,-0.7868,-0.7841,-0.7933,-0.7943,-0.7885,-0.774,-0.7702,-0.7628,-0.7478,-0.7662,-0.7746,-0.7655,-0.7896,-0.7997,-0.7909,-0.7991,-0.8038,-0.8038,-0.8038,-0.7994,-0.7906,-0.7841,-0.7692,-0.7461,-0.7309,-0.7272,0.3853,0.3816,0.3785,0.3659,0.3361,0.0,0.3011,0.2166,0.1317,0.1312,0.0758,0.0253,0.0253,0.0261,0.0267,0.0267,0.0768,0.095,0.0224,0.0783,0.1229,0.1229,0.1898,0.2343,0.2341,0.2397,0.2397,0.2343,0.2232,0.1898,0.1118,0.0504,0.0392,0.095,0.0336,0.0336,0.095,0.0336,0.0,0.0,0.0,0.0,0.0,0.0,0.0,0.0,0.0,0.0,0.0,0.0,0.0,0.0,0.0,0.0,0.0,0.0,0.0,0.0,0.0,-0.0907,-0.2187,-0.3269,-0.448,-0.5805,-0.6786,-0.7139,-0.7139,-0.7139,-0.7139,-0.7173,-0.7309,-0.736,-0.7407,-0.7543,-0.7695,-0.7811,-0.7811,-0.7929,-0.8038,-0.8038,-0.8038,-0.8038,-0.8038,-0.7926,-0.7834,-0.7834,-0.7834,-0.7834,-0.7834,-0.7834,-0.7787,-0.7662,-0.7746,-0.776,-0.7634,-0.7865,-0.8007,-0.7991,-0.8021,-0.8031,-0.8014,-0.8031,-0.8038,-0.8038,-0.8038,-0.8038,-0.8038,-0.7872,-0.7733,-0.7617,-0.7468,-0.7468,0.3982,0.3975,0.3968,0.3941,0.3946,0.0,0.3804,0.3321,0.2859,0.273,0.2212,0.1783,0.1783,0.1781,0.1768,0.1768,0.1889,0.173,0.1006,0.1507,0.2009,0.2009,0.2676,0.3121,0.3065,0.3677,0.379,0.3234,0.2565,0.1898,0.1118,0.095,0.0671,0.0224,0.0056,0.0056,0.0224,0.0056,0.0,0.0,0.0,0.0,0.0,0.0,0.0,0.0,0.0,0.0,0.0,0.0,0.0,0.0,0.0,0.0,0.0,0.0,0.0,0.0,0.0,-0.1401,-0.328,-0.3526,-0.5005,-0.6782,-0.7051,-0.7139,-0.7139,-0.7139,-0.7139,-0.7146,-0.7177,-0.7278,-0.738,-0.7407,-0.7617,-0.7811,-0.7811,-0.7929,-0.8038,-0.8038,-0.8038,-0.8038,-0.8038,-0.8014,-0.7994,-0.7994,-0.7994,-0.7994,-0.7994,-0.7994,-0.7984,-0.7957,-0.7868,-0.7801,-0.7773,-0.7824,-0.7807,-0.7692,-0.7909,-0.7984,-0.7862,-0.7974,-0.8038,-0.8038,-0.8038,-0.8038,-0.8038,-0.777,-0.7685,-0.7767,-0.7624,-0.757,0.4554,0.4383,0.4063,0.4039,0.4083,0.0,0.0,0.3658,0.3296,0.3189,0.2686,0.2174,0.2174,0.2206,0.2174,0.2174,0.2508,0.2619,0.2287,0.2565,0.2732,0.2732,0.3456,0.3956,0.3901,0.4239,0.4349,0.3959,0.3176,0.2619,0.2287,0.1507,0.0951,0.056,0.0168,0.0,0.0,0.0,0.0,0.0,0.0,0.0,0.0,0.0,0.0,0.0,0.0,0.0,0.0,0.0,0.0,0.0,0.0,0.0,0.0,0.0,0.0,-0.0079,-0.0725,-0.1728,-0.286,-0.4126,-0.5267,-0.634,-0.6962,-0.7139,-0.7139,-0.7139,-0.7139,-0.7139,-0.7139,-0.7255,-0.737,-0.737,-0.7597,-0.7811,-0.7811,-0.7929,-0.8038,-0.8038,-0.8038,-0.8038,-0.8038,-0.8038,-0.8038,-0.8038,-0.8038,-0.8038,-0.8038,-0.8038,-0.8011,-0.7933,-0.7926,-0.7892,-0.7818,-0.7882,-0.7896,-0.7824,-0.796,-0.8004,-0.7929,-0.7997,-0.8038,-0.8038,-0.8038,-0.8038,-0.8038,-0.7892,-0.7818,-0.7807,-0.7665,-0.7638,0.5002,0.4707,0.4207,0.4138,0.4199,0.4237,0.0,0.0,0.0,0.3511,0.3065,0.2621,0.2621,0.2621,0.2615,0.2599,0.3217,0.3666,0.3594,0.3747,0.3756,0.3564,0.4125,0.4519,0.4519,0.4519,0.4519,0.4519,0.3901,0.34,0.3178,0.2009,0.1174,0.0895,0.0336,0.0,0.0,0.0,0.0,0.0,0.0,0.0,0.0,0.0,0.0,0.0,0.0,0.0,0.0,0.0,0.0,0.0,0.0,0.0,0.0,0.0,-0.0157,-0.0473,-0.1455,-0.2057,-0.2677,-0.4482,-0.5195,-0.5625,-0.6782,-0.7139,-0.7139,-0.7139,-0.7139,-0.7146,-0.7177,-0.7299,-0.7414,-0.7414,-0.7641,-0.7845,-0.7818,-0.7929,-0.8038,-0.8038,-0.8038,-0.8038,-0.8038,-0.8038,-0.8038,-0.8038,-0.8038,-0.8038,-0.8038,-0.8038,-0.7991,-0.7868,-0.7967,-0.7991,-0.7865,-0.797,-0.8028,-0.7997,-0.8024,-0.8024,-0.7997,-0.8024,-0.8038,-0.8038,-0.8038,-0.8038,-0.8038,-0.8038,-0.7977,-0.7851,-0.7736,-0.7746,0.4549,0.4546,0.4488,0.447,0.4481,0.4491,0.4491,0.0,0.4349,0.4349,0.0,0.4236,0.4236,0.0,0.0,0.4021,0.4689,0.5,0.4234,0.5144,0.551,0.4494,0.446,0.4519,0.4519,0.4519,0.4519,0.4519,0.4405,0.379,0.2397,0.2174,0.1452,0.0168,0.0056,0.0,0.0,0.0,0.0,0.0,0.0,0.0,0.0,0.0,0.0,0.0,0.0,0.0,0.0,0.0,0.0,0.0,0.0,0.0,0.0,0.0,-0.0628,-0.142,-0.1729,-0.297,-0.4435,-0.3926,-0.4543,-0.5625,-0.6782,-0.7139,-0.7139,-0.7139,-0.7139,-0.7173,-0.7309,-0.7458,-0.7573,-0.7573,-0.7797,-0.7977,-0.7841,-0.7929,-0.8038,-0.8038,-0.8038,-0.8038,-0.8038,-0.8038,-0.8038,-0.8038,-0.8038,-0.8038,-0.8038,-0.8038,-0.8031,-0.8014,-0.8028,-0.8031,-0.8014,-0.8028,-0.798,-0.7845,-0.7963,-0.7977,-0.7841,-0.7967,-0.8038,-0.8038,-0.8038,-0.8038,-0.8038,-0.8038,-0.8031,-0.8014,-0.7997,-0.7997,0.4948,0.4787,0.4519,0.4519,0.4519,0.4519,0.4519,0.4519,0.4519,0.4519,0.0,0.0,0.0,0.0,0.0,0.0,0.4692,0.482,0.4433,0.5076,0.5397,0.4904,0.4858,0.4739,0.4508,0.4519,0.4519,0.4519,0.407,0.3511,0.2954,0.2065,0.1284,0.0671,0.0224,0.0,0.0,0.0,0.0,0.0,0.0,0.0,0.0,0.0,0.0,0.0,0.0,0.0,0.0,0.0,0.0,0.0,0.0,0.0,0.0,0.0,-0.0706,-0.1732,-0.2439,-0.3182,-0.392,-0.4308,-0.5259,-0.6418,-0.6939,-0.7139,-0.7139,-0.7139,-0.7139,-0.7153,-0.7221,-0.7417,-0.76,-0.76,-0.7824,-0.8021,-0.7957,-0.7994,-0.8038,-0.8038,-0.8038,-0.8038,-0.8038,-0.8038,-0.8038,-0.8038,-0.8038,-0.8038,-0.8038,-0.8038,-0.8038,-0.8038,-0.8038,-0.8038,-0.8038,-0.8038,-0.8011,-0.7946,-0.8004,-0.8011,-0.7946,-0.8007,-0.8038,-0.8038,-0.8038,-0.8038,-0.8038,-0.8038,-0.8038,-0.8038,-0.7946,-0.7909,0.5109,0.4897,0.4519,0.4519,0.4519,0.4519,0.4519,0.4519,0.457,0.4732,0.4625,0.0,0.0,0.0,0.4776,0.4732,0.0,0.521,0.4787,0.5362,0.5668,0.5159,0.5071,0.494,0.4649,0.4487,0.4348,0.4126,0.3605,0.3178,0.2788,0.173,0.1006,0.0783,0.028,0.0,0.0,0.0,0.0,0.0,0.0,0.0,0.0,0.0,0.0,0.0,0.0,0.0,0.0,0.0,0.0,0.0,-0.0303,-0.0464,-0.0471,-0.0471,-0.1097,-0.2199,-0.3372,-0.3656,-0.3779,-0.5088,-0.594,-0.6509,-0.6873,-0.7109,-0.7139,-0.7139,-0.7139,-0.7149,-0.719,-0.74,-0.76,-0.76,-0.7794,-0.7977,-0.7977,-0.7977,-0.7987,-0.8031,-0.8038,-0.8038,-0.8038,-0.8038,-0.8038,-0.8038,-0.8038,-0.8038,-0.8038,-0.8038,-0.8038,-0.8038,-0.8038,-0.8038,-0.8038,-0.8038,-0.8038,-0.8038,-0.8038,-0.8038,-0.8038,-0.8038,-0.8038,-0.8038,-0.8038,-0.8038,-0.8038,-0.8038,-0.8038,-0.8035,-0.7926,-0.7875,0.4515,0.4519,0.4519,0.4519,0.4519,0.4519,0.4519,0.4519,0.4677,0.5324,0.4948,0.4901,0.6263,0.5928,0.5429,0.0,0.6607,0.0,0.0,0.6723,0.7151,0.5298,0.4964,0.4919,0.4874,0.4474,0.3937,0.3189,0.3286,0.2732,0.1229,0.1118,0.0783,0.0056,0.0,0.0,0.0,0.0,0.0,0.0,0.0,0.0,0.0,0.0,0.0,0.0,0.0,0.0,0.0,0.0,0.0,-0.0076,-0.1164,-0.1567,-0.1568,-0.1568,-0.219,-0.3212,-0.4416,-0.4849,-0.5022,-0.6284,-0.5951,-0.536,-0.6583,-0.7031,-0.7139,-0.7139,-0.7139,-0.7173,-0.7326,-0.7482,-0.76,-0.76,-0.7712,-0.7818,-0.7818,-0.7818,-0.7862,-0.8011,-0.8038,-0.8038,-0.8038,-0.8038,-0.8038,-0.8038,-0.8038,-0.8038,-0.8038,-0.8038,-0.8038,-0.8038,-0.8038,-0.8038,-0.8038,-0.8038,-0.8038,-0.8038,-0.8038,-0.8038,-0.8038,-0.8038,-0.8038,-0.8038,-0.8038,-0.8038,-0.8038,-0.8038,-0.8038,-0.8038,-0.8035,-0.8031,0.4613,0.4594,0.4519,0.4519,0.4519,0.4519,0.4519,0.4519,0.457,0.4787,0.468,0.4629,0.5117,0.5382,0.5467,0.0,0.0,0.6773,0.0,0.6756,0.705,0.6719,0.6211,0.5619,0.4943,0.4813,0.4337,0.3184,0.2791,0.2176,0.1174,0.0615,0.028,0.0,0.0,0.0,0.0,0.0,0.0,0.0,0.0,0.0,0.0,0.0,0.0,0.0,0.0,0.0,0.0,0.0,0.0,0.0,-0.0379,-0.1005,-0.1646,-0.2347,-0.3315,-0.4494,-0.5668,-0.6015,-0.6087,-0.6615,-0.6557,-0.6298,-0.6834,-0.7102,-0.7163,-0.7265,-0.7292,-0.7329,-0.7482,-0.7631,-0.7716,-0.7624,-0.7706,-0.7811,-0.7811,-0.7811,-0.7858,-0.8011,-0.8038,-0.8038,-0.8038,-0.8038,-0.8038,-0.8038,-0.8038,-0.8038,-0.8038,-0.8038,-0.8038,-0.8038,-0.8038,-0.8038,-0.8038,-0.8038,-0.8038,-0.8038,-0.8038,-0.8038,-0.8038,-0.8038,-0.8038,-0.8038,-0.8038,-0.8038,-0.8038,-0.8038,-0.8038,-0.8038,-0.8038,-0.8038,0.4691,0.4579,0.4519,0.4519,0.456,0.4584,0.4529,0.456,0.4636,0.4798,0.468,0.4625,0.5171,0.5382,0.5487,0.0,0.0,0.7047,0.0,0.7212,0.7267,0.745,0.66,0.5788,0.517,0.4869,0.4172,0.281,0.2409,0.1786,0.0783,0.028,0.0,0.0,0.0,0.0,0.0,0.0,0.0,0.0,0.0,0.0,0.0,0.0,0.0,0.0,0.0,0.0,0.0,0.0,0.0,-0.0073,-0.0449,-0.0998,-0.1723,-0.2735,-0.4101,-0.5539,-0.6322,-0.6556,-0.6515,-0.6766,-0.6817,-0.6817,-0.7007,-0.7139,-0.7231,-0.7278,-0.7366,-0.7461,-0.7506,-0.7662,-0.7777,-0.7634,-0.7706,-0.7811,-0.7811,-0.7811,-0.7858,-0.8011,-0.8038,-0.8038,-0.8038,-0.8038,-0.8038,-0.8038,-0.8038,-0.8038,-0.8038,-0.8038,-0.8038,-0.8038,-0.8038,-0.8038,-0.8038,-0.8038,-0.8038,-0.8038,-0.8038,-0.8038,-0.8038,-0.8038,-0.8038,-0.8038,-0.8038,-0.8038,-0.8038,-0.8038,-0.8038,-0.8038,-0.8038,-0.8038]},{"header":{"parameterUnit":"m.s-1","parameterCategory":1,"la1":30.6,"la2":29.2853,"lo1":-89.7004,"lo2":-87.6739,"dy":0.0162,"dx":0.0183,"nx":112,"ny":82,"refTime":"2023-08-24T00:00:00:Z","depth":0,"parameterNumber":3,"parameterNumberName":"V-component_of_WINDS"},"data":[0.0,0.0,0.0,0.0,0.0,0.0,0.0,0.0,0.0,0.0,0.0,0.0,0.0,0.0,0.0,0.0,0.0,0.0,0.0,0.0,0.0,0.0,0.0,0.0,0.0,0.0,0.0,0.0,0.0,0.0,0.0,0.0,0.0,0.0,0.0,0.0,0.0,0.0,0.0,0.0,0.0,0.0,0.0,0.0,0.0,0.0,0.0,0.0,0.0,0.0,0.0,0.0,0.0,0.0,0.0,0.0,0.0,0.0,0.0,0.0,0.0,0.0,0.0,0.0,0.0,0.0,0.0,0.0,0.0,0.0,0.0,0.0,0.0,0.0,0.0,0.0,0.0,0.0,0.0,0.0,0.0,0.0,0.0,0.0,0.0,0.0,0.0,0.0,0.0,0.0,0.0171,0.0796,0.1431,0.1943,0.226,0.3553,0.444,0.4661,0.0,0.0,0.0,0.0,0.0,0.0,0.0,0.0,0.0,0.0,0.0,0.0,0.0,0.0,0.0,0.0,0.0,0.0,0.0,0.0,0.0,0.0,0.0,0.0,0.0,0.0,0.0,0.0,0.0,0.0,0.0,0.0,0.0,0.0,0.0,0.0,0.0,0.0,0.0,0.0,0.0,0.0,0.0,0.0,0.0,0.0,0.0,0.0,0.0,0.0,0.0,0.0,0.0,0.0,0.0,0.0,0.0,0.0,0.0,0.0,0.0,0.0,0.0,0.0,0.0,0.0,0.0,0.0,0.0,0.0,0.0,0.0,0.0,0.0,0.0,0.0,0.0,0.0,0.0,0.0,0.0,0.0,0.0,0.0,0.0,0.0,0.0,0.0,0.0,0.0,0.0,0.0,0.0,0.0,0.0,0.0,0.0,0.0,0.0,0.0,0.0,0.0,0.0,0.0,-0.008,0.0569,0.134,0.2045,0.2663,0.3041,0.3759,0.495,0.0,0.0,0.0,0.0,0.0,0.0,0.0,0.0,0.0,0.0,0.0,0.0,0.0,0.0,0.0,0.0,0.0,0.0,0.0,0.0,0.0,0.0,0.0,0.0,0.0,0.0,0.0,0.0,0.0,0.0,0.0,0.0,0.0,0.0,0.0,0.0,0.0,0.0,0.0,0.0,0.0,0.0,0.0,0.0,0.0,0.0,0.0,0.0,0.0,0.0,0.0,0.0,0.0,0.0,0.0,0.0,0.0,0.0,0.0,0.0,0.0,0.0,0.0,0.0,0.0,0.0,0.0,0.0,0.0,0.0,0.0,0.0,0.0,0.0,0.0,0.0,0.0,0.0,0.0,0.0,0.0,0.0,0.0,0.0,0.0,0.0,0.0,0.0,0.0,0.0,0.0,0.0,0.0,0.0,0.0,0.0,0.0,0.0,0.0,0.0,0.0,0.0,0.0,-0.0667,-0.0338,0.051,0.1162,0.1761,0.2323,0.2651,0.3457,0.4892,0.5195,0.0,0.0,0.0,0.0,0.0,0.0,0.0,0.0,0.0,0.0,0.0,0.0,0.0,0.0,0.0,0.0,0.0,0.0,0.0,0.0,0.0,0.0,0.0,0.0,0.0,0.0,0.0,0.0,0.0,0.0,0.0,0.0,0.0,0.0,0.0,0.0,0.0,0.0,0.0,0.0,0.0,0.0,0.0,0.0,0.0,0.0,0.0,0.0,0.0,0.0,0.0,0.0,0.0,0.0,0.0,0.0,0.0,0.0,0.0,0.0,0.0,0.0,0.0,0.0,0.0,0.0,0.0,0.0,0.0,0.0,0.0,0.0,0.0,0.0,0.0,0.0,0.0,0.0,0.0,0.0,0.0,0.0,0.0,0.0,0.0,0.0,0.0,0.0,0.0,0.0,0.0,0.0,0.0,0.0,0.0,0.0,0.0,0.0,0.0,0.0,0.0,0.0,-0.091,-0.0523,0.0363,0.0901,0.1405,0.1884,0.2388,0.3313,0.4808,0.4883,0.0,0.0,0.0,0.0,0.0,0.0,0.0,0.0,0.0,0.0,0.0,0.0,0.0,0.0,0.0,0.0,0.0,0.0,0.0,0.0,0.0,0.0,0.0,0.0,0.0,0.0,0.0,0.0,0.0,0.0,0.0,0.0,0.0,0.0,0.0,0.0,0.0,0.0,0.0,0.0,0.0,0.0,0.0,0.0,0.0,0.0,0.0,0.0,0.0,0.0,0.0,0.0,0.0,0.0,0.0,0.0,0.0,0.0,0.0,0.0,0.0,0.0,0.0,0.0,0.0,0.0,0.0,0.0,0.0,0.0,0.0,0.0,0.0,0.0,0.0,0.0,0.0,0.0,0.0,0.0,0.0,0.0,0.0,0.0,0.0,0.0,0.0,0.0,0.0,0.0,0.0,0.0,0.0,0.0,0.0,0.0,0.0,0.0,0.0,0.0,0.0,0.0,-0.0943,-0.0519,-0.0011,0.0573,0.1145,0.1681,0.2259,0.3263,0.4808,0.501,0.0,0.0,0.0,0.0,0.0,0.0,0.0,0.0,0.0,0.0,0.0,0.0,0.0,0.0,0.0,0.0,0.0,0.0,0.0,0.0,0.0,0.0,0.0,0.0,0.0,0.0,0.0,0.0,0.0,0.0,0.0,0.0,0.0,0.0,0.0,0.0,0.0,0.0,0.0,0.0,0.0,0.0,0.0,0.0,0.0,0.0,0.0,0.0,0.0,0.0,0.0,0.0,0.0,0.0,0.0,0.0,0.0,0.0,0.0,0.0,0.0,0.0,0.0,0.0,0.0,0.0,0.0,0.0,0.0,0.0,0.0,0.0,0.0,0.0,0.0,0.0,0.0,0.0,0.0,0.0,0.0,0.0,0.0,0.0,0.0,0.0,0.0,0.0,0.0,0.0,0.0,0.0,0.0,0.0,0.0,0.0,0.0,0.0,0.0,0.0,0.0,0.0,-0.1135,-0.075,-0.0067,0.043,0.0951,0.1527,0.2058,0.3054,0.4733,0.0,0.0,0.0,0.0,0.0,0.0,0.0,0.0,0.0,0.0,0.0,0.0,0.0,0.0,0.0,0.0,0.0,0.0,0.0,0.0,0.0,0.0,0.0,0.0,0.0,0.0,0.0,0.0,0.0,0.0,0.0,0.0,0.0,0.0,0.0,0.0,0.0,0.0,0.0,0.0,0.0,0.0,0.0,0.0,0.0,0.0,0.0,0.0,0.0,0.0,0.0,0.0,0.0,0.0,0.0,0.0,0.0,0.0,0.0,0.0,0.0,0.0,0.0,0.0,0.0,0.0,0.0,0.0,0.0,0.0,0.0,0.0,0.0,0.0,0.0,0.0,0.0,0.0,0.0,0.0,0.0,0.0,0.0,0.0,0.0,0.0,0.0,0.0,0.0,0.0,0.0,0.0,0.0,0.0,0.0,0.0,0.0,0.0,0.0,0.0,0.0,0.0,-0.132,-0.1173,-0.0823,-0.0169,0.0232,0.0682,0.1266,0.156,0.2492,0.4305,0.0,0.0,0.0,0.0,0.0,0.0,0.0,0.0,0.0,0.0,0.0,0.0,0.0,0.0,0.0,0.0,0.0,0.0,0.0,0.0,0.0,0.0,0.0,0.0,0.0,0.0,0.0,0.0,0.0,0.0,0.0,0.0,0.0,0.0,0.0,0.0,0.0,0.0,0.0,0.0,0.0,0.0,0.0,0.0,0.0,0.0,0.0,0.0,0.0,0.0,0.0,0.0,0.0,0.0,0.0,0.0,0.0,0.0,0.0,0.0,0.0,0.0,0.0,0.0,0.0,0.0,0.0,0.0,0.0,0.0,0.0,0.0,0.0,0.0,0.0,0.0,0.0,0.0,0.0,0.0,0.0,0.0,0.0,0.0,0.0,0.0,0.0,0.0,0.0,0.0,0.0,0.0,0.0,0.0,0.0,0.0,0.0,0.0,0.0,0.0,0.0,0.0,-0.1307,-0.1012,-0.067,-0.0346,-0.0067,0.031,0.0849,0.0775,0.1538,0.0,0.0,0.0,0.0,0.0,0.0,0.0,0.0,0.0,0.0,0.0,0.0,0.0,0.0,0.0,0.0,0.0,0.0,0.0,0.0,0.0,0.0,0.0,0.0,0.0,0.0,0.0,0.0,0.0,0.0,0.0,0.0,0.0,0.0,0.0,0.0,0.0,0.0,0.0,0.0,0.0,0.0,0.0,0.0,0.0,0.0,0.0,0.0,0.0,0.0,0.0,0.0,0.0,0.0,0.0,0.0,0.0,0.0,0.0,0.0,0.0,0.0,0.0,0.0,0.0,0.0,0.0,0.0,0.0,0.0,0.0,0.0,0.0,0.0,0.0,0.0,0.0,0.0,0.0,0.0,0.0,0.0,0.0,0.0,0.0,0.0,0.0,0.0,0.0,0.0,0.0,0.0,0.0,0.0,0.0,0.0,0.0,0.0,0.0,0.0,0.0,0.0,0.0,-0.1336,-0.1045,-0.0832,-0.0729,-0.0446,0.0056,0.0837,0.086,0.1806,0.409,0.0,0.0,0.0,0.0,0.0,0.0,0.0,0.0,0.0,0.0,0.0,0.0,0.0,0.0,0.0,0.0,0.0,0.0,0.0,0.0,0.0,0.0,0.0,0.0,0.0,0.0,0.0,0.0,0.0,0.0,0.0,0.0,0.0,0.0,0.0,0.0,0.0,0.0,0.0,0.0,0.0,0.0,0.0,0.0,0.0,0.0,0.0,0.0,0.0,0.0,0.0,0.0,0.0,0.0,0.0,0.0,0.0,0.0,0.0,0.0,0.0,0.0,0.0,0.0,0.0,0.0,0.0,0.0,0.0,0.0,0.0,0.0,0.0,0.0,0.0,0.0,0.0,0.0,0.0,0.0,0.0,0.0,0.0,0.0,0.0,0.0,0.0,0.0,0.0,0.0,0.0,0.0,0.0,0.0,0.0,0.0,0.0,0.0,0.0,0.0,0.0,0.0,-0.1169,-0.0883,-0.0751,-0.0888,-0.0718,-0.029,0.0479,0.0537,0.1414,0.3451,0.0,0.0,0.0,0.0,0.0,0.0,0.0,0.0,0.0,0.0,0.0,0.0,0.0,0.0,0.0,0.0,0.0,0.0,0.0,0.0,0.0,0.0,0.0,0.0,0.0,0.0,0.0,0.0,0.0,0.0,0.0,0.0,0.0,0.0,0.0,0.0,0.0,0.0,0.0,0.0,0.0,0.0,0.0,0.0,0.0,0.0,0.0,0.0,0.0,0.0,0.0,0.0,0.0,0.0,0.0,0.0,0.0,0.0,0.0,0.0,0.0,0.0,0.0,0.0,0.0,0.0,0.0,0.0,0.0,0.0,0.0,0.0,0.0,0.0,0.0,0.0,0.0,0.0,0.0,0.0,0.0,0.0,0.0,0.0,0.0,0.0,0.0,0.0,0.0,0.0,0.0,0.0,0.0,0.0,0.0,0.0,0.0,0.0,0.0,0.0,0.0,0.0,-0.066,-0.0388,-0.0318,-0.0627,-0.064,-0.0408,0.0143,0.0066,0.0744,0.248,0.0,0.0,0.0,0.0,0.0,0.0,0.0,0.0,0.0,0.0,0.0,0.0,0.0,0.0,0.0,0.0,0.0,0.0,0.0,0.0,0.0,0.0,0.0,0.0,0.0,0.0,0.0,0.0,0.0,0.0,0.0,0.0,0.0,0.0,0.0,0.0,0.0,0.0,0.0,0.0,0.0,0.0,0.0,0.0,0.0,0.0,0.0,0.0,0.0,0.0,0.0,0.0,0.0,0.0,0.0,0.0,0.0,0.0,0.0,0.0,0.4622,0.4837,0.0,0.0,0.0,0.0,0.0,0.0,0.0,0.0,0.0,0.0,0.0,0.0,0.0,0.0,0.0,0.0,0.0,0.0,0.0,0.0,0.0,0.0,0.0,0.0,0.0,0.0,0.0,0.0,0.0,0.0,0.0,0.0,0.0,0.0,0.0,0.0,0.0,0.0,0.0,0.0,0.1101,0.1287,0.1287,0.1161,0.129,0.1438,0.1561,0.0607,0.1576,0.5266,0.5252,0.0,0.0,0.0,0.0,0.0,0.0,0.0,0.0,0.0,0.0,0.0,0.0,0.0,0.0,0.0,0.0,0.0,0.0,0.0,0.0,0.0,0.0,0.0,0.0,0.0,0.0,0.0,0.0,0.0,0.0,0.0,0.0,0.0,0.0,0.0,0.0,0.0,0.0,0.0,0.0,0.0,0.0,0.0,0.0,0.0,0.0,0.0,0.0,0.0,0.0,0.0,0.0,0.0,0.0,0.0,0.0,0.0,0.0,0.0,0.4962,0.4971,0.0,0.0,0.0,0.0,0.0,0.0,0.0,0.0,0.0,0.0,0.0,0.0,0.0,0.0,0.0,0.0,0.0,0.0,0.0,0.0,0.0,0.0,0.0,0.0,0.0,0.0,0.0,0.0,0.0,0.0,0.0,0.0,0.0,0.0,0.0,0.0,0.0,0.0,0.0,0.0,0.1677,0.2276,0.2692,0.2887,0.3405,0.3762,0.3869,0.3235,0.3719,0.5788,0.5963,0.0,0.0,0.0,0.0,0.0,0.0,0.0,0.0,0.0,0.0,0.0,0.0,0.0,0.0,0.0,0.0,0.0,0.0,0.0,0.0,0.0,0.0,0.0,0.0,0.0,0.0,0.0,0.0,0.0,0.0,0.0,0.0,0.0,0.0,0.0,0.0,0.0,0.0,0.0,0.0,0.0,0.0,0.0,0.0,0.0,0.0,0.0,0.0,0.0,0.0,0.0,0.0,0.0,0.5825,0.5923,0.4947,0.6106,0.6404,0.599,0.5591,0.5353,0.5224,0.5224,0.0,0.0,0.0,0.0,0.0,0.0,0.0,0.0,0.0,0.0,0.0,0.0,0.0,0.0,0.0,0.0,0.0,0.0,0.0,0.0,0.0,0.0,0.5168,0.4948,0.5148,0.5253,0.4655,0.0,0.0,0.0,0.0,0.0,0.0,0.0,0.0,0.0,0.0,0.0,0.2024,0.297,0.3751,0.4199,0.5007,0.5606,0.59,0.5838,0.574,0.5621,0.6764,0.6818,0.0,0.0,0.0,0.0,0.0,0.0,0.0,0.0,0.0,0.0,0.0,0.0,0.0,0.0,0.0,0.0,0.0,0.0,0.0,0.0,0.0,0.0,0.0,0.0,0.0,0.0,0.0,0.0,0.0,0.0,0.0,0.0,0.5742,0.549,0.0,0.0,0.0,0.0,0.0,0.0,0.0,0.0,0.0,0.0,0.0,0.0,0.0,0.4874,0.5043,0.5418,0.5292,0.4754,0.5823,0.5969,0.534,0.6092,0.6581,0.6845,0.6781,0.0,0.5715,0.5715,0.0,0.0,0.0,0.0,0.0,0.0,0.0,0.0,0.0,0.0,0.0,0.0,0.0,0.0,0.0,0.0,0.0,0.0,0.0,0.0,0.0,0.0,0.4942,0.5261,0.5584,0.5823,0.5856,0.5732,0.5517,0.5108,0.5658,0.5829,0.0,0.0,0.0,0.0,0.0,0.0,0.3232,0.3664,0.4069,0.442,0.4831,0.5323,0.5933,0.5614,0.5685,0.6403,0.5935,0.6097,0.7107,0.6758,0.0,0.0,0.0,0.0,0.0,0.0,0.0,0.0,0.0,0.0,0.0,0.0,0.0,0.0,0.0,0.0,0.0,0.0,0.0,0.0,0.0,0.0,0.0,0.0,0.0,0.0,0.0,0.0,0.0,0.6129,0.6292,0.5684,0.6547,0.6931,0.0,0.0,0.0,0.0,0.0,0.0,0.0,0.0,0.0,0.5324,0.5465,0.5589,0.5765,0.6309,0.6362,0.5874,0.6919,0.7028,0.6345,0.7317,0.7718,0.7675,0.7914,0.7686,0.7124,0.6855,0.6783,0.681,0.0,0.0,0.0,0.0,0.6869,0.6836,0.6966,0.7348,0.7871,0.8069,0.0,0.0,0.0,0.0,0.0,0.0,0.0,0.5799,0.5974,0.5872,0.5819,0.6024,0.6149,0.6438,0.7215,0.6944,0.643,0.6,0.6253,0.6236,0.5463,0.5148,0.0,0.0,0.0,0.3403,0.3948,0.433,0.4871,0.5651,0.6042,0.6505,0.712,0.6611,0.6488,0.7016,0.6869,0.6727,0.6655,0.7724,0.7861,0.0,0.0,0.0,0.0,0.0,0.0,0.0,0.0,0.0,0.0,0.0,0.0,0.0,0.0,0.0,0.0,0.0,0.0,0.0,0.0,0.0,0.0,0.0,0.0,0.0,0.0,0.0,0.0,0.6068,0.6344,0.5778,0.6702,0.7195,0.0,0.0,0.0,0.0,0.0,0.0,0.6546,0.6514,0.6419,0.6312,0.6617,0.6927,0.7161,0.767,0.7747,0.7424,0.8313,0.8268,0.7474,0.855,0.8937,0.8762,0.9062,0.9165,0.9081,0.8225,0.7929,0.7962,0.7972,0.7895,0.7776,0.786,0.7782,0.7692,0.8247,0.8774,0.9226,0.9129,0.9265,0.9222,0.8004,0.0,0.0,0.0,0.0,0.6424,0.6503,0.6525,0.6623,0.7042,0.7102,0.7386,0.8519,0.8241,0.7627,0.71,0.691,0.6644,0.6133,0.5597,0.0,0.4526,0.412,0.41,0.4718,0.5166,0.5815,0.6845,0.725,0.7665,0.8211,0.7562,0.7297,0.7696,0.7724,0.7369,0.6576,0.8184,0.8218,0.6339,0.0,0.0,0.0,0.0,0.0,0.0,0.0,0.0,0.0,0.0,0.0,0.0,0.0,0.0,0.0,0.0,0.0,0.0,0.0,0.0,0.0,0.0,0.0,0.0,0.0,0.0,0.0,0.0,0.0,0.5381,0.6092,0.0,0.0,0.0,0.0,0.7748,0.8121,0.8024,0.7296,0.7725,0.7992,0.7979,0.8429,0.9119,1.0082,0.9737,0.9524,0.9372,0.9723,0.9451,0.8633,0.9409,0.9894,1.0194,1.022,1.08,1.158,0.9702,0.8935,0.8921,0.8998,0.9245,0.9453,0.8678,0.8643,0.8969,0.8613,0.8978,0.9731,1.0737,1.0755,1.0262,0.9287,0.809,0.0,0.0,0.6617,0.636,0.7348,0.7111,0.6928,0.8279,0.859,0.8801,0.9576,0.9704,0.9419,0.8551,0.7976,0.7386,0.6602,0.0,0.6101,0.5186,0.5245,0.5509,0.587,0.6328,0.6877,0.7577,0.7892,0.8224,0.8628,0.7927,0.7801,0.8582,0.7763,0.7461,0.7965,0.7326,0.6846,0.6584,0.6984,0.0,0.0,0.0,0.0,0.0,0.0,0.0,0.0,0.0,0.0,0.0,0.0,0.0,0.0,0.0,0.0,0.0,0.0,0.0,0.0,0.0,0.0,0.0,0.0,0.0,0.0,0.0,0.0,0.7787,0.8576,0.0,0.9757,1.0137,1.0417,1.055,1.1117,1.1414,1.1308,1.0904,1.0738,1.0856,1.0997,1.1311,1.184,1.2296,1.2448,1.2258,1.2608,1.2557,1.2165,1.2119,1.211,1.2112,1.206,1.1902,1.1757,1.2394,1.1912,1.0722,1.076,1.0552,1.0188,0.9862,0.986,1.0008,1.0142,1.0732,1.1525,1.1902,1.1517,1.0715,0.9726,0.9094,0.8675,0.8561,0.8344,0.8301,0.8886,0.8983,0.9094,0.9816,1.002,1.0356,1.1479,1.115,1.0714,1.1009,0.997,0.8744,0.7766,0.7519,0.7114,0.6087,0.6162,0.6491,0.6905,0.7328,0.7838,0.8467,0.8533,0.8699,0.9057,0.8271,0.8109,0.8906,0.8059,0.7579,0.7712,0.8075,0.7807,0.681,0.6821,0.7091,0.0,0.0,0.0,0.0,0.0,0.0,0.0,0.0,0.0,0.0,0.0,0.0,0.0,0.0,0.0,0.0,0.0,0.0,0.0,0.0,0.0,0.0,0.0,0.0,0.0,0.7809,0.8824,0.9867,1.0761,1.1582,1.2294,1.2631,1.2979,1.3276,1.3768,1.4096,1.4151,1.3538,1.3249,1.3432,1.3591,1.3797,1.4118,1.4602,1.476,1.4569,1.4763,1.4701,1.4418,1.3949,1.3798,1.3941,1.3597,1.3412,1.3384,1.4782,1.4603,1.3402,1.2815,1.217,1.1576,1.1402,1.1479,1.1689,1.2234,1.2833,1.3369,1.3496,1.2901,1.1981,1.1315,1.0734,1.0291,1.0146,0.9919,0.978,1.014,1.0423,1.0708,1.1169,1.1392,1.1792,1.276,1.2635,1.245,1.2757,1.1423,0.9964,0.9117,0.8898,0.8681,0.8163,0.786,0.7919,0.8632,0.855,0.8605,0.9049,0.9016,0.9054,0.9275,0.8725,0.8581,0.9064,0.8446,0.8142,0.826,0.8806,0.8666,0.7736,0.7358,0.7893,0.9331,0.0,0.0,0.0,0.0,0.0,0.0,0.0,0.0,0.0,0.0,0.0,0.0,0.0,0.0,0.0,0.0,0.0,0.0,0.0,0.0,0.0,0.0,0.0,0.842,0.9695,1.092,1.1472,1.256,1.3617,1.4497,1.5327,1.5785,1.5736,1.5945,1.5931,1.5653,1.5472,1.5472,1.5635,1.6164,1.6629,1.6981,1.6597,1.6366,1.6193,1.6063,1.5737,1.5218,1.4741,1.4951,1.5639,1.4864,1.5308,1.6604,1.6655,1.6771,1.675,1.5052,1.4178,1.3815,1.3275,1.3421,1.3996,1.4779,1.5065,1.5125,1.5457,1.4949,1.4192,1.4136,1.3034,1.1783,1.1793,1.1207,1.0711,1.1131,1.1363,1.1678,1.2358,1.2754,1.3068,1.3355,1.4179,1.4602,1.3787,1.2339,1.1104,1.064,1.0568,1.0758,1.1318,1.0299,0.0,1.0959,0.9932,0.9179,0.9339,0.9357,0.9357,0.9357,0.9357,0.93,0.9154,0.8962,0.9143,0.9792,0.9369,0.9204,0.9311,0.8599,0.8943,1.0391,0.0,0.0,0.0,0.0,0.0,0.0,0.0,0.0,0.0,0.0,0.0,0.0,0.0,0.0,0.0,0.0,0.0,0.0,0.0,0.0,0.0,1.157,1.1491,1.0516,1.1841,1.3501,1.4988,1.6103,1.7139,1.8143,1.8197,1.8346,1.8776,1.931,1.9336,1.8783,1.9406,1.9539,1.8999,1.9509,1.9532,1.8998,1.9128,1.8948,1.8489,1.8455,1.8456,1.8481,1.7763,1.7483,1.7541,1.7275,1.7004,1.6831,1.7912,1.791,1.7187,1.6464,1.5829,1.5338,1.5385,1.5549,1.5836,1.6354,1.6624,1.6747,1.6837,1.6691,1.6242,1.4927,1.4159,1.37,1.3482,1.3213,1.3186,1.4117,1.4155,1.4142,1.4964,1.5078,1.5197,1.5907,1.5882,1.587,1.6309,1.5533,1.4183,1.2284,1.2081,1.209,1.1791,1.1083,1.067,1.1001,1.0242,0.9898,1.0465,1.0531,1.0516,1.0467,1.0458,1.0395,1.0263,1.0073,1.0008,1.0086,1.0111,0.9984,0.9727,1.0385,1.057,0.0,0.0,0.0,0.0,0.0,0.0,0.0,0.0,0.0,0.0,0.0,0.0,0.0,0.0,0.0,0.0,0.0,0.0,0.0,0.0,0.0,0.0,1.404,1.458,1.4512,1.5257,1.6315,1.7781,1.8966,2.0032,2.0965,2.0815,2.0794,2.1036,2.1455,2.1432,2.0801,2.137,2.1534,2.1149,2.1443,2.1353,2.084,2.0707,2.0471,2.0101,1.9732,1.965,1.9771,1.8971,1.8712,1.8906,1.8526,1.8259,1.8129,1.8987,1.8975,1.8341,0.0,0.0,0.0,0.0,1.6981,1.7151,1.7563,1.7808,1.7962,1.8097,1.8147,1.7898,1.6471,1.6002,1.5863,1.5333,1.5143,1.5266,1.5926,1.5973,1.595,1.6451,1.6567,1.6694,1.7196,1.7371,1.7459,1.7636,1.7545,0.0,1.506,1.4501,1.4262,1.4244,1.3062,1.2284,1.2592,1.1667,1.1144,1.1535,1.1584,1.1558,1.1484,1.1494,0.0,0.0,0.0,1.1029,1.1037,1.1269,0.0,0.0,0.0,1.1505,1.0657,1.0702,0.0,0.0,0.9697,0.9188,0.0,0.0,0.0,0.0,0.0,0.0,0.0,0.0,0.0,0.0,0.0,0.0,0.0,0.0,0.0,0.0,1.6713,1.7991,1.9289,1.9217,1.9311,2.0035,2.1313,2.2367,2.297,2.2995,2.2875,2.2665,2.2751,2.2553,2.1946,2.2201,0.0,0.0,0.0,2.259,2.2495,2.1794,2.1396,2.1282,2.0501,2.0131,2.0112,1.9404,1.9471,2.0107,1.9378,1.9446,2.0015,2.011,2.0148,2.0013,1.8879,1.8269,1.8027,1.8009,1.8055,1.8211,1.8621,0.0,0.0,1.9233,1.9332,1.9168,1.8317,1.808,1.7949,1.7158,1.6972,1.702,1.712,1.7214,1.7332,1.7409,1.7617,1.7799,1.7889,1.8586,1.9,1.8315,1.8737,1.8991,1.832,1.7245,1.669,1.7305,1.5441,1.4162,1.4724,1.3475,1.2534,1.2559,1.2552,0.0,1.2443,1.2445,1.2325,1.2087,1.2136,1.221,1.2326,1.2549,1.2695,1.2726,1.2391,1.2017,1.1539,1.1482,1.1248,1.0787,0.9353,0.8912,0.0,0.0,0.0,0.0,0.0,0.0,0.0,0.0,0.0,0.0,0.0,0.0,0.0,0.0,0.0,1.899,1.95,2.0218,2.1718,2.2082,2.2168,2.2061,2.2964,2.364,2.3759,2.3541,2.3431,2.353,2.3563,2.3305,2.2642,2.3896,2.4377,2.3774,2.4378,2.4398,2.3755,2.3602,2.316,2.247,2.2288,0.0,2.2211,2.2067,2.21,2.2284,2.2137,2.1791,2.138,2.2089,2.2332,2.2018,1.9989,1.9291,1.9386,1.9236,1.9378,1.9697,1.983,1.9973,2.0092,2.0142,2.0166,2.0031,1.9206,1.8883,0.0,1.8474,1.8363,1.8469,1.9081,1.8852,1.864,1.9339,1.9155,1.9002,1.9711,1.9508,1.9357,1.9895,1.9567,1.938,1.9978,1.8698,1.7399,1.6859,1.577,1.4805,1.425,1.3292,1.2884,1.3468,1.3538,1.3491,1.3354,1.3294,1.3244,1.3179,1.3559,1.3551,1.3108,1.3143,1.324,1.3388,1.281,1.2716,1.3054,1.2703,1.2199,1.1565,1.0798,1.0182,0.0,0.0,0.0,0.0,0.0,0.0,0.0,0.0,0.0,0.0,0.0,1.7709,1.9014,0.0,2.0908,2.2409,2.2468,2.2677,2.3625,2.3565,2.3338,2.3182,2.3792,2.4281,2.4383,2.4304,2.4181,2.3973,2.4319,2.4235,2.3485,2.4639,2.512,2.4716,2.5101,2.512,2.4697,2.4302,2.3879,2.3456,2.3004,2.2827,2.2844,2.2844,2.2882,2.2945,2.2945,2.2712,2.2388,2.282,2.2963,2.2785,2.1603,2.1128,2.1094,2.11,2.124,2.1423,2.1595,2.1711,2.1739,2.129,2.1154,2.0918,1.9597,1.9467,1.9655,1.9144,1.927,1.9625,1.9956,2.0137,2.0196,2.0196,2.0637,2.1041,2.1048,2.0781,2.0808,2.1635,2.1129,2.0836,2.1693,2.11,1.9918,1.8152,1.7122,1.6398,1.5951,1.5143,1.4741,1.5101,1.4769,1.445,1.4315,1.4244,1.4158,1.4101,1.4228,1.4332,1.4357,1.4171,1.4228,1.4592,1.4127,1.389,1.3892,1.3671,1.3113,1.2295,1.2126,1.1385,0.0,0.0,0.0,0.0,0.0,0.0,0.0,1.889,1.8893,2.0051,2.0593,2.1428,2.3315,2.4034,2.46,2.548,2.5069,2.4739,2.495,2.4302,2.3816,2.386,2.4284,2.4623,2.479,2.4956,2.4864,2.4387,2.4946,2.5032,2.4411,2.4974,2.5322,2.5322,2.5303,2.5322,2.5322,2.4676,2.4366,2.4353,2.3659,2.3357,2.3411,2.3411,2.3436,2.3497,2.3348,2.3368,2.3497,2.3318,2.3334,2.3474,2.344,2.3241,2.2976,2.2821,2.2766,2.2809,2.3037,2.3141,2.3086,2.2363,2.2148,2.1855,2.023,2.0323,2.0824,1.9957,2.0292,2.092,2.082,2.1339,2.1688,2.0974,2.1939,2.2808,2.2123,2.2076,2.2344,2.2988,2.2578,2.2342,2.2988,2.3093,2.2249,1.9785,1.8764,1.8161,1.7816,1.7176,1.6676,1.6522,1.5868,1.5338,1.504,1.5101,1.5121,1.4981,1.494,1.5178,1.5669,1.5335,1.5347,1.5761,1.5501,1.5089,1.4553,1.4635,1.4169,1.3198,1.3545,1.269,1.93,1.9194,1.9573,2.0687,2.0933,2.1396,0.0,2.3946,2.4208,2.4538,2.5977,2.7173,2.7147,2.7379,2.7623,2.7807,2.6563,2.5505,2.5364,2.4646,2.4209,2.4391,2.4623,2.4775,2.4804,2.5072,2.5264,2.526,2.5333,2.5376,2.5351,2.5376,2.5383,2.5391,2.533,2.5321,2.5383,2.5294,2.5286,2.5332,2.5235,2.5201,2.5211,2.5211,2.5243,2.5266,2.4546,2.4641,2.5247,2.4464,2.458,2.5221,2.5211,2.5182,2.4977,2.3505,2.2999,2.3064,2.3161,2.3183,2.3164,2.3027,2.3008,2.2871,2.1894,2.2168,2.2635,2.1743,2.2127,2.2776,2.2652,2.2688,2.2721,2.2636,2.2807,2.2991,2.2951,2.3001,2.3066,2.3086,2.3027,2.2987,2.3086,2.3053,2.2367,2.0463,2.0086,1.9451,1.7915,1.7626,1.7292,1.658,1.6407,1.5991,1.5078,1.5705,1.6094,1.5951,1.6536,1.6848,1.6736,1.6522,1.6368,1.6318,1.6063,1.5763,1.546,1.5816,1.5501,1.4581,1.5216,1.4243,2.1988,2.1953,2.2207,2.3664,2.4415,2.5159,2.6761,2.7227,2.7539,2.8297,2.9083,2.9645,2.9607,2.97,2.9643,2.9156,2.8084,2.7095,2.6377,2.5669,2.5049,2.4568,2.478,2.4969,2.4969,2.5216,2.5403,2.5453,2.5465,2.5463,2.5508,2.5463,2.5465,2.5465,2.5428,2.5428,2.5459,2.5465,2.5463,2.5493,2.5493,2.5531,2.5558,2.5526,2.5526,2.5527,2.5194,2.5233,2.5508,2.5153,2.52,2.5508,2.5459,2.5498,2.546,2.4778,2.4537,2.4553,2.4628,2.4648,2.457,2.4023,2.3887,2.373,2.2852,2.2852,2.3086,2.2713,2.2848,2.3075,2.2979,2.3309,2.3531,2.3018,2.3692,2.4358,2.3937,2.3882,2.4043,2.4512,2.4199,2.4003,2.4473,2.4537,2.4082,2.2824,2.1701,2.0742,2.0012,1.9069,1.8126,1.7292,1.7196,1.7028,1.661,1.6917,1.7064,1.6975,1.7255,1.7564,1.7884,1.7801,1.7858,1.8029,1.793,1.7681,1.7355,1.7498,1.7176,1.6375,1.6336,1.5759,2.4046,2.4464,2.4986,2.6374,2.7771,2.8989,2.987,3.0422,3.102,3.1928,3.1922,3.1708,3.1596,3.1184,3.0563,2.9633,2.8597,2.7611,2.6791,2.6101,2.5412,2.4746,2.492,2.5148,2.5221,2.5343,2.5459,2.5511,2.5535,2.5543,2.5554,2.5543,2.5535,2.5535,2.5517,2.5517,2.5535,2.5535,2.5535,2.5535,2.5535,2.5547,2.5567,2.5511,2.5493,2.5493,2.5493,2.5498,2.5463,2.5463,2.5463,2.5477,2.5434,2.5503,2.5603,2.5629,2.5633,2.5634,2.5683,2.5703,2.5605,2.4961,2.4766,2.4609,2.3711,2.3652,2.3848,2.3594,2.3672,2.3807,2.3725,2.4148,2.4427,2.3764,2.4598,2.5371,2.4859,2.4742,2.4941,2.5586,2.5195,2.494,2.551,2.5601,2.5375,2.4728,2.3294,2.2098,2.1615,2.0089,1.8814,1.8177,1.7889,1.7722,1.7722,1.7928,1.804,1.7991,1.8149,1.8469,1.897,1.8947,1.9075,1.936,1.9542,1.9342,1.8771,1.8948,1.8626,1.779,1.7383,1.7205,2.486,2.6151,2.7491,2.8402,3.0544,3.2512,3.2721,3.4048,3.529,3.558,3.4977,3.4105,3.3189,3.1651,3.0173,2.9098,2.7491,2.632,2.6148,2.5381,2.4891,2.5061,2.5101,2.524,2.5548,2.552,2.5511,2.5598,2.5601,2.5631,2.5683,2.5634,2.5601,2.5601,2.552,2.5539,2.5601,2.5601,2.5601,2.5601,2.5601,2.5561,2.5493,2.5493,2.5493,2.5493,2.5493,2.5471,2.5406,2.5394,2.5394,2.5413,2.5463,2.5543,2.5605,2.5662,2.5703,2.5703,2.5703,2.5703,2.5703,2.5664,2.5664,2.5508,2.4629,2.4941,2.5449,2.4609,2.4961,2.5605,2.5549,2.5542,2.5531,2.5444,2.5512,2.5581,2.5562,2.562,2.5664,2.5684,2.5684,2.5643,2.5607,2.5601,2.557,2.5483,2.4754,2.3606,2.1913,2.0239,1.9188,1.9169,1.8347,1.7791,1.7791,1.8506,1.8953,1.8953,1.9579,1.9936,1.9964,1.9831,1.9771,1.9778,2.041,2.0226,1.9167,1.9828,1.9614,1.8586,1.855,1.8531,2.6701,2.8509,3.053,3.2,3.2987,3.3962,3.5416,3.5744,3.5427,3.4369,3.3901,3.3048,3.092,3.0075,2.9404,2.8463,2.8296,2.7832,2.6554,2.7217,2.7174,2.5379,2.5822,2.61,2.5657,2.557,2.5598,2.566,2.5661,2.5936,2.6523,2.6542,2.6795,2.7361,2.7376,2.7082,2.6521,2.6521,2.6223,2.5601,2.5554,2.5508,2.5428,2.5434,2.5401,2.5371,2.5371,2.5346,2.5388,2.5947,2.5851,2.5397,2.6052,2.6337,2.6408,2.6466,2.6891,2.7266,2.6094,2.5703,2.5703,2.5703,2.5703,2.5644,2.5352,2.5469,2.5644,2.5352,2.5469,2.5683,2.5629,2.6032,2.6303,2.5704,2.6022,2.631,2.5777,2.5683,2.5703,2.5703,2.5703,2.5683,2.5662,2.5661,2.566,2.5634,2.4372,2.3022,2.1858,2.0706,2.0002,2.0002,1.9718,1.9534,1.9534,1.9765,1.9904,1.987,2.0629,2.1047,2.0992,2.0947,2.1158,2.1646,2.1324,2.1098,2.1064,2.1285,2.1158,2.0734,2.0553,2.046,2.8993,3.0934,3.3083,3.4841,3.5262,3.566,3.7321,3.6782,3.5435,3.3695,3.2602,3.1237,2.8818,2.7671,2.7103,2.7142,2.7095,2.6951,2.6687,2.7701,2.7921,2.6446,2.6919,2.7149,2.661,2.6553,2.6323,2.5742,2.6289,2.6738,2.6992,2.7305,2.7715,2.8281,2.8301,2.8027,2.7461,2.7461,2.6987,2.6029,2.6254,2.6168,2.5826,2.5835,2.5985,2.6217,2.5909,2.5947,2.6274,2.6832,2.6757,2.6354,2.6958,2.7254,2.7348,2.7388,2.777,2.8144,2.7012,2.6621,2.6621,2.6621,2.6621,2.6621,2.6621,2.6621,2.6621,2.6621,2.6621,2.6621,2.6576,2.6983,2.7256,2.671,2.6983,2.7259,2.6738,2.6621,2.6543,2.623,2.6152,2.6074,2.5742,2.5703,2.5703,2.5703,2.4442,2.3188,2.2313,2.1452,2.0828,2.0494,2.0444,2.0435,2.0435,2.0694,2.0845,2.0803,2.1609,2.2056,2.1991,2.1971,2.2181,2.2671,2.2361,2.2201,2.2222,2.2383,2.225,2.1865,2.1643,2.1534,3.166,3.3435,3.5218,3.6914,3.7318,3.7519,3.834,3.7148,3.5351,3.3516,3.1172,2.8905,2.7054,2.4762,2.3688,2.5288,2.4261,2.4148,2.6615,2.702,2.7379,2.824,2.8379,2.8408,2.8437,2.8476,2.7793,2.6094,2.7422,2.7988,2.7246,2.7949,2.8418,2.8496,2.8457,2.8418,2.8379,2.832,2.7819,2.688,2.7574,2.7467,2.6678,2.6678,2.7121,2.7852,2.7024,2.714,2.789,2.7928,2.8017,2.8104,2.8149,2.8242,2.8359,2.8379,2.8398,2.8437,2.8437,2.8379,2.8301,2.8301,2.8301,2.8301,2.8301,2.8301,2.8301,2.8301,2.8301,2.8301,2.8301,2.832,2.8359,2.8301,2.832,2.8359,2.8301,2.8301,2.8066,2.7226,2.7031,2.6738,2.5918,2.5723,2.5703,2.5703,2.5,2.4141,2.3281,2.2422,2.1582,2.0742,2.0619,2.0568,2.0568,2.1302,2.1788,2.1765,2.2522,2.2966,2.2959,2.2898,2.2889,2.2928,2.3511,2.3446,2.2713,2.3173,2.2958,2.2122,2.1994,2.1931,3.458,3.6207,3.7831,3.8944,3.8242,3.7363,3.7578,3.5781,3.3203,3.0215,2.8574,2.6933,2.4512,2.4074,2.4194,2.4569,2.5945,2.7183,2.785,2.9606,3.068,3.0252,3.078,3.0937,3.0293,3.082,3.0742,2.9668,2.8789,2.8769,2.9844,2.9492,2.9863,3.1152,3.0586,2.9922,2.9277,2.8527,2.8013,2.7765,2.7864,2.7775,2.7563,2.7563,2.7678,2.789,2.7659,2.7678,2.7948,2.8544,2.8493,2.8092,2.8748,2.9078,2.9209,2.9257,2.9687,3.0234,3.0234,2.9394,2.8301,2.8301,2.8301,2.8301,2.8301,2.8301,2.8301,2.8301,2.8301,2.8301,2.8301,2.8789,2.9101,2.8457,2.8809,2.9082,2.8437,2.8301,2.8223,2.8008,2.7441,2.6934,2.6719,2.6133,2.5703,2.5703,2.5508,2.5059,2.418,2.2793,2.1816,2.1582,2.1542,2.1542,2.1542,2.2321,2.2803,2.2747,2.3458,2.3867,2.387,2.3805,2.4043,2.4659,2.4245,2.4147,2.4381,2.4506,2.4332,2.3859,2.383,2.3729,3.6713,3.8046,3.9375,4.0254,3.8574,3.6621,3.625,3.3867,3.0742,2.7305,2.5918,2.4765,2.2904,2.2342,2.2636,2.4115,2.5311,2.6719,2.8613,3.0469,3.1719,3.1973,3.2422,3.2539,3.2031,3.2441,3.2519,3.2031,3.1094,3.0801,3.1445,3.1348,3.1543,3.2187,3.1738,3.1055,3.0176,2.9542,2.9041,2.8679,2.8922,2.8819,2.8429,2.8429,2.864,2.8986,2.8582,2.864,2.9025,2.9486,2.9458,2.9181,2.9687,2.9963,3.0111,3.0156,3.0488,3.0898,3.0898,3.0254,2.9434,2.9434,2.9434,2.9434,2.9434,2.9434,2.9434,2.9434,2.9434,2.9434,2.9434,2.9805,3.0059,2.9551,2.9805,3.0039,2.9551,2.9434,2.9336,2.8945,2.7851,2.6992,2.6992,2.6289,2.5703,2.5703,2.5703,2.5527,2.5039,2.3828,2.2852,2.2461,2.2422,2.2422,2.2422,2.3223,2.371,2.3667,2.4381,2.4802,2.478,2.4706,2.4868,2.5284,2.487,2.4793,2.5122,2.5034,2.4872,2.4623,2.4545,2.4393,3.841,3.9341,4.0234,4.0879,3.8496,3.5703,3.4629,3.1621,2.8164,2.4902,2.3496,2.2617,2.1875,2.0586,2.0644,2.373,2.3848,2.4941,2.9023,3.0449,3.1738,3.3535,3.375,3.3789,3.3906,3.3926,3.3867,3.375,3.3848,3.3516,3.2578,3.3086,3.3086,3.2383,3.2363,3.1992,3.123,3.0984,3.0482,2.9752,3.0253,3.0076,2.9289,2.9286,2.9679,3.0359,2.9602,2.9698,3.0398,3.0398,3.0472,3.0606,3.0722,3.0817,3.0937,3.1152,3.1152,3.1074,3.1074,3.1074,3.1055,3.0937,3.0898,3.0898,3.0898,3.0898,3.0918,3.1035,3.0996,3.0937,3.1035,3.1074,3.1074,3.1074,3.1152,3.123,3.123,3.1152,3.0801,2.9941,2.8359,2.7168,2.7168,2.6348,2.5703,2.5703,2.5703,2.5703,2.5703,2.4941,2.4102,2.3359,2.3262,2.3262,2.3262,2.4062,2.457,2.457,2.5224,2.5564,2.5493,2.5434,2.5371,2.5313,2.5303,2.5303,2.5303,2.5111,2.4956,2.4804,2.4623,2.4428,4.014,4.0664,4.084,4.0273,3.8047,3.541,3.3144,2.9394,2.5801,2.3828,2.2148,2.0996,2.0859,2.1172,2.1855,2.3125,2.4414,2.6289,2.9199,3.0976,3.2851,3.5254,3.5547,3.582,3.6543,3.6621,3.6328,3.5605,3.6211,3.5937,3.4355,3.3711,3.334,3.3203,3.3184,3.3125,3.2969,3.2176,3.1708,3.1546,3.0833,3.0412,3.0259,3.0197,3.0256,3.0379,3.0237,3.0275,3.0398,3.0398,3.0472,3.0664,3.139,3.1367,3.1074,3.2461,3.2559,3.1973,3.1973,3.1973,3.1855,3.1133,3.0898,3.0898,3.0898,3.0898,3.1055,3.1777,3.1465,3.1074,3.1797,3.1973,3.1973,3.1973,3.248,3.2969,3.2969,3.2441,3.1719,3.084,2.9277,2.8066,2.8066,2.6758,2.5703,2.5703,2.5703,2.5703,2.5703,2.4941,2.4336,2.4199,2.418,2.418,2.418,2.4961,2.5469,2.5469,2.5558,2.5564,2.5493,2.5434,2.5371,2.5313,2.5303,2.5303,2.5303,2.5264,2.5084,2.4804,2.476,2.4561,4.0668,4.1052,4.0996,4.0117,3.7577,3.4488,3.1481,2.7762,2.4376,2.224,2.1128,2.0563,2.0586,2.0916,2.1596,2.2884,2.3412,2.5054,2.8998,3.0292,3.2129,3.5586,3.5996,3.6348,3.7226,3.7305,3.6934,3.6074,3.6816,3.6738,3.5449,3.4551,3.4082,3.4082,3.3633,3.3398,3.3398,3.2946,3.2489,3.1984,3.1505,3.1022,3.0559,3.0482,3.0693,3.1137,3.1099,3.1314,3.1698,3.1698,3.1797,3.1987,3.2415,3.242,3.2305,3.3105,3.3164,3.2754,3.2344,3.2207,3.2051,3.1172,3.0898,3.0898,3.0898,3.0898,3.0996,3.1406,3.1543,3.1562,3.1523,3.2168,3.2598,3.1738,3.2168,3.2891,3.3301,3.2773,3.207,3.166,3.0176,2.8984,2.8984,2.7539,2.6387,2.6387,2.5996,2.5703,2.5703,2.5332,2.5078,2.5078,2.5078,2.5078,2.5078,2.5469,2.5703,2.5703,2.5636,2.5564,2.5493,2.5434,2.5371,2.5313,2.5303,2.5303,2.5303,2.5303,2.5171,2.4904,2.4828,2.4639,4.014,4.0658,4.0662,3.9803,3.6923,3.3406,2.9971,2.6376,2.3112,2.0921,2.0321,2.0272,2.0502,2.0513,2.0984,2.2544,2.2372,2.3606,2.8047,2.935,3.1327,3.5254,3.6055,3.6621,3.748,3.7578,3.7226,3.6348,3.709,3.7129,3.6055,3.5351,3.498,3.498,3.4316,3.3965,3.3965,3.3769,3.3318,3.2582,3.238,3.189,3.1173,3.111,3.1452,3.2103,3.2036,3.2355,3.2952,3.2904,3.3015,3.3213,3.3407,3.3454,3.3457,3.3828,3.3848,3.3594,3.2949,3.2734,3.2559,3.1523,3.1055,3.0898,3.0898,3.1035,3.1211,3.1366,3.1776,3.2088,3.1752,3.2516,3.3144,3.2207,3.2519,3.3144,3.3574,3.3184,3.2637,3.2266,3.0937,2.9824,2.9629,2.8301,2.7285,2.7285,2.6699,2.6191,2.5996,2.5977,2.5918,2.5723,2.5703,2.5703,2.5703,2.5703,2.5683,2.5683,2.5633,2.5561,2.5473,2.5428,2.5379,2.5313,2.5303,2.5303,2.5303,2.5303,2.5203,2.4998,2.4891,2.4741,3.819,3.9238,3.9634,3.8759,3.5914,3.2427,2.9002,2.4963,2.1651,2.0628,1.9788,1.9476,2.0266,2.0418,2.0729,2.1667,2.2427,2.3614,2.5664,2.8695,3.1729,3.4492,3.6211,3.7519,3.8398,3.8476,3.8125,3.7246,3.7988,3.7754,3.6094,3.5918,3.5879,3.5879,3.5801,3.5762,3.5762,3.498,3.4531,3.4433,3.358,3.3135,3.3054,3.2981,3.3005,3.3077,3.2992,3.3016,3.3064,3.2964,3.3015,3.3271,3.4075,3.3981,3.3594,3.5176,3.5254,3.457,3.4492,3.4473,3.4219,3.2598,3.1543,3.0898,3.0898,3.1445,3.2226,3.289,3.257,3.2352,3.3793,3.375,3.3678,3.5175,3.5586,3.5449,3.4746,3.4512,3.4023,3.25,3.1426,3.0527,2.9746,2.8809,2.8184,2.8184,2.8105,2.7773,2.6973,2.6875,2.6582,2.5781,2.5703,2.5703,2.5703,2.5703,2.5662,2.5607,2.5603,2.5547,2.5415,2.5406,2.5371,2.5313,2.5303,2.5303,2.5303,2.5303,2.5203,2.501,2.4986,2.4917,3.6425,3.8268,3.9369,3.7912,3.534,3.2373,2.9472,2.5466,2.2133,2.1291,2.0424,1.9935,2.0324,2.0361,2.0798,2.2194,2.182,2.2537,2.5859,2.7095,2.9422,3.414,3.5312,3.6699,3.9141,3.9375,3.9238,3.8887,3.8691,3.8301,3.7598,3.707,3.6777,3.6777,3.6269,3.5996,3.5996,3.5664,3.5215,3.4707,3.4314,3.3863,3.3354,3.3289,3.3559,3.4033,3.3879,3.4129,3.4604,3.4494,3.4563,3.4731,3.5087,3.5112,3.5059,3.5742,3.5781,3.541,3.4883,3.4707,3.4492,3.3301,3.2653,3.2251,3.1723,3.2172,3.2912,3.323,3.3422,3.3601,3.3785,3.3602,3.3806,3.5586,3.5605,3.5273,3.5449,3.5078,3.4492,3.3828,3.3008,3.2148,3.1309,3.0449,2.9687,2.916,2.8633,2.8164,2.7832,2.7773,2.7441,2.6582,2.6016,2.5703,2.5703,2.5703,2.5662,2.5603,2.5561,2.5508,2.5406,2.5363,2.534,2.5303,2.5303,2.5303,2.5303,2.5303,2.5264,2.5173,2.5065,2.4974,3.3746,3.6012,3.7448,3.6163,3.3863,3.1255,2.87,2.5164,2.2175,2.1309,2.0681,2.0302,2.028,2.0295,2.0772,2.2241,2.1673,2.221,2.556,2.6201,2.8042,3.2614,3.3847,3.5488,3.8457,3.9453,3.9902,3.9902,3.957,3.9375,3.9375,3.8535,3.7949,3.7695,3.709,3.6641,3.6387,3.6387,3.5957,3.5078,3.5078,3.4766,3.418,3.4114,3.4413,3.4979,3.48,3.5049,3.56,3.5534,3.5574,3.5667,3.5696,3.5802,3.5973,3.5996,3.5996,3.5918,3.5293,3.5078,3.4941,3.4062,3.3922,3.3925,3.3032,3.3204,3.3688,3.3652,3.4276,3.4737,3.3958,3.3942,3.4451,3.5703,3.5527,3.5254,3.5879,3.5527,3.5019,3.4746,3.4199,3.3516,3.2695,3.1855,3.1074,3.0469,2.9629,2.8984,2.8711,2.8672,2.8359,2.748,2.6602,2.5977,2.5723,2.5703,2.5662,2.5603,2.5543,2.5488,2.5428,2.5357,2.5322,2.5354,2.5348,2.5348,2.5354,2.5354,2.5354,2.5354,2.5197,2.5118,2.9808,3.1935,3.316,3.3158,3.112,2.8478,2.5928,2.337,2.1221,2.0212,2.0161,2.0241,2.0041,2.0161,2.0581,2.1389,2.2216,2.3113,2.4089,2.646,2.8431,2.945,3.1833,3.4101,3.5879,3.8379,3.9902,3.9902,4.0684,4.1172,4.1172,4.0351,3.9473,3.8613,3.8574,3.8164,3.7285,3.7285,3.6855,3.5996,3.5996,3.5976,3.5976,3.5976,3.5932,3.588,3.5741,3.5643,3.56,3.5534,3.5553,3.5601,3.5667,3.5772,3.5907,3.5974,3.5996,3.5996,3.5996,3.5996,3.584,3.4961,3.5273,3.58,3.4859,3.4573,3.4562,3.4516,3.5081,3.5515,3.4788,3.5224,3.5893,3.5976,3.5996,3.5996,3.5996,3.5996,3.5723,3.4863,3.4687,3.4414,3.3535,3.2715,3.2187,3.2168,3.1426,3.0566,2.9707,2.959,2.9258,2.8379,2.7519,2.6641,2.5762,2.5703,2.5662,2.5603,2.5543,2.5489,2.5508,2.5379,2.5363,2.5508,2.5434,2.5434,2.5508,2.5508,2.5508,2.5508,2.5508,2.535,2.4929,2.7013,2.8567,2.7932,2.7123,2.5966,2.3927,2.1934,2.0259,1.9316,1.9125,1.9115,1.9056,1.9551,2.0416,2.1821,2.2397,2.317,2.4608,2.6153,2.8371,3.1694,3.6012,3.8945,3.9492,4.0293,4.0781,4.0781,4.1035,4.1191,4.1191,4.0371,3.9766,3.9492,3.8906,3.8476,3.8184,3.7598,3.7168,3.6875,3.6289,3.5996,3.5996,3.5948,3.5916,3.5896,3.5714,3.5631,3.56,3.5534,3.5553,3.5601,3.5667,3.5772,3.5907,3.5974,3.5996,3.5996,3.5996,3.5996,3.5957,3.5684,3.5739,3.5879,3.5575,3.549,3.5486,3.5451,3.5669,3.5849,3.5621,3.6208,3.6716,3.6133,3.6465,3.6738,3.6133,3.5996,3.5918,3.5644,3.5586,3.5312,3.4434,3.4082,3.3711,3.3105,3.2324,3.1699,3.1406,3.0859,3.0156,2.9277,2.8418,2.7539,2.666,2.6035,2.5662,2.5603,2.557,2.5551,2.5493,2.5465,2.5465,2.5489,2.5468,2.5488,2.5493,2.5493,2.5493,2.5493,2.5493,2.5449,2.1417,2.3306,2.4594,2.4013,2.363,2.3016,2.1512,2.0126,1.9049,1.8672,1.8594,1.8699,1.899,1.9462,2.038,2.2092,2.2443,2.3099,2.4818,2.6237,2.8628,3.2798,3.706,3.9801,4.0176,4.0527,4.0859,4.1172,4.0898,4.0859,4.1172,4.0371,3.9902,3.9902,3.9375,3.8926,3.8594,3.8066,3.7637,3.7285,3.6426,3.5995,3.5951,3.5913,3.6036,3.6249,3.5794,3.5753,0.0,3.5643,3.5522,3.5566,3.5652,3.5755,3.5845,3.5953,3.5996,3.5996,3.5996,3.5996,3.5996,3.5996,3.5973,3.5984,3.6266,3.614,3.5965,3.6331,3.6425,3.6497,3.683,3.7318,3.7494,3.6615,3.6874,3.7148,3.6601,3.6484,3.6484,3.6484,3.6484,3.6211,3.5332,3.4922,3.4512,3.3965,3.3184,3.2539,3.2246,3.1738,3.1055,3.0176,2.9316,2.8437,2.7559,2.6387,2.5683,2.5636,2.5607,2.5598,2.559,2.5535,2.5511,2.5567,2.5554,2.5551,2.5587,2.5587,2.5902,2.6546,2.6197,2.6209,0.0,2.0507,2.1043,2.1043,2.0542,1.9769,1.875,1.7999,0.0,1.8104,1.835,1.8741,1.9616,1.9811,2.0443,2.2239,2.2508,2.3082,2.4841,2.6853,2.9485,3.3044,3.5771,3.7705,3.8592,3.9453,4.0312,4.1113,4.039,4.0273,4.1152,4.0254,3.9746,3.9805,3.9805,3.9434,3.8691,3.8613,3.8163,3.7362,3.6425,3.595,3.5896,3.5873,3.6229,3.6762,3.6007,3.6033,3.6565,3.5872,3.5545,3.5522,3.5646,3.571,3.5735,3.593,3.5996,3.5996,3.5996,3.5996,3.5996,3.5996,3.6074,3.6288,3.6902,3.656,3.6174,3.7109,3.729,3.7371,3.8174,3.8448,3.8272,3.739,3.7329,3.7441,3.7382,3.7382,3.7383,3.7383,3.7344,3.7031,3.623,3.5371,3.4785,3.4785,3.4043,3.3223,3.2461,3.2266,3.1894,3.1074,3.0156,2.9277,2.8457,2.6797,2.5762,2.5703,2.5637,2.5634,2.5703,2.557,2.5567,2.5703,2.5694,2.5753,2.5879,2.5879,2.6719,2.8281,2.7412,2.7422,1.6678,0.0,1.6676,1.6676,1.7042,1.7123,0.0,1.6156,1.6432,1.6355,1.6842,1.7736,1.916,1.9922,2.0883,2.2597,2.3626,2.4582,2.5617,2.984,3.3383,3.4881,3.7934,3.9786,3.9408,4.0192,4.0837,4.1033,4.0328,4.0273,4.1152,3.9101,3.8223,3.8887,3.8906,3.908,3.9449,3.8731,3.8277,3.8057,3.6498,3.5752,3.5749,3.5698,3.5766,3.5929,3.6298,3.6188,3.5834,3.6238,3.6087,3.5579,3.5679,3.5761,3.5853,3.5954,3.5996,3.5996,3.5996,3.5996,3.5996,3.5945,3.6794,3.7721,3.7194,3.6937,3.6992,3.7834,3.8046,3.8072,3.8266,3.8818,3.911,3.8228,3.8559,3.8887,3.8268,3.8138,3.8168,3.8261,3.7754,3.7226,3.7031,3.6269,3.5684,3.5684,3.4941,3.4336,3.4141,3.2988,3.2129,3.1914,3.0527,2.9512,2.9316,2.7695,2.6406,2.5742,2.5683,2.5683,2.5703,2.5662,2.5662,2.5703,2.6347,2.7011,2.7695,2.7695,2.7891,2.8281,2.8066,2.8085,1.5524,1.591,1.6252,1.6624,1.707,1.7272,1.6687,1.6561,1.6637,1.6898,1.7209,1.7978,1.9667,2.027,2.1099,2.2924,2.403,2.5416,2.758,3.0924,3.3924,3.596,3.8229,3.974,4.012,4.0296,4.0567,4.0976,3.9955,3.9687,4.0566,3.8496,3.7519,3.7988,3.7946,3.8129,3.8557,3.841,3.8124,3.7688,3.6345,3.5682,3.5655,3.5621,3.5781,3.6118,3.6144,3.6122,3.6065,3.6164,3.596,3.5611,3.573,3.5836,3.5907,3.5974,3.5996,3.5996,3.5953,3.5903,3.5923,3.628,3.703,3.7792,3.8022,3.8119,3.8264,3.8762,3.8857,3.8908,3.9306,3.9753,3.9869,3.9005,3.9207,3.9493,3.9087,3.9002,3.9036,3.9179,3.8496,3.7773,3.7363,3.6582,3.5996,3.5996,3.5605,3.5156,3.4746,3.3906,3.3047,3.2285,3.1367,3.0469,2.9668,2.873,2.7812,2.6953,2.6894,2.6894,2.6894,2.6894,2.6894,2.6894,2.7363,2.8027,2.8906,2.8496,2.8711,2.9473,2.9082,2.9101,1.5593,1.6683,1.7756,1.8076,1.835,1.8501,1.8328,1.7674,1.7337,1.8186,1.8333,1.8834,2.0608,2.0907,2.1533,2.3506,2.4798,2.6824,3.0414,3.193,3.3762,3.6721,3.7951,3.9079,4.045,4.013,4.016,4.0905,3.9504,3.8984,3.9844,3.8125,3.7168,3.7305,3.7194,3.7097,3.6996,3.7784,3.7765,3.6973,3.6095,3.5648,3.5579,3.5579,3.5925,3.6488,3.593,3.6021,3.6491,3.6002,3.5747,3.5668,3.5827,3.5907,3.5916,3.5975,3.5996,3.5974,3.5907,3.5972,3.6209,3.6783,3.725,3.7789,3.9007,3.9463,3.9584,3.9714,3.9663,3.9734,4.0481,4.0667,4.0481,3.9734,3.9644,3.9757,3.9836,3.9862,3.9903,4.0036,3.9277,3.8379,3.7637,3.668,3.5996,3.5996,3.6113,3.5879,3.5019,3.4902,3.4297,3.2754,3.2344,3.1601,3.0117,2.9863,2.9473,2.871,2.8437,2.8301,2.8281,2.8281,2.8359,2.8476,2.8476,2.8906,2.9765,2.9022,2.9412,3.0859,3.0253,3.0293,1.7492,1.8728,1.8971,1.7018,1.7652,1.8506,1.7524,1.72,1.73,1.8001,1.8658,1.9635,2.1322,2.217,2.3233,2.5067,2.8153,3.1336,3.426,3.6031,3.7233,3.7762,3.9187,3.9971,3.9557,4.0199,4.0687,4.0824,3.9451,3.8984,3.9844,3.7559,3.6543,3.7285,3.7285,3.6887,3.6118,3.6771,3.7056,3.69,3.5975,3.5534,3.5528,3.5528,3.5578,3.5718,3.6276,3.6222,3.5831,3.6452,3.637,3.586,3.5896,3.5923,3.5995,3.5996,3.5953,3.5907,3.5772,3.669,3.779,3.7124,3.8363,4.0026,3.9474,3.9783,4.0342,4.0367,4.0352,4.0361,4.0496,4.0515,4.0496,4.0361,4.0352,4.0403,4.0524,4.0595,4.0676,4.0801,3.9623,3.8555,3.8418,3.707,3.5996,3.5996,3.6621,3.6797,3.5918,3.5801,3.543,3.4414,3.3047,3.209,3.1816,3.1113,3.0584,3.0353,2.906,2.828,2.8223,2.8279,2.8611,2.9296,2.9316,2.9726,3.0526,3.033,3.0412,3.0743,3.1348,3.1379,1.6456,1.8047,1.9077,1.7907,1.9441,2.0991,2.0069,1.9741,1.976,2.0126,2.0452,2.1015,2.2226,2.3177,2.4884,2.825,3.071,3.2966,3.5185,3.6161,3.6988,3.7892,3.8681,3.9206,3.9347,4.0228,4.0446,3.9577,3.9381,3.9062,3.8516,3.7363,3.668,3.6601,3.6601,3.6386,3.597,3.6216,3.632,3.6192,3.5721,3.5493,3.5493,3.5493,3.5509,3.5558,3.5944,3.5938,3.5693,3.6156,3.6181,3.5903,3.5945,3.5973,3.5996,3.5951,3.5869,3.5799,3.6218,3.6833,3.7514,3.8041,3.9006,3.9995,4.0037,4.0346,4.0765,4.123,4.0951,4.0489,4.0489,4.0489,4.0489,4.0489,4.0489,4.0549,4.0667,4.0752,4.085,4.0964,4.009,3.9297,3.9297,3.8242,3.7382,3.7313,3.7274,3.7072,3.6598,3.613,3.5536,3.4734,3.3953,3.3309,3.2821,3.243,3.1762,3.0755,3.0414,3.003,2.9518,2.9987,3.042,3.0784,3.0804,3.1213,3.2051,3.2013,3.2018,3.207,3.246,3.2237,1.5926,1.751,1.9008,1.9076,2.0953,2.2776,2.2759,2.2386,2.2278,2.295,2.2994,2.3107,2.3731,2.4724,2.665,3.0426,3.2407,3.4122,3.5853,3.6257,3.6949,3.8411,3.8238,3.8367,3.9301,3.9888,3.9786,3.8783,3.9076,3.8809,3.7656,3.7226,3.6699,3.6016,3.5996,3.5996,3.5996,3.5921,3.5811,3.5611,3.557,3.5528,3.5507,3.5528,3.5558,3.5591,3.5621,3.5663,3.5761,3.5869,3.5907,3.5938,3.5975,3.5996,3.5973,3.5884,3.5878,3.5987,3.6632,3.7063,3.7558,3.8888,3.9509,3.9848,4.0516,4.0742,4.0924,4.1599,4.116,4.0543,4.0795,4.0688,4.0489,4.0489,4.0489,4.0534,4.0636,4.0731,4.0805,4.0916,4.0336,3.9834,3.9834,3.9112,3.8498,3.838,3.8025,3.7659,3.7331,3.6727,3.6002,3.5232,3.4807,3.4222,3.334,3.3249,3.2659,3.1319,3.1843,3.189,3.119,3.1832,3.2201,3.2162,3.2154,3.2485,3.3145,3.3142,3.3142,3.3165,3.3359,3.3038,1.8087,1.8857,1.9143,1.9754,2.0595,2.1789,2.3852,2.3599,2.3547,2.5825,2.6264,2.6282,2.6337,2.7382,2.8593,2.9718,3.2943,3.5911,3.7584,3.8527,3.9354,4.0219,3.895,3.8367,3.9301,3.8839,3.8793,3.9544,3.8295,3.7793,3.8476,3.6973,3.6055,3.5996,3.5996,3.5996,3.5996,3.5921,3.5836,3.5696,3.5621,3.5562,3.5507,3.5574,3.56,3.5601,3.5671,3.5761,3.5896,3.59,3.5942,3.5996,3.5996,3.5951,3.588,3.5761,3.6187,3.6809,3.6729,3.7804,3.9232,3.9348,3.9995,4.0707,4.0766,4.0752,4.0729,4.0866,4.0696,4.0723,4.1654,4.1195,4.0489,4.0489,4.0489,4.0504,4.0519,4.0623,4.0715,4.0726,4.014,3.9622,3.9622,3.8902,3.833,3.8303,3.8945,3.912,3.8307,3.8148,3.7792,3.6917,3.5431,3.4147,3.3284,3.3087,3.2967,3.2851,3.3014,3.3021,3.2842,3.3014,3.306,3.2919,3.2909,3.2948,3.3006,3.2949,3.2949,3.3026,3.3839,3.3816,1.6388,1.7696,1.8875,1.9192,2.0474,2.2148,2.4013,2.5226,2.6245,2.7163,2.8136,2.878,2.8576,2.8948,3.0016,3.2182,3.4208,3.6103,3.7757,3.8277,3.8604,3.8911,3.8392,3.7983,3.7909,3.8144,3.8052,3.7432,3.7831,3.7773,3.7012,3.6875,3.6562,3.6016,3.5996,3.5996,3.5996,3.5974,3.5921,3.5812,3.5716,3.5646,3.5621,3.5646,3.5702,3.5794,3.5802,3.5884,3.5951,3.5951,3.5974,3.5996,3.5996,3.5903,3.5844,3.634,3.6619,3.6916,3.7959,3.8777,3.9411,3.9913,4.0377,4.0742,4.0742,4.0742,4.0878,4.1455,4.113,4.0707,4.1098,4.0847,4.0489,4.0489,4.0489,4.0489,4.0489,4.061,4.0703,4.0703,4.05,4.0346,4.0346,4.0073,3.9835,3.9791,3.9616,3.9333,3.896,3.8458,3.799,3.7705,3.7124,3.6406,3.5572,3.5392,3.5085,3.4583,3.4083,3.3553,3.2956,3.3503,3.3804,3.3747,3.3747,3.4017,3.4545,3.4533,3.4533,3.4564,3.4885,3.4627,1.5485,1.709,1.8697,1.8638,2.0772,2.3366,2.5184,2.6802,2.8313,2.9697,3.0439,3.077,3.0564,3.0175,3.07,3.3278,3.4732,3.6003,3.7392,3.7627,3.7751,3.7969,3.755,3.7181,3.7024,3.7339,3.723,3.6464,3.7266,3.7383,3.6465,3.6719,3.6621,3.6016,3.5996,3.5996,3.5996,3.5996,3.5974,3.5921,3.5834,3.5752,3.5703,3.5735,3.5807,3.5903,3.5916,3.595,3.5996,3.5996,3.5996,3.5996,3.5996,3.5876,3.5762,3.6365,3.6638,3.6911,3.8373,3.9071,3.9474,4.0304,4.0642,4.0731,4.0731,4.0742,4.0906,4.1513,4.1179,4.0649,4.068,4.0596,4.0489,4.0489,4.07,4.0835,4.0546,4.0786,4.0965,4.0675,4.0676,4.0703,4.0703,4.0703,4.069,4.0642,4.0127,3.9721,3.9692,3.8931,3.832,3.8092,3.8066,3.7854,3.7293,3.6903,3.6469,3.5911,3.5084,3.4334,3.3757,3.4295,3.4603,3.4603,3.4603,3.4911,3.5493,3.5493,3.5493,3.5493,3.5493,3.5213,1.6105,1.7479,1.8648,1.8379,2.1577,2.5401,2.7679,2.8222,2.9457,3.3805,3.3373,3.2241,3.2296,3.1067,3.06,3.2325,3.4282,3.5847,3.6573,3.6786,3.7143,3.7882,3.6547,3.595,3.6868,3.6314,3.627,3.7207,3.6484,3.6367,3.7226,3.6445,3.5976,3.5976,3.5976,3.5976,3.5996,3.5996,3.5996,3.5996,3.5996,3.5901,3.571,3.5841,3.5903,3.5907,3.5973,3.5996,3.5996,3.5996,3.5996,3.5996,3.5996,3.5876,3.5703,3.5703,3.6144,3.6853,3.7719,3.8633,3.9553,4.0432,4.0732,4.0793,4.0793,4.0752,4.0707,4.0788,4.0645,4.0515,4.0655,4.0596,4.0489,4.0489,4.1162,4.1546,4.0681,4.1181,4.1527,4.0662,4.0489,4.0489,4.0489,4.0489,4.0489,4.0489,4.0489,4.0489,4.0489,3.9796,3.8969,3.8123,3.8027,3.8027,3.8007,3.7219,3.6719,3.6719,3.5968,3.5526,3.5493,3.5526,3.5512,3.5512,3.5526,3.5526,3.5512,3.5512,3.5526,3.5493,3.5493,3.5493,1.6528,1.7996,1.9591,1.9511,2.2161,2.5324,2.7314,2.899,3.096,3.4012,3.3827,3.3166,3.3327,3.2534,3.2269,3.3573,3.4311,3.4798,3.5106,3.518,3.5072,3.468,3.4201,3.4049,3.436,3.4757,3.5118,3.5449,3.5234,3.5195,3.5469,3.4648,3.418,3.418,3.418,3.4473,3.5078,3.5098,3.5391,3.5996,3.5996,3.5975,3.5906,3.5951,3.5973,3.5973,3.5996,3.5996,3.5996,3.5996,3.5996,3.5996,3.5996,3.5876,3.5762,3.6384,3.7045,3.7738,3.8604,3.9475,4.0212,4.0482,4.0582,4.0584,4.0584,4.0582,4.0554,4.059,4.054,4.0504,4.0545,4.0534,4.0489,4.0489,4.07,4.0816,4.0546,4.07,4.0796,4.0546,4.0489,4.0489,4.0489,4.0489,4.0489,4.0489,4.0489,4.0489,4.0489,4.0277,4.0046,3.9777,3.9758,3.9527,3.895,3.8681,3.8277,3.7642,3.7392,3.6738,3.5565,3.6045,3.6353,3.6353,3.6949,3.6969,3.6353,3.6353,3.6065,3.5493,3.5493,3.5493,1.6464,1.8179,2.0152,2.075,2.3423,2.651,2.876,3.1049,3.3246,3.5075,3.4558,3.4028,3.4885,3.3813,3.3261,3.4632,3.4614,3.4431,3.449,3.4224,3.3821,3.3278,3.3225,3.3264,3.3298,3.3807,3.4134,3.418,3.418,3.418,3.418,3.3691,3.3398,3.3398,3.3398,3.3652,3.418,3.418,3.4629,3.5488,3.5488,3.5664,3.5996,3.5996,3.5996,3.5996,3.5996,3.5996,3.5996,3.5996,3.5996,3.5996,3.5996,3.5876,3.5762,3.6287,3.6909,3.7603,3.8469,3.9335,4.0065,4.0392,4.0489,4.0489,4.0489,4.0489,4.0489,4.0489,4.0489,4.0489,4.0489,4.0489,4.0489,4.0489,4.0758,4.0912,4.0566,4.0758,4.0912,4.0566,4.0489,4.0489,4.0489,4.0489,4.0489,4.0489,4.0489,4.0489,4.0489,4.0489,4.0489,4.0489,4.0489,4.0296,3.9815,3.9469,3.9084,3.8546,3.818,3.7546,3.6526,3.6969,3.7219,3.7219,3.7738,3.7738,3.7219,3.7219,3.6969,3.6488,3.6488,3.6315,1.6246,1.8182,2.0429,2.2059,2.5133,2.8464,3.1187,3.3553,3.5412,3.6202,3.5277,3.482,3.6394,3.4788,3.3746,3.5334,3.4969,3.4441,3.4308,3.3667,3.3154,3.3011,3.3044,3.3074,3.3074,3.3218,3.3281,3.3281,3.3281,3.3281,3.3281,3.3223,3.3164,3.3164,3.3164,3.3203,3.3281,3.3281,3.373,3.457,3.457,3.5,3.5762,3.5937,3.5996,3.5996,3.5996,3.5996,3.5996,3.5996,3.5996,3.5996,3.5996,3.5874,3.5703,3.5696,3.6173,3.693,3.7738,3.8623,3.9527,4.0258,4.0489,4.0489,4.0489,4.0489,4.0489,4.0489,4.0489,4.0489,4.0489,4.0489,4.0489,4.0489,4.1104,4.147,4.0662,4.1123,4.145,4.0642,4.0489,4.0489,4.0489,4.0489,4.0489,4.0489,4.0489,4.0489,4.0489,4.0489,4.0489,4.0489,4.0489,4.0489,4.0489,3.9815,3.9411,3.9411,3.8661,3.8238,3.8238,3.8161,3.8123,3.8123,3.818,3.818,3.8123,3.8123,3.8084,3.8007,3.8007,3.7584,1.7368,1.8793,2.08,2.3132,2.6323,2.9389,3.1428,3.2295,3.2931,3.3782,3.4714,3.5305,3.5057,3.4579,3.4341,3.4764,3.4137,3.337,3.2783,3.2555,3.2185,3.1478,3.1403,3.1424,3.1424,3.205,3.2461,3.2461,3.2461,3.2461,3.2461,3.1816,3.1445,3.1445,3.1445,3.1777,3.2441,3.2461,3.2871,3.3672,3.3672,3.3789,3.4004,3.5371,3.5996,3.5996,3.5996,3.5996,3.5996,3.5996,3.5996,3.5996,3.5945,3.5821,3.5696,3.5629,3.6513,3.7757,3.793,3.8969,4.0258,4.0431,4.0489,4.0489,4.0489,4.0489,4.0489,4.0489,4.0489,4.0489,4.0489,4.0489,4.0489,4.0489,4.0642,4.0719,4.0527,4.0642,4.0719,4.0527,4.0489,4.0489,4.0489,4.0489,4.0489,4.0489,4.0489,4.0489,4.0489,4.0489,4.0489,4.0489,4.0489,4.0489,4.0489,4.0335,4.0239,4.0239,4.0065,3.995,3.995,3.9354,3.9008,3.9008,3.9642,3.9642,3.9008,3.9008,3.8661,3.8007,3.8007,3.7892,1.702,1.8691,2.1159,2.4547,2.7078,2.9082,3.0448,3.0782,3.1051,3.1916,3.339,3.438,3.3994,3.3921,3.394,3.4007,3.333,3.263,3.2246,3.1836,3.1406,3.0957,3.0898,3.0898,3.0898,3.1309,3.1582,3.1582,3.1582,3.1582,3.1582,3.1152,3.0703,3.0293,3.0684,3.0918,3.0957,3.1367,3.1992,3.2832,3.2832,3.3242,3.4043,3.4961,3.5605,3.5996,3.5996,3.5996,3.5996,3.5972,3.5948,3.5947,3.5849,3.5736,3.5646,3.5611,3.6612,3.8007,3.8007,3.9104,4.0489,4.0489,4.0489,4.0489,4.0489,4.0489,4.0489,4.0489,4.0489,4.0489,4.0489,4.0489,4.0489,4.0489,4.0489,4.0489,4.0489,4.0489,4.0489,4.0489,4.0489,4.0489,4.0489,4.0489,4.0489,4.0489,4.0489,4.0489,4.0489,4.0489,4.0489,4.0489,4.0489,4.0489,4.0489,4.0489,4.0489,4.0489,4.0489,4.0489,4.0489,4.0085,3.9873,3.9873,4.0277,4.0277,3.9873,3.9873,3.9642,3.92,3.92,3.8988,1.6512,1.8643,2.1554,2.5415,2.7071,2.8017,2.9062,2.9214,2.9394,3.0273,3.1825,3.3044,3.3093,3.3119,3.3129,3.3183,3.2519,3.1973,3.1973,3.1348,3.084,3.0684,3.0684,3.0625,3.0469,3.0586,3.0684,3.0684,3.0801,3.0898,3.0898,3.0898,3.0508,2.9629,3.0429,3.0468,2.9609,3.0449,3.125,3.1973,3.2129,3.3008,3.4473,3.4473,3.4941,3.5781,3.5937,3.5918,3.5762,3.5706,3.5767,3.5877,3.5567,3.553,3.5611,3.5579,3.6511,3.7777,3.7777,3.8777,4.0065,4.0065,4.0162,4.0277,4.0277,4.0392,4.0489,4.0489,4.0489,4.0489,4.0489,4.0489,4.0489,4.0489,4.0489,4.0489,4.0489,4.0489,4.0489,4.0489,4.0489,4.0489,4.0489,4.0489,4.0489,4.0489,4.0489,4.0489,4.0489,4.0489,4.0489,4.0489,4.0489,4.0489,4.0489,4.0489,4.0489,4.0489,4.0489,4.0489,4.0489,4.0489,4.0489,4.0489,4.0489,4.0489,4.0489,4.0489,4.0489,4.0489,4.0489,4.0142,1.7455,1.9573,2.2036,2.4118,2.53,2.6384,2.8083,2.7871,2.7598,2.8476,3.0605,3.2342,3.2343,3.2343,3.2343,3.2363,3.1641,3.1074,3.1074,3.0976,3.0625,2.9863,2.9766,2.9473,2.8711,2.9336,2.9766,2.9766,3.0469,3.0898,3.0898,3.0898,3.0508,2.9629,3.0323,3.0361,2.9609,3.0343,3.0831,3.1074,3.1836,3.2676,3.3574,3.3574,3.4043,3.4922,3.5664,3.5566,3.4863,3.4791,3.5224,3.5814,3.4855,3.4953,3.559,3.554,3.6098,3.6873,3.6873,3.7507,3.8334,3.8334,3.8834,3.945,3.945,3.995,4.0489,4.0489,4.0489,4.0489,4.0489,4.0489,4.0489,4.0489,4.0489,4.0489,4.0489,4.0489,4.0489,4.0489,4.0489,4.0489,4.0489,4.0489,4.0489,4.0489,4.0489,4.0489,4.0489,4.0489,4.0489,4.0489,4.0489,4.0489,4.0489,4.0489,4.0489,4.0489,4.0489,4.0489,4.0489,4.0489,4.0489,4.0489,4.0489,4.0489,4.0489,4.0489,4.0489,4.0489,4.0489,4.0431,1.9027,1.9513,2.0274,2.2962,2.392,2.4546,2.582,2.6562,2.7109,2.748,2.8867,3.0019,3.0019,3.0019,3.0019,3.0019,2.9687,2.9434,2.9434,2.9434,2.9297,2.8926,2.8867,2.8711,2.834,2.8652,2.8867,2.8867,2.9687,2.9961,2.9473,2.9861,2.9485,2.8138,2.8834,2.9094,2.8756,2.9574,3.0251,3.0792,3.1249,3.1914,3.2734,3.2734,3.3457,3.4687,3.459,3.4588,3.4634,3.4577,3.5015,3.5667,3.5162,3.5206,3.5553,3.5515,3.6007,3.6776,3.7257,3.8007,3.8796,3.9238,3.9662,3.9969,3.9969,4.0219,4.0489,4.0489,4.0489,4.0489,4.0489,4.0489,4.0489,4.0489,4.0489,4.0623,4.1123,4.1239,4.1239,4.1239,4.1239,4.1066,4.0566,4.0489,4.0489,4.0489,4.0489,4.0489,4.0489,4.0489,4.0489,4.0489,4.0489,4.0489,4.0489,4.0489,4.0489,4.0489,4.0489,4.0489,4.0489,4.0489,4.0489,4.0489,4.0489,4.0489,4.0489,4.0489,4.0489,4.0489,4.0489,4.0489,1.988,1.9316,1.9004,2.1777,2.2637,2.3027,2.3867,2.5254,2.6348,2.6348,2.7031,2.7637,2.7637,2.8008,2.8301,2.8301,2.8301,2.8301,2.8301,2.8301,2.8223,2.8008,2.7969,2.7871,2.7656,2.7832,2.7969,2.7969,2.8789,2.8984,2.832,2.8859,2.8474,2.6949,2.7658,2.7974,2.7765,2.888,2.9842,3.0696,3.1052,3.1562,3.2207,3.2207,3.2871,3.4043,3.3828,3.3825,3.4019,3.4379,3.486,3.5338,3.5267,3.5365,3.5558,3.5558,3.5919,3.6556,3.7423,3.7993,3.8488,3.9527,3.9854,3.9912,4.0123,4.0335,4.0489,4.0489,4.0489,4.0489,4.0489,4.0489,4.0489,4.0489,4.0489,4.0681,4.1335,4.1816,4.2066,4.1854,4.1989,4.1854,4.0969,4.0835,4.0758,4.0527,4.0489,4.0566,4.0796,4.0642,4.0566,4.0796,4.0623,4.0489,4.0489,4.0489,4.0489,4.0489,4.0489,4.0585,4.0816,4.0835,4.0931,4.1162,4.1162,4.0931,4.0489,4.0489,4.0489,4.0489,4.0489,4.0489,1.9264,1.9253,1.9473,2.0488,2.1348,2.2168,2.2988,2.3887,2.4531,2.4531,2.5234,2.584,2.584,2.7187,2.8301,2.8301,2.8301,2.8301,2.8301,2.8301,2.7988,2.7168,2.707,2.6738,2.5918,2.6582,2.707,2.707,2.7871,2.8359,2.8301,2.8273,2.785,2.693,2.7626,2.764,2.688,2.8613,2.9896,3.0716,3.1677,3.2168,3.2207,3.2207,3.2246,3.2422,3.3965,3.375,3.2441,3.3968,3.4615,3.4659,3.458,3.5016,3.5689,3.5689,3.5685,3.5775,3.6646,3.6388,3.5968,3.7603,3.8123,3.8277,3.9104,3.9892,4.0489,4.0489,4.0489,4.0489,4.0489,4.0489,4.0489,4.0489,4.0489,4.0508,4.0546,4.1873,4.2797,4.197,4.247,4.2758,4.1893,4.1739,4.145,4.0623,4.0489,4.0796,4.1643,4.1008,4.0816,4.1643,4.0989,4.0489,4.0489,4.0489,4.0489,4.0489,4.0489,4.0873,4.17,4.1739,4.2124,4.2951,4.2951,4.2143,4.0489,4.0489,4.0489,4.0489,4.0489,4.0489,1.9879,1.9243,1.8763,2.0234,2.082,2.1289,2.2148,2.3008,2.3633,2.3633,2.3848,2.4199,2.4766,2.582,2.6621,2.6621,2.6621,2.6621,2.6621,2.6621,2.6523,2.6191,2.6172,2.6035,2.5723,2.5977,2.6172,2.6172,2.6973,2.7226,2.666,2.7067,2.6891,2.603,2.6176,2.6423,2.6734,2.8026,2.9093,2.9932,3.0349,3.082,3.1367,3.1367,3.1367,3.1426,3.2598,3.2713,3.2151,3.3292,3.4066,3.4573,3.5074,3.5457,3.5703,3.5703,3.5682,3.5779,3.661,3.6716,3.6619,3.7654,3.8406,3.8955,3.9225,3.9854,4.0489,4.0489,4.0489,4.0489,4.0489,4.0489,4.0642,4.12,4.1758,4.2162,4.2162,4.2662,4.2835,4.197,4.2047,4.2181,4.1854,4.1335,4.1239,4.2047,4.1681,4.1643,4.2527,4.2354,4.2066,4.1835,4.1527,4.1104,4.0546,4.1008,4.1104,4.0527,4.1546,4.2066,4.1816,4.2335,4.2777,4.3085,4.3104,4.2797,4.2162,4.1604,4.1335,4.1316,4.0758,4.0489,2.0273,1.9601,1.9029,2.0222,2.0542,2.072,2.1306,2.2128,2.2754,2.2754,2.2949,2.3281,2.3887,2.4687,2.5352,2.5644,2.5703,2.5703,2.5703,2.5703,2.5703,2.5703,2.5703,2.5703,2.5703,2.5703,2.5703,2.5703,2.623,2.6309,2.5723,2.6147,2.6111,2.5496,2.5406,2.5793,2.6695,2.7405,2.8196,2.9054,2.9137,2.9629,3.0469,3.0469,3.0625,3.0937,3.1504,3.1716,3.1721,3.2853,3.364,3.4213,3.5037,3.5544,3.5802,3.5802,3.5788,3.5911,3.7016,3.723,3.7211,3.8484,3.9136,3.9437,3.9644,4.0065,4.0489,4.0489,4.0489,4.0489,4.0489,4.0719,4.1162,4.2027,4.2874,4.3431,4.3162,4.3547,4.3682,4.2816,4.2874,4.2989,4.2701,4.1931,4.1662,4.2527,4.2181,4.2104,4.2989,4.2835,4.2547,4.2277,4.197,4.1566,4.0989,4.1739,4.1989,4.1412,4.245,4.297,4.2662,4.3201,4.3643,4.3932,4.3932,4.3797,4.3508,4.2354,4.1662,4.1354,4.0758,4.0489,0.0,0.0,0.0,2.041,2.0464,2.0525,2.0506,2.1225,2.1894,2.1855,2.25,2.3086,2.3184,2.3867,2.4687,2.5566,2.5703,2.5703,2.5703,2.5703,2.5703,2.5703,2.5703,2.5703,2.5703,2.5703,2.5683,2.5703,2.5703,2.5703,2.5703,2.5636,2.5543,2.5401,2.5477,2.5885,2.6664,2.6809,2.7301,2.8176,2.8258,2.8769,2.9609,2.9629,3.0098,3.0898,3.0898,3.0898,3.1035,3.2676,3.3379,3.3496,3.4355,3.5234,3.5996,3.5996,3.5951,3.6137,3.7753,3.7756,3.7389,3.9818,4.0045,3.9518,4.0256,4.0469,4.0489,4.0489,4.0489,4.0489,4.0489,4.1123,4.1989,4.2893,4.3701,4.4066,4.3335,4.4451,4.5336,4.4432,4.4951,4.5259,4.4432,4.3624,4.2835,4.2027,4.1893,4.22,4.3066,4.245,4.2239,4.3047,4.2354,4.1835,4.1797,4.2604,4.3085,4.3066,4.3124,4.3508,4.4259,4.4316,4.4739,4.5566,4.5586,4.5163,4.4297,4.2681,4.1412,4.0527,4.0508,4.0489,2.032,0.0,0.0,0.0,0.0,0.0,2.0565,2.116,2.1647,2.1024,2.16,2.2422,2.3027,2.3828,2.4687,2.5566,2.5703,2.5703,2.5703,2.5703,2.5703,2.5703,2.566,2.5633,2.5633,2.5573,2.5587,2.5611,2.5633,2.5658,2.5703,2.5636,2.5561,2.5488,2.5543,2.5678,2.5894,2.5984,2.6463,2.7341,2.7988,2.8769,2.9629,3.0254,3.0664,3.0898,3.0898,3.0898,3.0976,3.207,3.2871,3.3496,3.4355,3.5234,3.5996,3.5996,3.5996,3.6031,3.6459,3.6809,3.7161,3.7754,3.8601,3.9437,3.9586,4.0027,4.0489,4.0489,4.0489,4.0489,4.0489,4.0681,4.1239,4.2739,4.3278,4.3701,4.4682,4.5259,4.5163,4.3701,4.3624,4.3893,4.4239,4.3624,4.3431,4.4393,4.4008,4.3912,4.4797,4.4701,4.4393,4.4008,4.3239,4.2489,4.1854,4.2604,4.2835,4.22,4.3893,4.472,4.4316,4.4913,4.5336,4.5586,4.5586,4.5163,4.4297,4.3835,4.2854,4.1431,4.0777,4.0489,2.0899,2.0797,2.0733,2.0435,0.0,0.0,2.1032,2.1655,2.2201,2.1696,2.2026,2.2539,2.3008,2.3809,2.457,2.5078,2.5448,2.5662,2.5703,2.5682,2.566,2.566,2.5601,2.5558,2.5558,2.5511,2.5526,2.5558,2.5558,2.5595,2.5659,2.5658,2.5605,2.5547,2.5605,2.5633,2.5601,2.5661,2.5957,2.6465,2.6973,2.7851,2.9062,2.957,3.0215,3.0898,3.0898,3.0898,3.0976,3.1836,3.2676,3.3496,3.4355,3.5234,3.5996,3.5996,3.5996,3.6055,3.638,3.6989,3.7678,3.7933,3.8896,3.992,3.9837,4.0123,4.0489,4.0489,4.0489,4.0566,4.095,4.1046,4.1393,4.2777,4.3355,4.3874,4.4855,4.5336,4.5297,4.4335,4.4143,4.4278,4.4759,4.4143,4.3932,4.4913,4.4624,4.447,4.4989,4.5047,4.472,4.3893,4.3682,4.3258,4.2412,4.3451,4.3932,4.3412,4.4778,4.5355,4.4855,4.5316,4.5586,4.5586,4.5586,4.5336,4.4836,4.447,4.3624,4.2316,4.145,4.1239,2.185,2.1639,2.1466,2.0754,2.122,0.0,2.1765,2.2494,2.3185,2.3107,2.3152,2.3221,2.3221,2.3924,2.451,2.451,2.5125,2.5607,2.5683,2.5633,2.5595,2.5595,2.5535,2.5498,2.5479,2.5473,2.5473,2.5498,2.5508,2.5535,2.5601,2.5659,2.5661,2.5607,2.5662,2.5662,2.5607,2.5662,2.5703,2.5703,2.5801,2.6719,2.8301,2.8398,2.9336,3.0898,3.0898,3.0898,3.0976,3.1836,3.2676,3.3496,3.4355,3.5234,3.5996,3.5996,3.5996,3.6113,3.6992,3.7782,3.8512,3.9337,4.0102,4.0662,4.0549,4.0489,4.0489,4.0489,4.0489,4.0681,4.145,4.1739,4.2008,4.2777,4.3643,4.4297,4.4297,4.497,4.5586,4.5586,4.5586,4.5586,4.5586,4.4951,4.4432,4.4432,4.4432,4.4432,4.4432,4.4432,4.4162,4.3451,4.3932,4.4008,4.3297,4.4605,4.5413,4.5316,4.549,4.5547,4.5451,4.5547,4.5586,4.5586,4.5586,4.5586,4.5586,4.4643,4.3855,4.3201,4.2354,4.2354,2.2581,2.2543,2.2504,2.235,2.2964,0.0,2.2731,2.326,2.3715,2.3062,2.3509,2.3996,2.3996,2.4701,2.529,2.529,2.5418,2.5547,2.5605,2.5561,2.5526,2.5526,2.5465,2.5415,2.5421,2.536,2.5363,2.542,2.5477,2.5535,2.5601,2.5607,2.5636,2.5683,2.5683,2.5683,2.5683,2.5683,2.5703,2.5703,2.6406,2.7285,2.832,2.9023,2.9902,3.0898,3.0898,3.0898,3.0976,3.1836,3.2676,3.3496,3.4355,3.5234,3.5996,3.5996,3.5996,3.6113,3.6992,3.7747,3.8454,3.9315,4.004,4.053,4.0504,4.0489,4.0489,4.0489,4.0489,4.0527,4.07,4.1277,4.1854,4.2008,4.3201,4.4297,4.4297,4.497,4.5586,4.5586,4.5586,4.5586,4.5586,4.5451,4.5336,4.5336,4.5336,4.5336,4.5336,4.5336,4.5278,4.5124,4.4624,4.4239,4.4085,4.4374,4.4278,4.3624,4.4855,4.5278,4.4586,4.522,4.5586,4.5586,4.5586,4.5586,4.5586,4.4066,4.3585,4.4047,4.3239,4.2931,2.3429,2.3362,2.334,2.2908,2.3456,0.0,0.0,2.4119,2.4624,2.4225,2.4521,2.4846,2.4846,2.5216,2.5493,2.5493,2.5463,2.5451,2.5503,2.5477,2.5459,2.5459,2.5391,2.5337,2.5346,2.5331,2.5313,2.5357,2.5408,2.5451,2.5503,2.5561,2.5627,2.5658,2.5683,2.5703,2.5703,2.5703,2.5703,2.5703,2.6133,2.7031,2.8301,2.875,2.9668,3.0898,3.0898,3.0898,3.0996,3.2266,3.3047,3.3496,3.4355,3.5234,3.5996,3.5996,3.5996,3.6113,3.6926,3.7695,3.8488,3.9256,4.0006,4.0602,4.0519,4.0489,4.0489,4.0489,4.0489,4.0489,4.0489,4.1143,4.1797,4.1797,4.3085,4.4297,4.4297,4.497,4.5586,4.5586,4.5586,4.5586,4.5586,4.5586,4.5586,4.5586,4.5586,4.5586,4.5586,4.5586,4.5432,4.4989,4.4951,4.4759,4.4335,4.4701,4.4778,4.4374,4.5143,4.5393,4.497,4.5355,4.5586,4.5586,4.5586,4.5586,4.5586,4.4759,4.4335,4.4278,4.347,4.3316,2.4315,2.4215,2.4168,2.3466,2.3812,2.4341,0.0,0.0,0.0,2.5383,2.5421,2.5471,2.5471,2.5471,2.5413,2.5257,2.5284,2.5282,2.5174,2.5073,2.5131,2.5356,2.533,2.5303,2.5303,2.5303,2.5303,2.5303,2.5346,2.5398,2.5427,2.5526,2.5598,2.5629,2.5662,2.5703,2.5703,2.5703,2.5703,2.5703,2.5703,2.6602,2.8301,2.8301,2.9258,3.0898,3.0898,3.0996,3.1269,3.2617,3.3359,3.373,3.4609,3.5371,3.5996,3.5996,3.5996,3.611,3.7022,3.7678,3.8285,3.9335,4.0134,4.0667,4.053,4.0489,4.0489,4.0489,4.0489,4.0527,4.07,4.1393,4.2047,4.2047,4.3335,4.4489,4.4335,4.497,4.5586,4.5586,4.5586,4.5586,4.5586,4.5586,4.5586,4.5586,4.5586,4.5586,4.5586,4.5586,4.5316,4.4624,4.5182,4.5316,4.4605,4.5201,4.5528,4.5355,4.5509,4.5509,4.5355,4.5509,4.5586,4.5586,4.5586,4.5586,4.5586,4.5586,4.524,4.4528,4.3874,4.3932,2.5158,2.5139,2.513,2.5034,2.5091,2.5149,2.5149,0.0,2.5313,2.5313,0.0,2.5312,2.5312,0.0,0.0,2.4358,2.4696,2.4854,2.4322,2.3946,2.4105,2.5168,2.5293,2.5303,2.5303,2.5303,2.5303,2.5303,2.5303,2.5363,2.5473,2.5493,2.5564,2.5683,2.5703,2.5703,2.5703,2.5703,2.5703,2.5703,2.5703,2.6602,2.8301,2.8301,2.9258,3.0898,3.0898,3.1348,3.207,3.2266,3.3203,3.4648,3.5508,3.5918,3.5996,3.5996,3.5951,3.6144,3.7714,3.7735,3.7473,3.9866,4.0665,4.0667,4.053,4.0489,4.0489,4.0489,4.0489,4.0681,4.145,4.2297,4.2951,4.2951,4.422,4.524,4.447,4.497,4.5586,4.5586,4.5586,4.5586,4.5586,4.5586,4.5586,4.5586,4.5586,4.5586,4.5586,4.5586,4.5547,4.5451,4.5528,4.5547,4.5451,4.5528,4.5259,4.4489,4.5163,4.524,4.447,4.5182,4.5586,4.5586,4.5586,4.5586,4.5586,4.5586,4.5547,4.5451,4.5355,4.5355,2.5163,2.5214,2.5303,2.5303,2.5303,2.5303,2.5303,2.5303,2.5303,2.5303,0.0,0.0,0.0,0.0,0.0,0.0,2.5013,2.5088,2.4822,2.414,2.385,2.4375,2.4424,2.4666,2.5245,2.5303,2.5303,2.5303,2.5339,2.5383,2.5434,2.5522,2.5573,2.5636,2.5683,2.5703,2.5703,2.5703,2.5703,2.5703,2.6211,2.7109,2.832,2.8828,2.9726,3.0898,3.0898,3.1113,3.1484,3.1992,3.2891,3.4023,3.4902,3.5547,3.5996,3.5996,3.595,3.6052,3.7205,3.7306,3.7294,3.9335,3.9948,3.9957,4.0385,4.0489,4.0489,4.0489,4.0489,4.0566,4.095,4.2066,4.3104,4.3104,4.4374,4.549,4.5124,4.5336,4.5586,4.5586,4.5586,4.5586,4.5586,4.5586,4.5586,4.5586,4.5586,4.5586,4.5586,4.5586,4.5586,4.5586,4.5586,4.5586,4.5586,4.5586,4.5432,4.5066,4.5393,4.5432,4.5066,4.5413,4.5586,4.5586,4.5586,4.5586,4.5586,4.5586,4.5586,4.5586,4.5066,4.4855,2.5111,2.5192,2.5303,2.5303,2.5303,2.5303,2.5303,2.5303,2.5274,2.5224,2.5264,0.0,0.0,0.0,2.5156,2.4926,0.0,2.505,2.4915,2.3938,2.3385,2.3763,2.3602,2.3749,2.4484,2.4812,2.4976,2.4994,2.5252,2.5427,2.5453,2.5547,2.5605,2.5633,2.5662,2.5703,2.5703,2.5703,2.5703,2.5703,2.6582,2.7461,2.832,2.9199,3.0078,3.0898,3.0898,3.1035,3.1328,3.2187,3.3008,3.3848,3.4706,3.5427,3.5973,3.5973,3.5921,3.5948,3.6701,3.7125,3.7525,3.8651,3.9161,3.9427,4.0,4.0315,4.0489,4.0489,4.0489,4.0546,4.0777,4.197,4.3104,4.3104,4.4201,4.524,4.524,4.524,4.5297,4.5547,4.5586,4.5586,4.5586,4.5586,4.5586,4.5586,4.5586,4.5586,4.5586,4.5586,4.5586,4.5586,4.5586,4.5586,4.5586,4.5586,4.5586,4.5586,4.5586,4.5586,4.5586,4.5586,4.5586,4.5586,4.5586,4.5586,4.5586,4.5586,4.5586,4.5566,4.4951,4.4662,2.5284,2.5303,2.5303,2.5303,2.5303,2.5303,2.5303,2.5303,2.5234,2.5046,2.5163,2.5212,2.4888,2.493,2.4743,0.0,2.4233,0.0,0.0,2.2697,2.234,2.3652,2.3106,2.2656,2.2685,2.3563,2.4174,2.4225,2.496,2.5459,2.5595,2.5601,2.5633,2.5683,2.5703,2.5703,2.5703,2.5703,2.5703,2.5703,2.6582,2.7461,2.832,2.9199,3.0078,3.0898,3.0898,3.1387,3.2226,3.3027,3.3867,3.4746,3.5547,3.5884,3.5903,3.5903,3.5812,3.5813,3.6629,3.7461,3.8147,3.8059,3.8666,3.9383,3.9336,3.9873,4.0489,4.0489,4.0489,4.0681,4.1546,4.2431,4.3104,4.3104,4.3739,4.4335,4.4335,4.4335,4.4586,4.5432,4.5586,4.5586,4.5586,4.5586,4.5586,4.5586,4.5586,4.5586,4.5586,4.5586,4.5586,4.5586,4.5586,4.5586,4.5586,4.5586,4.5586,4.5586,4.5586,4.5586,4.5586,4.5586,4.5586,4.5586,4.5586,4.5586,4.5586,4.5586,4.5586,4.5586,4.5566,4.5547,2.6159,2.5726,2.5303,2.5303,2.5303,2.5303,2.5303,2.5303,2.5274,2.5214,2.5253,2.5283,2.5149,2.5053,2.4915,0.0,0.0,2.4633,0.0,2.2993,2.186,2.1637,2.1483,2.1727,2.253,2.3397,2.3986,2.4186,2.4981,2.5513,2.5598,2.5637,2.5682,2.5703,2.5703,2.5703,2.5703,2.5703,2.5996,2.6562,2.7441,2.832,2.9199,3.0059,3.0625,3.0898,3.0898,3.1074,3.1406,3.2266,3.3086,3.3926,3.4763,3.5435,3.59,3.5802,3.6078,3.66,3.7365,3.745,3.7379,3.8498,3.8667,3.867,3.9769,4.0277,4.0623,4.12,4.1354,4.1566,4.2431,4.3278,4.3758,4.3239,4.3701,4.4297,4.4297,4.4297,4.4566,4.5432,4.5586,4.5586,4.5586,4.5586,4.5586,4.5586,4.5586,4.5586,4.5586,4.5586,4.5586,4.5586,4.5586,4.5586,4.5586,4.5586,4.5586,4.5586,4.5586,4.5586,4.5586,4.5586,4.5586,4.5586,4.5586,4.5586,4.5586,4.5586,4.5586,4.5586,4.5586,4.5586,2.6601,2.5967,2.5303,2.5303,2.5534,2.5668,2.536,2.5534,2.5639,2.5271,2.5253,2.5264,2.5138,2.5053,2.501,0.0,0.0,2.4576,0.0,2.2874,2.1562,2.0609,2.0466,2.0872,2.1958,2.2906,2.3658,2.4193,2.5021,2.5543,2.5633,2.5682,2.5703,2.5703,2.5703,2.5703,2.5703,2.5703,2.5977,2.6543,2.7734,2.8594,2.918,3.0351,3.0898,3.0898,3.0898,3.0898,3.0976,3.1836,3.2676,3.3476,3.4333,3.5162,3.5877,3.5755,3.5997,3.6516,3.728,3.718,3.6949,3.8373,3.8661,3.8661,3.9738,4.0489,4.1008,4.1277,4.1777,4.2316,4.2566,4.3451,4.4105,4.3297,4.3701,4.4297,4.4297,4.4297,4.4566,4.5432,4.5586,4.5586,4.5586,4.5586,4.5586,4.5586,4.5586,4.5586,4.5586,4.5586,4.5586,4.5586,4.5586,4.5586,4.5586,4.5586,4.5586,4.5586,4.5586,4.5586,4.5586,4.5586,4.5586,4.5586,4.5586,4.5586,4.5586,4.5586,4.5586,4.5586,4.5586,4.5586]}]]